[[{"header":{"parameterUnit":"m.s-1","parameterCategory":1,"la1":30.6,"la2":29.2853,"lo1":-89.7004,"lo2":-87.6739,"dx":0.0162,"dy":0.0183,"nx":112,"ny":82,"refTime":"2022-11-14T18:00:00:Z","depth":0,"parameterNumber":2,"parameterNumberName":"U-component_of_WINDS"},"data":[0.0,0.0,0.0,0.0,0.0,0.0,0.0,0.0,0.0,0.0,0.0,0.0,0.0,0.0,0.0,0.0,0.0,0.0,0.0,0.0,0.0,0.0,0.0,0.0,0.0,0.0,0.0,0.0,0.0,0.0,0.0,0.0,0.0,0.0,0.0,0.0,0.0,0.0,0.0,0.0,0.0,0.0,0.0,0.0,0.0,0.0,0.0,0.0,0.0,0.0,0.0,0.0,0.0,0.0,0.0,0.0,0.0,0.0,0.0,0.0,0.0,0.0,0.0,0.0,0.0,0.0,0.0,0.0,0.0,0.0,0.0,0.0,0.0,0.0,0.0,0.0,0.0,0.0,0.0,0.0,0.0,0.0,0.0,0.0,0.0,0.0,0.0,0.0,0.0,0.0,0.0,6.5898,7.0742,7.3203,7.2461,7.0078,6.6719,6.2383,0.0,0.0,0.0,0.0,0.0,0.0,0.0,0.0,0.0,0.0,0.0,0.0,0.0,0.0,0.0,0.0,0.0,0.0,0.0,0.0,0.0,0.0,0.0,0.0,0.0,0.0,0.0,0.0,0.0,0.0,0.0,0.0,0.0,0.0,0.0,0.0,0.0,0.0,0.0,0.0,0.0,0.0,0.0,0.0,0.0,0.0,0.0,0.0,0.0,0.0,0.0,0.0,0.0,0.0,0.0,0.0,0.0,0.0,0.0,0.0,0.0,0.0,0.0,0.0,0.0,0.0,0.0,0.0,0.0,0.0,0.0,0.0,0.0,0.0,0.0,0.0,0.0,0.0,0.0,0.0,0.0,0.0,0.0,0.0,0.0,0.0,0.0,0.0,0.0,0.0,0.0,0.0,0.0,0.0,0.0,0.0,0.0,0.0,0.0,0.0,0.0,0.0,0.0,0.0,6.1953,7.0156,7.3047,7.4336,7.4219,7.1836,6.8476,6.418,0.0,0.0,0.0,0.0,0.0,0.0,0.0,0.0,0.0,0.0,0.0,0.0,0.0,0.0,0.0,0.0,0.0,0.0,0.0,0.0,0.0,0.0,0.0,0.0,0.0,0.0,0.0,0.0,0.0,0.0,0.0,0.0,0.0,0.0,0.0,0.0,0.0,0.0,0.0,0.0,0.0,0.0,0.0,0.0,0.0,0.0,0.0,0.0,0.0,0.0,0.0,0.0,0.0,0.0,0.0,0.0,0.0,0.0,0.0,0.0,0.0,0.0,0.0,0.0,0.0,0.0,0.0,0.0,0.0,0.0,0.0,0.0,0.0,0.0,0.0,0.0,0.0,0.0,0.0,0.0,0.0,0.0,0.0,0.0,0.0,0.0,0.0,0.0,0.0,0.0,0.0,0.0,0.0,0.0,0.0,0.0,0.0,0.0,0.0,0.0,0.0,0.0,0.0,6.1914,6.7461,7.2851,7.4531,7.5312,7.5312,7.2461,6.9062,6.5234,5.7344,0.0,0.0,0.0,0.0,0.0,0.0,0.0,0.0,0.0,0.0,0.0,0.0,0.0,0.0,0.0,0.0,0.0,0.0,0.0,0.0,0.0,0.0,0.0,0.0,0.0,0.0,0.0,0.0,0.0,0.0,0.0,0.0,0.0,0.0,0.0,0.0,0.0,0.0,0.0,0.0,0.0,0.0,0.0,0.0,0.0,0.0,0.0,0.0,0.0,0.0,0.0,0.0,0.0,0.0,0.0,0.0,0.0,0.0,0.0,0.0,0.0,0.0,0.0,0.0,0.0,0.0,0.0,0.0,0.0,0.0,0.0,0.0,0.0,0.0,0.0,0.0,0.0,0.0,0.0,0.0,0.0,0.0,0.0,0.0,0.0,0.0,0.0,0.0,0.0,0.0,0.0,0.0,0.0,0.0,0.0,0.0,0.0,0.0,0.0,0.0,0.0,0.0,6.7265,7.1992,7.4648,7.5703,7.6211,7.6211,7.3008,6.9531,6.6133,5.8437,0.0,0.0,0.0,0.0,0.0,0.0,0.0,0.0,0.0,0.0,0.0,0.0,0.0,0.0,0.0,0.0,0.0,0.0,0.0,0.0,0.0,0.0,0.0,0.0,0.0,0.0,0.0,0.0,0.0,0.0,0.0,0.0,0.0,0.0,0.0,0.0,0.0,0.0,0.0,0.0,0.0,0.0,0.0,0.0,0.0,0.0,0.0,0.0,0.0,0.0,0.0,0.0,0.0,0.0,0.0,0.0,0.0,0.0,0.0,0.0,0.0,0.0,0.0,0.0,0.0,0.0,0.0,0.0,0.0,0.0,0.0,0.0,0.0,0.0,0.0,0.0,0.0,0.0,0.0,0.0,0.0,0.0,0.0,0.0,0.0,0.0,0.0,0.0,0.0,0.0,0.0,0.0,0.0,0.0,0.0,0.0,0.0,0.0,0.0,0.0,0.0,0.0,6.8164,7.289,7.5547,7.6601,7.7109,7.7109,7.3906,7.0469,6.7031,5.875,0.0,0.0,0.0,0.0,0.0,0.0,0.0,0.0,0.0,0.0,0.0,0.0,0.0,0.0,0.0,0.0,0.0,0.0,0.0,0.0,0.0,0.0,0.0,0.0,0.0,0.0,0.0,0.0,0.0,0.0,0.0,0.0,0.0,0.0,0.0,0.0,0.0,0.0,0.0,0.0,0.0,0.0,0.0,0.0,0.0,0.0,0.0,0.0,0.0,0.0,0.0,0.0,0.0,0.0,0.0,0.0,0.0,0.0,0.0,0.0,0.0,0.0,0.0,0.0,0.0,0.0,0.0,0.0,0.0,0.0,0.0,0.0,0.0,0.0,0.0,0.0,0.0,0.0,0.0,0.0,0.0,0.0,0.0,0.0,0.0,0.0,0.0,0.0,0.0,0.0,0.0,0.0,0.0,0.0,0.0,0.0,0.0,0.0,0.0,0.0,0.0,0.0,6.9062,7.3594,0.0,7.668,7.7187,7.7187,7.3984,7.0547,6.7109,0.0,0.0,0.0,0.0,0.0,0.0,0.0,0.0,0.0,0.0,0.0,0.0,0.0,0.0,0.0,0.0,0.0,0.0,0.0,0.0,0.0,0.0,0.0,0.0,0.0,0.0,0.0,0.0,0.0,0.0,0.0,0.0,0.0,0.0,0.0,0.0,0.0,0.0,0.0,0.0,0.0,0.0,0.0,0.0,0.0,0.0,0.0,0.0,0.0,0.0,0.0,0.0,0.0,0.0,0.0,0.0,0.0,0.0,0.0,0.0,0.0,0.0,0.0,0.0,0.0,0.0,0.0,0.0,0.0,0.0,0.0,0.0,0.0,0.0,0.0,0.0,0.0,0.0,0.0,0.0,0.0,0.0,0.0,0.0,0.0,0.0,0.0,0.0,0.0,0.0,0.0,0.0,0.0,0.0,0.0,0.0,0.0,0.0,0.0,0.0,0.0,0.0,6.4297,7.0156,7.457,0.0,7.7422,7.7617,7.7617,7.4414,7.0859,6.7148,0.0,0.0,0.0,0.0,0.0,0.0,0.0,0.0,0.0,0.0,0.0,0.0,0.0,0.0,0.0,0.0,0.0,0.0,0.0,0.0,0.0,0.0,0.0,0.0,0.0,0.0,0.0,0.0,0.0,0.0,0.0,0.0,0.0,0.0,0.0,0.0,0.0,0.0,0.0,0.0,0.0,0.0,0.0,0.0,0.0,0.0,0.0,0.0,0.0,0.0,0.0,0.0,0.0,0.0,0.0,0.0,0.0,0.0,0.0,0.0,0.0,0.0,0.0,0.0,0.0,0.0,0.0,0.0,0.0,0.0,0.0,0.0,0.0,0.0,0.0,0.0,0.0,0.0,0.0,0.0,0.0,0.0,0.0,0.0,0.0,0.0,0.0,0.0,0.0,0.0,0.0,0.0,0.0,0.0,0.0,0.0,0.0,0.0,0.0,0.0,0.0,0.0,6.6055,7.1445,7.5937,7.9336,7.8984,7.8515,7.8515,7.5312,7.1484,0.0,0.0,0.0,0.0,0.0,0.0,0.0,0.0,0.0,0.0,0.0,0.0,0.0,0.0,0.0,0.0,0.0,0.0,0.0,0.0,0.0,0.0,0.0,0.0,0.0,0.0,0.0,0.0,0.0,0.0,0.0,0.0,0.0,0.0,0.0,0.0,0.0,0.0,0.0,0.0,0.0,0.0,0.0,0.0,0.0,0.0,0.0,0.0,0.0,0.0,0.0,0.0,0.0,0.0,0.0,0.0,0.0,0.0,0.0,0.0,0.0,0.0,0.0,0.0,0.0,0.0,0.0,0.0,0.0,0.0,0.0,0.0,0.0,0.0,0.0,0.0,0.0,0.0,0.0,0.0,0.0,0.0,0.0,0.0,0.0,0.0,0.0,0.0,0.0,0.0,0.0,0.0,0.0,0.0,0.0,0.0,0.0,0.0,0.0,0.0,0.0,0.0,0.0,6.7773,7.2695,7.6601,7.9414,7.9492,7.9336,7.9336,7.6758,7.3281,6.8945,0.0,0.0,0.0,0.0,0.0,0.0,0.0,0.0,0.0,0.0,0.0,0.0,0.0,0.0,0.0,0.0,0.0,0.0,0.0,0.0,0.0,0.0,0.0,0.0,0.0,0.0,0.0,0.0,0.0,0.0,0.0,0.0,0.0,0.0,0.0,0.0,0.0,0.0,0.0,0.0,0.0,0.0,0.0,0.0,0.0,0.0,0.0,0.0,0.0,0.0,0.0,0.0,0.0,0.0,0.0,0.0,0.0,0.0,0.0,0.0,0.0,0.0,0.0,0.0,0.0,0.0,0.0,0.0,0.0,0.0,0.0,0.0,0.0,0.0,0.0,0.0,0.0,0.0,0.0,0.0,0.0,0.0,0.0,0.0,0.0,0.0,0.0,0.0,0.0,0.0,0.0,0.0,0.0,0.0,0.0,0.0,0.0,0.0,0.0,0.0,0.0,0.0,6.8984,7.375,7.7539,8.0429,8.0429,8.0234,8.0234,7.789,7.4726,7.0703,0.0,0.0,0.0,0.0,0.0,0.0,0.0,0.0,0.0,0.0,0.0,0.0,0.0,0.0,0.0,0.0,0.0,0.0,0.0,0.0,0.0,0.0,0.0,0.0,0.0,0.0,0.0,0.0,0.0,0.0,0.0,0.0,0.0,0.0,0.0,0.0,0.0,0.0,0.0,0.0,0.0,0.0,0.0,0.0,0.0,0.0,0.0,0.0,0.0,0.0,0.0,0.0,0.0,0.0,0.0,0.0,0.0,0.0,0.0,0.0,0.0,0.0,0.0,0.0,0.0,0.0,0.0,0.0,0.0,0.0,0.0,0.0,0.0,0.0,0.0,0.0,0.0,0.0,0.0,0.0,0.0,0.0,0.0,0.0,0.0,0.0,0.0,0.0,0.0,0.0,0.0,0.0,0.0,0.0,0.0,0.0,0.0,0.0,0.0,0.0,0.0,0.0,6.9844,7.4531,7.8515,8.1914,8.1601,8.1133,8.1133,7.8945,7.6055,7.2578,0.0,0.0,0.0,0.0,0.0,0.0,0.0,0.0,0.0,0.0,0.0,0.0,0.0,0.0,0.0,0.0,0.0,0.0,0.0,0.0,0.0,0.0,0.0,0.0,0.0,0.0,0.0,0.0,0.0,0.0,0.0,0.0,0.0,0.0,0.0,0.0,0.0,0.0,0.0,0.0,0.0,0.0,0.0,0.0,0.0,0.0,0.0,0.0,0.0,0.0,0.0,0.0,0.0,0.0,0.0,0.0,0.0,0.0,0.0,0.0,5.1445,0.0,0.0,0.0,0.0,0.0,0.0,0.0,0.0,0.0,0.0,0.0,0.0,0.0,0.0,0.0,0.0,0.0,0.0,0.0,0.0,0.0,0.0,0.0,0.0,0.0,0.0,0.0,0.0,0.0,0.0,0.0,0.0,0.0,0.0,0.0,0.0,0.0,0.0,0.0,0.0,0.0,7.0703,7.4922,7.8515,8.1914,8.2148,8.2031,8.2031,8.0898,7.8711,7.5273,7.0625,0.0,0.0,0.0,0.0,0.0,0.0,0.0,0.0,0.0,0.0,0.0,0.0,0.0,0.0,0.0,0.0,0.0,0.0,0.0,0.0,0.0,0.0,0.0,0.0,0.0,0.0,0.0,0.0,0.0,0.0,0.0,0.0,0.0,0.0,0.0,0.0,0.0,0.0,0.0,0.0,0.0,0.0,0.0,0.0,0.0,0.0,0.0,0.0,0.0,0.0,0.0,0.0,0.0,0.0,0.0,0.0,0.0,0.0,0.0,0.0,5.5078,0.0,0.0,0.0,0.0,0.0,0.0,0.0,0.0,0.0,0.0,0.0,0.0,0.0,0.0,0.0,0.0,0.0,0.0,0.0,0.0,0.0,0.0,0.0,0.0,0.0,0.0,0.0,0.0,0.0,0.0,0.0,0.0,0.0,0.0,0.0,0.0,0.0,0.0,0.0,0.0,7.2265,7.625,7.9726,8.3164,8.3554,8.3554,8.3554,8.2383,8.0703,7.8476,7.3906,0.0,0.0,0.0,0.0,0.0,0.0,0.0,0.0,0.0,0.0,0.0,0.0,0.0,0.0,0.0,0.0,0.0,0.0,0.0,0.0,0.0,0.0,0.0,0.0,0.0,0.0,0.0,0.0,0.0,0.0,0.0,0.0,0.0,0.0,0.0,0.0,0.0,0.0,0.0,0.0,0.0,0.0,0.0,0.0,0.0,0.0,0.0,0.0,0.0,0.0,0.0,0.0,0.0,6.293,6.4492,6.6094,6.6953,6.7422,6.7305,6.3047,6.0859,6.0117,5.7656,0.0,0.0,0.0,0.0,0.0,0.0,0.0,0.0,0.0,0.0,0.0,0.0,0.0,0.0,0.0,0.0,0.0,0.0,0.0,0.0,0.0,0.0,0.0,0.0,6.7383,6.6289,0.0,0.0,0.0,0.0,0.0,0.0,0.0,0.0,0.0,0.0,0.0,0.0,7.4101,7.789,8.1211,8.4531,8.4883,8.4883,8.4883,8.3594,8.2383,8.1523,7.7187,7.3476,0.0,0.0,0.0,0.0,0.0,0.0,0.0,0.0,0.0,0.0,0.0,0.0,0.0,0.0,0.0,0.0,0.0,0.0,0.0,0.0,0.0,0.0,0.0,0.0,0.0,0.0,0.0,0.0,0.0,0.0,0.0,0.0,4.8398,4.9414,0.0,0.0,0.0,0.0,0.0,0.0,0.0,0.0,0.0,0.0,0.0,0.0,0.0,5.7812,6.0508,6.1367,6.2851,6.4922,6.5898,6.6914,6.789,6.8711,6.9492,7.0156,6.9492,0.0,6.4609,6.2734,0.0,0.0,0.0,0.0,0.0,0.0,0.0,0.0,0.0,0.0,0.0,0.0,0.0,0.0,0.0,0.0,0.0,0.0,0.0,0.0,0.0,0.0,6.8164,7.1484,7.1797,7.1289,0.0,6.6797,6.2422,6.0664,5.7773,0.0,0.0,0.0,0.0,0.0,0.0,0.0,7.6055,7.918,8.1875,8.4609,8.4883,8.4883,8.4883,8.4687,8.4179,8.332,8.1211,7.8828,7.6289,7.0859,0.0,0.0,0.0,0.0,0.0,0.0,0.0,0.0,0.0,0.0,0.0,0.0,0.0,0.0,0.0,0.0,0.0,0.0,0.0,0.0,0.0,0.0,0.0,0.0,0.0,0.0,0.0,0.0,0.0,5.0976,5.4101,5.4492,5.3437,5.1797,0.0,0.0,0.0,0.0,0.0,0.0,0.0,0.0,0.0,5.9726,6.1367,6.3242,6.5312,6.6211,6.75,6.9219,7.0078,7.0937,7.1797,7.2148,7.2539,7.289,7.289,7.2031,7.039,6.7226,6.4453,6.1953,0.0,0.0,0.0,0.0,5.8437,6.0469,6.1367,6.2812,0.0,6.3359,0.0,0.0,0.0,0.0,0.0,0.0,0.0,0.0,0.0,0.0,7.375,7.5742,7.6289,7.6445,7.6797,7.4453,7.1055,0.0,6.4062,6.207,6.1094,0.0,0.0,0.0,0.0,7.3633,7.8672,8.1601,8.4179,8.6758,8.7031,8.7226,8.7734,8.7304,8.6679,8.5859,8.414,8.2265,8.0156,7.5547,7.125,0.0,0.0,0.0,0.0,0.0,0.0,0.0,0.0,0.0,0.0,0.0,0.0,0.0,0.0,0.0,0.0,0.0,0.0,0.0,0.0,0.0,0.0,0.0,0.0,0.0,0.0,0.0,0.0,5.5781,5.8476,5.914,5.8242,5.6719,0.0,0.0,0.0,0.0,0.0,0.0,5.9414,6.1367,6.3476,6.5859,6.6992,6.8281,6.9805,7.0469,7.1523,7.3008,7.3672,7.4414,7.5273,7.5273,7.5273,7.5273,7.5273,7.5273,7.4961,7.1094,6.8594,6.7031,6.4844,6.3867,6.3633,6.3203,6.4414,6.6406,6.7265,6.8555,6.9844,6.9844,6.8828,6.7226,6.5508,0.0,0.0,0.0,0.0,6.957,7.2539,7.543,7.7734,7.8594,7.9258,7.9687,7.9687,7.9219,7.7422,0.0,7.0234,6.8476,6.7148,0.0,0.0,0.0,0.0,7.7383,8.1484,8.4101,8.6367,8.8476,8.8906,8.9297,8.9922,8.9414,8.8789,8.8164,8.6719,8.5195,8.3672,7.9922,7.6328,7.3086,0.0,0.0,0.0,0.0,0.0,0.0,0.0,0.0,0.0,0.0,0.0,0.0,0.0,0.0,0.0,0.0,0.0,0.0,0.0,0.0,0.0,0.0,0.0,0.0,0.0,0.0,0.0,0.0,0.0,6.2461,6.125,0.0,0.0,0.0,0.0,5.8828,6.1133,6.2969,6.3945,6.6406,6.8594,7.0312,7.2031,7.3359,7.4258,7.4336,7.4805,7.5703,7.5742,7.6211,7.707,7.707,7.707,7.707,7.707,7.707,7.6875,7.414,7.25,7.1562,7.0625,6.9765,6.918,6.9922,7.0781,7.1758,7.2617,7.3515,7.4297,7.4297,7.3672,7.2578,7.0859,7.0781,0.0,0.0,7.2812,7.4648,7.6445,7.7695,7.8633,7.9453,7.9687,7.9687,7.9687,7.9687,7.9336,0.0,7.5976,7.418,7.4101,0.0,7.3789,7.6367,7.8281,8.0703,8.4258,8.625,8.7695,8.8594,8.9453,8.9961,9.0,8.9961,8.9922,8.9883,8.9023,8.8125,8.7265,8.4648,8.1953,7.9297,7.414,0.0,0.0,0.0,0.0,0.0,0.0,0.0,0.0,0.0,0.0,0.0,0.0,0.0,0.0,0.0,0.0,0.0,0.0,0.0,0.0,0.0,0.0,0.0,0.0,0.0,0.0,0.0,0.0,6.4492,6.4609,0.0,6.3398,6.332,6.3789,6.4922,6.6367,6.8047,7.0,7.0976,7.2265,7.3984,7.4648,7.539,7.625,7.6836,7.7265,7.7578,7.8086,7.8515,7.8828,7.9375,7.9648,7.9687,8.0234,8.0469,8.039,7.9492,7.7617,7.5312,7.5,7.4726,7.4492,7.4765,7.543,7.6211,7.6523,7.7187,7.789,7.789,7.7305,7.664,7.6523,7.6367,7.6406,7.75,7.8633,7.9844,8.1015,8.1562,8.1992,8.2851,8.2617,8.2344,8.2929,8.3047,8.2969,8.2656,8.0508,7.8711,7.8711,7.8945,7.9414,8.0351,8.1953,8.3711,8.5508,8.7226,8.8594,8.9453,9.0312,9.1054,9.164,9.1679,9.1445,9.0859,9.0547,8.9726,8.832,8.6328,8.4297,8.2265,7.8242,7.4492,0.0,0.0,0.0,0.0,0.0,0.0,0.0,0.0,0.0,0.0,0.0,0.0,0.0,0.0,0.0,0.0,0.0,0.0,0.0,0.0,0.0,0.0,0.0,0.0,0.0,0.0,6.5625,6.6797,6.7187,6.7344,6.7305,6.7305,6.8047,6.9805,7.1015,7.2383,7.4101,7.4726,7.5586,7.6758,7.7344,7.789,7.8476,7.9336,7.9922,8.0234,8.0742,8.1172,8.1484,8.2031,8.2304,8.2344,8.2929,8.3164,8.3164,8.3164,8.1836,7.9726,7.914,7.8906,7.8906,7.8906,7.9297,7.9765,7.9765,8.0312,8.1015,8.1015,8.0859,8.0742,8.1289,8.1094,8.0898,8.1992,8.2734,8.332,8.3906,8.4023,8.4179,8.4765,8.4453,8.4219,8.4765,8.4883,8.5,8.5273,8.3711,8.2304,8.2304,8.2773,8.3281,8.3554,8.4609,8.5664,8.6523,8.7851,8.8906,8.9492,9.0586,9.1406,9.1719,9.1992,9.1797,9.0937,9.1133,9.0508,8.8789,8.7929,8.6523,8.4531,8.0547,7.664,7.2851,0.0,0.0,0.0,0.0,0.0,0.0,0.0,0.0,0.0,0.0,0.0,0.0,0.0,0.0,0.0,0.0,0.0,0.0,0.0,0.0,0.0,0.0,0.0,6.3008,6.5351,6.7617,6.9375,6.8867,6.9023,7.0664,7.0859,7.1562,7.3281,7.5,7.6015,7.6055,7.7656,7.8594,7.8672,8.0234,8.1094,8.1133,8.1992,8.2851,8.3672,8.3711,8.414,8.4961,8.5,8.5039,8.5039,8.5039,8.5078,8.5078,8.5078,8.5078,8.4883,8.3086,8.2383,8.2383,8.2422,8.2422,8.2422,8.2383,8.2929,8.3633,8.3633,8.4219,8.4922,8.4922,8.4922,8.4961,8.4961,8.4961,8.4961,8.4961,8.4961,8.4961,8.4961,8.4961,8.4961,8.4961,8.4961,8.5234,8.6094,8.5547,8.4961,8.4961,8.4961,8.5273,8.6094,8.625,0.0,8.7383,8.8203,8.8711,8.8711,9.0234,9.0937,9.0078,9.0781,9.0898,9.0039,9.082,9.0508,8.8789,8.9492,8.8711,8.6172,8.1133,7.6484,7.2265,0.0,0.0,0.0,0.0,0.0,0.0,0.0,0.0,0.0,0.0,0.0,0.0,0.0,0.0,0.0,0.0,0.0,0.0,0.0,0.0,0.0,0.0,6.6289,6.5898,6.75,6.9375,7.1094,7.164,7.2344,7.3437,7.4101,7.4922,7.6055,7.7148,7.832,7.9531,8.0039,8.0898,8.2148,8.2656,8.3203,8.3828,8.4687,8.5234,8.5508,8.6133,8.6562,8.6797,8.7383,8.7656,8.7695,8.832,8.8594,8.8594,8.8594,8.8594,8.8281,8.5351,8.4179,8.4258,8.4883,8.5117,8.5039,8.4414,8.4336,8.4531,8.4531,8.4687,8.5039,8.5664,8.5859,8.5976,8.6601,8.6797,8.6797,8.6797,8.6328,8.6015,8.664,8.6289,8.6015,8.664,8.6797,8.6875,8.7109,8.6953,8.6797,8.6797,8.6797,8.6875,8.7109,8.7148,0.0,8.7461,8.8203,8.8711,8.8711,8.9687,9.0273,9.0039,9.0234,9.0273,9.0039,9.082,9.0508,8.8789,8.8359,8.6953,8.4375,8.1679,7.9726,0.0,0.0,0.0,0.0,0.0,0.0,0.0,0.0,0.0,0.0,0.0,0.0,0.0,0.0,0.0,0.0,0.0,0.0,0.0,0.0,0.0,0.0,6.7773,6.9883,7.0078,7.0664,7.1406,7.2422,7.3633,7.4726,7.5586,7.6484,7.75,7.8711,7.9609,8.0664,8.2031,8.2422,8.3281,8.4648,8.5039,8.5625,8.6484,8.7344,8.7773,8.7812,8.832,8.8554,8.8554,8.9023,8.9258,8.9258,8.9765,9.0,9.0,9.0,9.0,0.0,0.0,0.0,0.0,0.0,8.7265,8.7148,8.6289,8.5976,8.5976,8.5976,8.5976,8.6094,8.6601,8.6758,8.6836,8.7344,8.75,8.75,8.75,8.7109,8.6875,8.7383,8.7109,8.6992,8.7812,8.8008,8.8125,8.8476,8.8554,0.0,8.8554,8.8242,8.8125,8.8476,8.8554,8.8554,8.8554,8.8945,8.9101,8.875,8.9492,8.9726,8.9023,8.9609,0.0,0.0,0.0,9.0664,8.9297,8.8125,0.0,0.0,0.0,0.0,0.0,0.0,0.0,0.0,7.0898,7.164,0.0,0.0,0.0,0.0,0.0,0.0,0.0,0.0,0.0,0.0,0.0,0.0,0.0,0.0,0.0,0.0,7.0703,7.2851,7.4531,7.418,7.375,7.375,7.5117,7.6406,7.7383,7.8359,7.9531,8.1015,8.2031,8.3008,8.3984,0.0,0.0,0.0,0.0,8.8125,8.8828,8.9726,9.0156,9.0156,9.0234,9.0273,9.0273,9.0273,9.0273,9.0273,9.0273,9.0273,9.0273,9.0273,9.0273,9.0273,9.0078,9.0078,9.0039,8.9179,8.8867,8.8711,8.7929,0.0,0.0,8.75,8.75,8.75,8.75,8.75,8.75,8.75,8.75,8.7539,8.7617,8.7656,8.7656,8.7773,8.7773,8.7969,8.8672,8.8867,8.9062,8.9844,9.0,9.0039,9.0117,8.9414,8.9101,8.9883,9.0,9.0,9.0,9.0,8.9687,8.8945,0.0,0.0,8.789,8.914,8.9687,8.8906,9.0312,9.082,9.0039,8.8476,8.7226,8.6367,8.4844,8.4023,8.4023,8.3242,8.289,8.2812,7.9453,7.8789,0.0,0.0,0.0,0.0,0.0,0.0,0.0,0.0,0.0,0.0,0.0,0.0,0.0,0.0,0.0,7.0937,7.2851,7.4453,7.5508,7.6094,7.6445,7.6445,7.6758,7.7539,7.9062,8.0625,8.1719,8.2031,8.3515,8.5078,8.664,8.6914,8.7695,8.9219,8.9414,8.9609,8.9765,9.0625,9.1054,9.1054,0.0,0.0,9.2109,9.2109,9.2109,9.2109,9.2109,9.2109,9.2109,9.2109,9.2109,9.1953,9.0547,9.0429,9.0937,9.0078,8.9765,8.9648,8.8789,8.8047,8.75,8.75,8.75,8.75,8.75,8.75,0.0,8.75,8.75,8.7656,8.8281,8.8476,8.8633,8.9336,8.9531,8.957,8.9726,8.9765,8.9804,8.9961,9.0,9.0234,9.0937,9.0312,8.9804,8.9961,9.0,9.0,9.0,9.0,8.9922,8.9765,8.9883,8.9883,8.9531,8.9804,8.9922,8.9765,9.0078,9.0195,9.0,8.9023,8.8086,8.7265,8.6914,8.6758,8.6758,8.6562,8.6484,8.6445,8.3633,8.289,0.0,0.0,0.0,0.0,0.0,0.0,0.0,0.0,0.0,0.0,0.0,6.6601,6.789,0.0,7.1797,7.3086,7.4765,7.6211,7.707,7.8281,7.8789,7.7969,7.8984,8.0078,8.0937,8.2578,8.3945,8.4844,8.5703,8.6953,8.8672,8.875,8.9336,9.0625,9.0664,9.0859,9.1289,9.1719,9.1953,9.1953,9.2383,9.2617,9.2617,9.2617,9.2617,9.2617,9.2617,9.2617,9.2617,9.2617,9.2617,9.25,9.164,9.1562,9.1836,9.0976,9.0664,9.0547,8.9648,8.9101,8.875,8.875,8.875,8.875,8.875,8.875,8.875,8.875,8.875,8.8828,8.9258,8.9336,8.9453,8.9883,9.0,9.0117,9.0547,9.0664,9.0781,9.1211,9.164,9.2109,9.2539,9.2617,9.2304,9.1445,9.1289,9.1289,9.1289,9.1289,9.1133,9.0703,9.0664,9.0469,9.0039,9.039,9.0859,9.1289,9.1289,9.1094,9.0664,9.0234,8.9609,8.8789,8.875,8.875,8.875,8.875,8.875,8.8711,8.7422,8.6601,0.0,0.0,0.0,0.0,0.0,0.0,0.0,6.5508,6.793,6.8125,7.0039,7.1797,7.2148,7.3359,7.4609,7.5469,7.6758,7.8047,7.9101,8.039,8.0937,8.0117,8.1523,8.2695,8.3008,8.4492,8.6054,8.7617,8.789,8.8633,9.0156,9.0234,9.0664,9.1523,9.1562,9.1875,9.2578,9.2617,9.2617,9.2617,9.2617,9.2617,9.2617,9.2617,9.2617,9.2617,9.2574,9.2569,9.257,9.2574,9.2576,9.2576,9.2576,9.2576,9.2498,9.1797,9.1445,9.1211,9.0508,9.0156,9.0,9.0,9.0,9.0,9.0,9.0,9.0,9.0,9.0,9.0039,9.0195,9.0234,9.0351,9.0664,9.0742,9.1015,9.1875,9.207,9.2265,9.2969,9.3672,9.414,9.414,9.4726,9.4726,9.332,9.3125,9.3125,9.3125,9.3125,9.2851,9.2148,9.207,9.1758,9.1054,9.164,9.2344,9.3047,9.2969,9.2539,9.1836,9.164,9.1133,9.0273,9.0234,9.0156,9.0,9.0,9.0,9.0,9.0,8.9297,6.1015,6.1484,6.2422,6.414,6.5469,6.6523,0.0,6.9531,7.164,7.2422,7.4023,7.5781,7.7344,7.7773,7.8164,7.8984,7.9297,8.0,8.164,8.2031,8.2969,8.5078,8.4219,8.4062,8.5625,8.664,8.7578,8.8515,8.9297,9.0156,9.1094,9.1133,9.1562,9.2422,9.2461,9.25,9.2617,9.2617,9.2617,9.2617,9.2617,9.2617,9.2617,9.2617,9.2617,9.2617,9.2527,9.2515,9.2525,9.2506,9.2495,9.2495,9.2495,9.2495,9.2502,9.2458,9.1953,9.1289,9.1172,9.0664,9.0,9.0,9.0,9.0,9.0,9.0,9.0,9.0,9.0,9.0195,9.0937,9.1133,9.1523,9.3086,9.3476,9.3711,9.457,9.4765,9.4804,9.4883,9.5,9.5039,9.5039,9.5156,9.5117,9.4922,9.4922,9.4922,9.4922,9.4922,9.4883,9.4765,9.4765,9.4726,9.4648,9.4726,9.4804,9.4883,9.4179,9.3711,9.3594,9.2851,9.2031,9.1172,9.1133,9.0781,9.0,9.0,9.0,9.0,9.0,8.9883,6.3984,6.4961,6.6445,6.8125,7.0,7.1601,7.2461,7.4297,7.5898,7.625,7.7695,7.9101,7.9805,8.0351,8.082,8.1172,8.164,8.2226,8.2969,8.4375,8.5742,8.6836,8.7187,8.7422,8.7617,8.8437,8.9297,9.0156,9.0547,9.1133,9.1992,9.207,9.2226,9.2578,9.2617,9.2617,9.2617,9.2617,9.2617,9.2617,9.2617,9.2617,9.2617,9.2578,9.2516,9.2478,9.2464,9.2427,9.2363,9.2393,9.238,9.238,9.238,9.238,9.2401,9.2493,9.2325,9.2014,9.1985,9.1753,9.1441,9.1484,9.1875,9.2265,9.2265,9.2617,9.3047,9.3047,9.3047,9.3125,9.3476,9.3554,9.375,9.4492,9.4648,9.4765,9.5117,9.5195,9.5195,9.5195,9.5625,9.5976,9.5976,9.6328,9.664,9.664,9.582,9.5195,9.5195,9.5195,9.5195,9.5195,9.5195,9.5195,9.5195,9.5195,9.5195,9.5195,9.4844,9.4648,9.4648,9.4297,9.3945,9.3594,9.3554,9.3398,9.3047,9.3047,9.3047,9.3047,9.3047,9.3047,6.6836,6.8281,7.0078,7.1992,7.4101,7.5898,7.6758,7.8125,7.918,7.918,8.0547,8.1719,8.1719,8.2422,8.3008,8.3008,8.3554,8.414,8.4609,8.6328,8.7773,8.8476,8.9609,9.0195,8.9804,9.0117,9.0703,9.1601,9.164,9.1914,9.2578,9.2617,9.2617,9.2617,9.2617,9.2578,9.2578,9.2812,9.2929,9.2929,9.3162,9.3277,9.3277,9.3152,9.3103,9.3051,9.3016,9.2962,9.29,9.2872,9.2837,9.2837,9.2837,9.2837,9.2865,9.2942,9.2749,9.2471,9.2738,9.2801,9.2898,9.3189,9.3703,9.4214,9.4217,9.4686,9.5194,9.5195,9.5195,9.5195,9.5195,9.5195,9.5273,9.5508,9.5547,9.5625,9.5859,9.5898,9.5898,9.5898,9.6406,9.6836,9.6836,9.7304,9.7695,9.7695,9.6679,9.5898,9.5898,9.5898,9.5898,9.5898,9.5897,9.5894,9.5894,9.5894,9.5894,9.5894,9.5662,9.5546,9.5546,9.5312,9.5195,9.5195,9.5195,9.5195,9.5195,9.5195,9.5195,9.5195,9.5195,9.5195,6.9883,7.1836,7.3789,7.6367,7.7695,7.8594,7.9414,8.0273,8.0937,8.0937,8.2304,8.3515,8.3515,8.4219,8.4804,8.4804,8.4844,8.5469,8.7148,8.7461,8.8437,9.0898,9.1211,9.1562,0.0,9.1758,9.1601,9.25,9.2578,9.2578,9.2617,9.2617,9.2617,9.2617,9.2617,9.2578,9.25,9.3359,9.375,9.3789,9.4625,9.4988,9.4908,9.4773,9.4736,9.4711,9.4501,9.4449,9.4418,9.4271,9.4251,9.4251,9.4251,9.4251,9.4251,9.4225,9.3416,9.2431,9.3285,9.3628,9.3818,9.4641,9.4987,9.5067,9.5057,9.5064,9.5106,9.5195,9.5195,9.5195,9.5195,9.5195,9.539,9.625,9.6445,9.6679,9.7461,9.7617,9.7617,9.7617,9.7656,9.7656,9.7656,9.7695,9.7695,9.7695,9.7656,9.7617,9.7617,9.7617,9.7617,9.7617,9.7636,9.76,9.76,9.76,9.76,9.76,9.6848,9.6353,9.6353,9.5623,9.5195,9.5195,9.5195,9.5195,9.5195,9.5195,9.5195,9.5195,9.5195,9.5195,7.1719,7.3711,7.5625,7.8203,7.9492,8.039,8.1211,8.2109,8.2578,8.1992,8.3242,8.4297,8.3711,8.4765,8.5742,8.5742,8.6719,8.7617,8.8203,8.9297,9.0351,9.1211,9.1797,9.2265,9.2578,0.0,0.0,9.2578,9.2617,9.2617,9.2617,9.2617,9.2578,9.2539,9.2529,9.2788,9.3296,9.3525,9.396,9.454,9.4777,9.4824,9.4674,9.4608,9.4549,9.4407,9.4336,9.4319,9.431,9.425,9.4218,9.4218,9.4218,9.4218,9.4218,9.4218,9.3931,9.3611,9.4043,9.4219,9.4297,9.4726,9.5283,9.5766,9.5822,9.6268,9.6758,9.6773,9.6808,9.6868,9.6868,9.6873,9.6914,9.7226,9.7304,9.7383,9.7656,9.7695,9.7695,9.7695,9.7695,9.7695,9.7695,9.7695,9.789,9.8476,9.8086,9.7695,9.7695,9.7695,9.7695,9.7695,9.7713,9.7714,9.7714,9.7688,9.7692,9.769,9.7431,9.7276,9.7262,9.7,9.6856,9.6868,9.6868,9.6868,9.6868,9.6874,9.6875,9.6875,9.6875,9.6875,7.3515,7.5703,7.7734,7.9687,8.1054,8.207,8.2656,8.3203,8.3437,8.289,8.3398,8.3906,8.3633,8.4765,8.5937,8.6562,8.7812,8.8906,8.9531,9.0586,9.1406,9.1719,9.2265,9.2617,9.2617,0.0,0.0,9.2617,9.2617,9.2578,9.2578,9.2575,9.2688,9.2883,9.2873,9.3238,9.3979,9.4267,9.4789,9.5601,9.5568,9.5455,9.5331,9.5268,9.5173,9.5045,9.5005,9.4987,9.4982,9.4948,9.4937,9.4937,9.4937,9.4937,9.4937,9.4937,9.4937,9.4943,9.4897,9.4852,9.4943,9.5384,9.5953,9.6435,9.6544,9.7027,9.7515,9.7543,9.7611,9.7777,9.8095,9.8148,9.8159,9.8164,9.8164,9.8086,9.7773,9.7929,9.8164,9.8164,9.8437,9.8633,9.8633,9.8633,9.8828,9.9375,9.8984,9.8633,9.8633,9.8633,9.8633,9.8633,9.8345,9.8158,9.8145,9.7868,9.7662,9.7658,9.7657,9.7657,9.7651,9.7706,9.7687,9.7707,9.7707,9.7707,9.7707,9.7682,9.7692,9.7695,9.7695,9.7695,7.543,7.7969,8.0039,8.0976,8.2422,8.3632,8.3593,8.3633,8.3633,8.3476,8.2812,8.2461,8.3242,8.414,8.5351,8.707,8.8164,8.9375,9.1054,9.1328,9.1679,9.25,0.0,0.0,0.0,0.0,0.0,9.2617,0.0,9.2578,9.25,9.2513,9.2866,9.3566,9.3576,9.3853,9.4524,9.5419,9.6181,9.6886,9.6821,9.6799,9.6788,9.6651,9.66,9.6562,9.6442,9.6379,9.6385,9.6363,9.6362,9.6362,9.6401,9.6439,9.6439,9.6439,9.6439,9.6375,9.5866,9.5602,9.5685,9.6582,9.6921,9.7046,9.7225,9.7345,9.7402,9.7456,9.7592,9.7906,9.8755,9.9,9.9021,9.906,9.9062,9.8828,9.8008,9.8476,9.9062,9.9062,9.9726,10.0312,10.0312,10.0312,10.039,10.039,10.039,10.039,10.0312,10.0312,10.0312,10.0312,9.9565,9.9079,9.9086,9.8222,9.7682,9.768,9.7637,9.7598,9.7602,9.7652,9.7714,9.7714,9.7714,9.7714,9.7714,9.7714,9.7708,9.7695,9.7695,9.7695,7.8828,8.0625,8.1913,8.3457,8.4152,8.4346,8.3758,8.4094,8.4023,8.207,8.1484,8.1211,8.0781,8.1953,8.3515,8.5273,8.7851,9.0039,9.1133,9.1875,9.2344,9.2578,0.0,9.2617,9.2617,9.2617,0.0,0.0,9.2539,9.2497,9.2432,9.2979,9.3336,9.337,9.3909,9.4508,9.5224,9.6041,9.6535,9.6691,9.6675,9.6593,9.6509,9.6452,9.6403,9.6362,9.6324,9.634,9.6361,9.6951,9.7209,9.7247,9.7904,9.8175,9.8175,9.8175,9.8175,9.8151,9.8017,9.7187,9.6225,9.6663,9.6856,9.6873,9.7079,9.7218,9.7241,9.7349,9.7455,9.774,9.8635,9.8924,9.917,9.9791,9.9959,9.9922,9.9687,9.9804,9.9961,9.9961,10.0117,10.0312,10.0312,10.0781,10.1289,10.1289,10.1785,10.1816,10.0507,10.0312,10.0312,10.0312,10.0117,9.9953,9.9987,9.9151,9.8621,9.8621,9.8025,9.7676,9.766,9.7697,9.7714,9.7714,9.7714,9.7714,9.7714,9.7714,9.7698,9.7687,9.7694,9.7695,8.081,8.2125,8.3112,8.4474,8.4804,8.4673,8.4279,8.3971,8.3242,8.1367,8.0117,7.9297,7.918,8.0273,8.2109,8.5,8.7695,9.0,9.164,9.2304,9.2617,9.2617,9.2617,9.2578,9.2578,9.2574,9.2528,0.0,9.245,9.2431,9.2349,9.3038,9.3515,9.373,9.4464,9.5178,9.5889,9.6315,9.6521,9.6482,9.6482,9.6442,9.6362,9.6362,9.6512,9.6846,0.0,9.7045,9.7442,9.7865,9.8057,9.8134,9.8598,9.8793,9.8793,9.8793,9.8793,9.8793,9.8793,9.8213,9.7493,9.7724,9.7795,9.785,9.8113,9.8233,9.8264,9.8388,9.8507,9.8804,9.9662,9.9953,10.0181,10.0717,10.0815,10.0781,10.039,10.0586,10.1015,10.1406,10.1406,10.1406,10.1406,10.1793,10.2214,10.2214,10.2581,10.2518,10.1512,10.1381,10.1394,10.1394,10.1109,10.0811,10.0803,10.0013,9.949,9.9496,9.9028,9.8756,9.8767,9.8761,9.8815,9.8815,9.8787,9.8597,9.8245,9.8256,9.8085,9.7681,9.7694,9.7695,8.2044,8.3112,8.3997,8.4898,8.5033,8.4904,8.4749,8.3385,8.1836,8.0703,7.8555,7.7109,7.8008,7.8906,8.0937,8.5156,8.7461,8.957,9.207,9.2539,9.2617,9.2617,9.2578,9.2578,9.2499,9.2587,9.258,9.2451,9.2594,9.2588,9.2403,9.3007,9.3732,9.4559,9.5193,9.5808,9.6365,9.6324,9.6285,9.6285,9.6285,9.6362,9.6444,9.6444,9.6892,9.768,9.7671,9.8111,9.8793,9.8908,9.8985,9.8985,9.9098,9.9137,9.9137,9.9137,9.9137,9.9137,9.9137,9.9137,9.9129,9.9078,9.9058,9.9122,9.9438,9.9565,9.9557,9.9682,9.9835,10.0081,10.0986,10.1311,10.141,10.1598,10.1706,10.1483,10.0781,10.1211,10.1992,10.2811,10.2889,10.289,10.289,10.2908,10.2902,10.289,10.2806,10.2689,10.2714,10.2704,10.2807,10.28,10.2116,10.1601,10.1601,10.0812,10.0298,10.0298,10.0181,10.0105,10.0108,10.0097,10.0192,10.0198,10.0187,9.981,9.9071,9.9106,9.8748,9.8031,9.8045,9.8047,8.3587,8.4695,8.5603,8.6465,8.6245,8.5413,8.4049,8.2449,8.0586,7.832,7.6367,7.5312,7.6172,7.7656,7.9883,8.3476,8.6679,8.9375,9.125,9.2148,9.2617,9.2617,9.2539,9.2497,9.2428,9.3009,9.3317,0.0,9.3702,9.3737,9.2981,9.3671,9.4694,9.6005,9.6123,9.6204,9.6324,9.6324,9.6285,9.6285,9.6285,9.6641,9.7275,9.7275,9.7764,9.855,9.8582,0.0,9.887,9.9565,9.9873,9.995,10.0594,10.0902,10.0902,10.0902,10.0902,10.0902,10.0902,10.0902,10.069,9.9342,9.8916,9.8997,9.9208,9.9278,9.9309,9.9368,9.9462,9.9779,10.0703,10.1117,10.1407,10.2189,10.2512,10.2503,10.2407,10.2497,10.2693,10.2897,10.2886,10.2895,10.2916,10.2895,10.2801,10.2698,10.2682,10.2582,10.2493,10.2605,10.2694,10.2582,10.2515,10.2385,10.2385,10.1599,10.1089,10.1089,10.0383,10.0006,9.9998,10.0006,9.9994,10.0003,10.0011,9.9991,9.9904,9.9909,9.9875,9.9781,9.9802,9.9844,8.4521,8.5682,8.6642,8.7493,8.7127,8.614,8.4511,8.2121,7.9562,7.6992,7.5117,7.4062,7.4453,7.5976,7.8398,8.2304,8.5429,8.832,9.0937,9.2031,9.2578,9.2539,9.2495,9.2583,9.2928,9.3222,9.3498,9.3783,9.4073,9.4047,9.3633,9.4322,9.5208,9.6292,9.6324,9.6285,9.6285,9.6285,9.6285,9.6324,9.672,9.7117,9.7513,9.7971,9.8649,9.9498,9.9469,9.9711,10.0094,10.0599,10.0712,10.0789,10.1092,10.1281,10.1281,10.1281,10.1281,10.1281,10.1281,10.1281,10.1214,10.0416,10.0198,10.0317,10.0504,10.0518,10.0498,10.0585,10.0587,10.0817,10.1285,10.1489,10.1812,10.2288,10.248,10.2691,10.2705,10.2815,10.2788,10.2796,10.2808,10.2789,10.2788,10.2803,10.2706,10.2607,10.251,10.2412,10.2313,10.2311,10.2296,10.2411,10.2318,10.2281,10.2281,10.1888,10.1692,10.1692,10.1299,10.0994,10.1019,10.1019,10.1,10.0998,10.1097,10.0903,10.0498,10.0614,10.0512,10.0094,10.0206,10.0305,8.5261,8.6408,8.7342,8.8255,8.7757,8.656,8.4756,8.1711,7.8584,7.6049,7.4179,7.3086,7.3281,7.4726,7.7187,8.1094,8.4061,8.7029,9.0271,9.1638,9.2341,9.2458,9.2581,9.2846,9.3372,9.3609,9.3936,9.4455,9.4555,9.4503,9.4335,9.4979,9.5649,9.6283,9.6482,9.6562,9.6562,9.672,9.684,9.684,9.7475,9.7898,9.8071,9.8781,9.9536,10.0408,10.0408,10.0687,10.1281,10.1281,10.1281,10.1281,10.1281,10.1281,10.1281,10.1281,10.1281,10.1281,10.1281,10.1281,10.1281,10.1281,10.1416,10.1513,10.1589,10.1594,10.1609,10.1683,10.1714,10.1706,10.1814,10.1912,10.2017,10.2207,10.2388,10.2519,10.2608,10.2688,10.2715,10.2699,10.2696,10.2719,10.2582,10.2602,10.2595,10.2383,10.2291,10.2182,10.2005,10.1894,10.1905,10.2007,10.2004,10.2001,10.2001,10.2001,10.2001,10.2001,10.2001,10.2001,10.2001,10.2001,10.2001,10.2001,10.2116,10.1784,10.1093,10.1304,10.1101,10.0499,10.0596,10.0814,8.5866,8.6961,8.7846,8.8806,8.7925,8.6187,8.3773,8.0692,7.7637,7.5148,7.3273,7.2344,7.3164,7.4687,7.6719,7.9492,8.2758,8.5851,8.8468,9.0266,9.1594,9.2337,9.2998,9.3367,9.3258,9.4549,9.5314,9.5141,9.5711,9.5788,9.5039,9.5754,9.6204,9.6285,9.6999,9.7395,9.7395,9.8186,9.8582,9.8582,9.8662,9.9088,9.9868,9.9937,10.0408,10.1202,10.1202,10.1202,0.0,10.1281,10.1281,10.1281,10.1281,10.1281,10.1281,10.1281,10.1281,10.1281,10.1281,10.1281,10.1281,10.1281,10.1289,10.1299,10.1318,10.1287,10.1289,10.1299,10.1408,10.1518,10.1489,10.1596,10.1812,10.1987,10.2201,10.2286,10.25,10.2499,10.2513,10.2516,10.2484,10.2484,10.2389,10.2392,10.2281,10.2197,10.1989,10.1881,10.1795,10.1611,10.15,10.1607,10.1706,10.1798,10.1798,10.1798,10.1798,10.1798,10.1798,10.1798,10.1798,10.1798,10.1798,10.1798,10.1812,10.1816,10.181,10.1893,10.1995,10.2119,10.2307,10.2403,8.5703,8.7359,8.8565,8.8949,8.8222,8.6631,8.3646,8.0365,7.727,7.4869,7.2998,7.1937,7.2328,7.3813,7.5797,7.8339,8.1657,8.4751,8.7283,8.9543,9.1063,9.1415,9.2109,9.2887,9.379,9.4323,9.4987,9.5781,9.6125,9.6165,9.5848,9.6125,9.6521,9.6999,9.7316,9.7761,9.8291,9.8647,9.8805,9.8808,9.9322,9.9774,10.0091,10.0608,10.1005,10.1281,10.1281,10.1281,0.0,10.1281,10.1281,10.1281,10.1281,10.1281,10.1281,10.1281,10.1281,10.1281,10.1281,10.1281,10.1281,10.1281,10.1281,10.1281,10.1281,10.1281,10.1281,10.1281,10.1311,10.1385,10.1385,10.1491,10.1581,10.1792,10.1907,10.2009,10.2082,10.2182,10.2187,10.2198,10.2184,10.2217,10.2116,10.2089,10.1982,10.1911,10.1788,10.1703,10.161,10.1513,10.1385,10.1385,10.1493,10.1484,10.1484,10.1484,10.1484,10.1484,10.1484,10.1484,10.1484,10.1484,10.1484,10.1484,10.1583,10.159,10.1708,10.1804,10.189,10.2118,10.219,10.2381,8.5385,8.6964,8.7914,8.839,8.754,8.5795,8.273,7.9626,7.6687,7.4298,7.2669,7.1726,7.2078,7.3329,7.5141,7.7623,8.0722,8.3685,8.6166,8.8735,9.0407,9.0668,9.1791,9.3026,9.4105,9.4484,9.5133,9.6204,9.6285,9.6285,9.6285,9.6523,9.6917,9.7475,9.7999,9.8541,9.9178,9.9418,9.9536,9.9536,10.0211,10.0488,10.0488,10.1005,10.1281,10.1281,10.1281,10.1281,0.0,10.1281,10.1281,10.1281,10.1281,10.1281,10.1281,10.1281,10.1281,10.1281,10.1281,10.1281,10.1281,10.1281,10.1281,10.1281,10.1281,10.1281,10.1281,10.1281,10.1281,10.1281,10.1281,10.1416,10.1513,10.1603,10.169,10.1691,10.1802,10.1909,10.1909,10.1909,10.1909,10.1885,10.1802,10.1789,10.1817,10.1704,10.1585,10.1507,10.1485,10.1407,10.1281,10.1281,10.1281,10.1281,10.1281,10.1281,10.1281,10.1281,10.1281,10.1281,10.1281,10.1281,10.1281,10.1281,10.1395,10.1392,10.1394,10.1602,10.1683,10.1792,10.1913,10.2082,8.4968,8.5536,8.5329,8.6999,8.5572,8.3101,8.0596,7.8082,7.5635,7.3219,7.2064,7.1802,7.2705,7.3569,7.4929,7.7478,8.0006,8.2509,8.5046,8.76,8.9509,9.0311,9.2628,9.4123,9.4022,9.5394,9.6283,9.6285,9.6285,0.0,9.6285,9.7037,9.7475,9.7513,9.9156,10.0094,10.0091,10.0885,10.1281,10.1281,10.1281,10.1281,10.1281,10.1281,10.1281,10.1281,10.1281,10.1281,0.0,10.1281,10.1281,10.1281,10.1281,10.1281,10.1281,10.1281,10.1281,10.1281,10.1281,10.1281,10.1281,10.1281,10.1281,10.1281,10.1281,10.1281,10.1281,10.1281,10.1281,10.1281,10.1281,10.1281,10.1311,10.1495,10.1518,10.1496,10.1686,10.1685,10.1687,10.1687,10.1687,10.1699,10.1605,10.1589,10.1595,10.1495,10.1518,10.1481,10.1299,10.1281,10.1281,10.1281,10.1281,10.1281,10.1281,10.1281,10.1281,10.1281,10.1281,10.1281,10.1281,10.1281,10.1281,10.1281,10.1284,10.1284,10.1284,10.1389,10.1491,10.1594,10.1698,10.1911,8.1686,8.2907,8.3237,8.3789,8.2921,8.1267,7.8798,7.7153,7.5633,7.376,7.3174,7.3094,7.3448,7.4714,7.6086,7.7392,8.0256,8.2954,8.4919,8.7401,8.9306,9.0163,9.2468,9.4163,9.464,9.5668,9.6285,9.6285,9.6285,9.6523,9.7078,9.7948,9.8391,9.8399,9.9514,10.0408,10.0885,10.1202,10.1281,10.1281,10.1281,10.1281,10.1281,10.1281,10.1281,10.1281,10.1281,10.1281,10.1281,10.1281,10.1281,10.1281,10.1281,10.1281,10.1281,10.1281,10.1281,10.1281,10.1281,10.1281,10.1281,10.1281,10.1281,10.1281,10.1281,10.1281,10.1281,10.1281,10.1281,10.1281,10.1281,10.1281,10.1291,10.1402,10.1409,10.139,10.1415,10.1388,10.1388,10.1388,10.1388,10.1418,10.1387,10.1382,10.1409,10.1414,10.1409,10.1282,10.1286,10.1281,10.1281,10.1281,10.1281,10.1281,10.1281,10.1281,10.1281,10.1281,10.1281,10.1281,10.1281,10.1281,10.1281,10.1281,10.1281,10.1281,10.1281,10.1315,10.1387,10.1489,10.1718,10.1784,7.8942,8.0271,8.0475,8.0779,7.9763,7.8275,7.6714,7.574,7.4852,7.3861,7.3676,7.379,7.4147,7.5335,7.6739,7.8175,8.0977,8.3554,8.5233,8.7959,9.033,9.1847,9.3373,9.4617,9.5412,9.5966,9.6285,9.6285,9.6285,9.6641,9.7472,9.8348,9.8933,9.9298,10.0091,10.0805,10.1281,10.1281,10.1281,10.1281,10.1281,10.1281,10.1281,10.1281,10.1281,10.1281,10.1281,10.1281,0.0,10.1281,10.1281,10.1281,10.1281,10.1281,10.1281,10.1281,10.1281,10.1281,10.1281,10.1281,10.1281,10.1281,10.1281,10.1281,10.1281,10.1281,10.1281,10.1281,10.1281,10.1281,10.1281,10.1281,10.1281,10.1281,10.1281,10.1281,10.1281,10.1281,10.1281,10.1281,10.1281,10.1281,10.1281,10.1281,10.1281,10.1281,10.1281,10.1281,10.1281,10.1281,10.1281,10.1281,10.1281,10.1281,10.1281,10.1281,10.1281,10.1281,10.1281,10.1281,10.1281,10.1281,10.1281,10.1281,10.1281,10.1281,10.1281,10.1281,10.1315,10.1382,10.1507,10.1583,0.0,7.7645,7.7325,7.8126,7.6542,7.4795,7.4716,7.4153,0.0,7.3695,7.3715,7.4032,7.4905,7.5738,7.709,7.9563,8.2076,8.4297,8.5974,8.9122,9.2228,9.4685,9.4996,9.5332,9.6204,9.6285,9.6285,9.6285,9.6285,9.6679,9.7554,9.8366,9.9218,10.0211,10.0885,10.1281,10.1281,10.1281,10.1281,10.1281,10.1281,10.1281,10.1281,10.1281,10.1281,0.0,10.1281,10.1281,0.0,10.1281,10.1281,10.1281,10.1281,10.1281,10.1281,10.1281,10.1281,10.1281,10.1281,10.1281,10.1281,10.1281,10.1281,10.1281,10.1281,10.1281,10.1281,10.1281,10.1281,10.1281,10.1281,10.1281,10.1281,10.1281,10.1281,10.1281,10.1281,10.1281,10.1281,10.1281,10.1281,10.1281,10.1281,10.1281,10.1281,10.1281,10.1281,10.1281,10.1281,10.1281,10.1281,10.1281,10.1281,10.1281,10.1281,10.1281,10.1281,10.1281,10.1281,10.1281,10.1281,10.1281,10.1281,10.1281,10.1281,10.1281,10.1281,10.1281,10.1281,10.1281,10.1281,10.1414,7.3764,0.0,7.5518,7.6351,7.6134,7.5539,0.0,7.5061,7.5212,7.4592,7.4984,7.5698,7.6572,7.7403,7.8558,8.0514,8.2927,8.5178,8.6855,9.004,9.2909,9.4774,9.4991,9.5332,9.6204,9.6285,9.6285,9.6285,9.6285,9.6958,9.8426,9.8683,9.9495,10.1005,10.1202,10.1281,10.1281,10.1281,10.1281,10.1281,10.1281,10.1281,10.1281,10.1281,10.1281,10.1281,10.1281,10.1281,10.1281,10.1281,10.1281,10.1281,10.1281,10.1281,10.1281,10.1281,10.1281,10.1281,10.1281,10.1281,10.1281,10.1281,10.1281,10.1281,10.1281,10.1281,10.1281,10.1281,10.1281,10.1281,10.1281,10.1281,10.1281,10.1281,10.1281,10.1281,10.1281,10.1281,10.1281,10.1281,10.1281,10.1281,10.1281,10.1281,10.1281,10.1281,10.1281,10.1281,10.1281,10.1281,10.1281,10.1281,10.1281,10.1281,10.1281,10.1281,10.1281,10.1281,10.1281,10.1281,10.1281,10.1281,10.1281,10.1281,10.1281,10.1281,10.1281,10.1281,10.1281,10.1281,10.1281,10.1296,7.2683,7.3834,7.4363,7.5175,7.5148,7.4832,7.4713,7.5064,7.5381,7.5302,7.5976,7.6848,7.7682,7.887,8.0365,8.249,8.4652,8.7045,8.9874,9.2224,9.4142,9.545,9.5608,9.5769,0.0,9.6641,9.684,9.684,9.7234,9.803,9.9337,9.9397,9.9973,10.1281,10.1281,10.1281,10.1281,10.1281,10.1281,10.1281,10.1281,10.1281,10.1281,10.1281,10.1281,10.1281,10.1281,10.1281,10.1281,10.1281,10.1281,10.1281,10.1281,10.1281,10.1281,10.1281,10.1281,10.1281,10.1281,10.1281,10.1281,10.1281,10.1281,10.1281,10.1281,10.1281,10.1281,10.1281,10.1281,10.1281,10.1281,10.1281,10.1281,10.1281,10.1281,10.1281,10.1281,10.1281,10.1281,10.1281,10.1281,10.1281,10.1281,10.1281,10.1281,10.1281,10.1281,10.1281,10.1281,10.1281,10.1281,10.1281,10.1281,10.1281,10.1281,10.1281,10.1281,10.1281,10.1281,10.1281,10.1281,10.1281,10.1281,10.1281,10.1281,10.1281,10.1281,10.1281,10.1281,10.1281,10.1281,10.1281,7.2564,7.3596,7.3913,7.4865,7.4667,7.4429,7.5103,7.5262,7.55,7.6214,7.6967,7.7755,7.8731,8.0189,8.2137,8.4675,8.6692,8.9361,9.3341,9.4516,9.5332,9.6204,9.6285,0.0,9.6285,9.7037,9.7506,9.7492,9.8321,9.9194,10.0105,10.0101,10.0488,10.1281,10.1281,10.1281,10.1281,10.1281,10.1281,10.1281,10.1281,10.1281,10.1281,10.1281,10.1281,10.1281,0.0,0.0,10.1281,10.1281,10.1281,10.1281,10.1281,10.1281,10.1281,10.1281,10.1281,10.1281,10.1281,10.1281,10.1281,10.1281,10.1281,10.1281,10.1281,10.1281,10.1281,10.1281,10.1281,10.1281,10.1281,10.1281,10.1281,10.1281,10.1281,10.1281,10.1281,10.1281,10.1281,10.1281,10.1281,10.1281,10.1281,10.1281,10.1281,10.1281,10.1281,10.1281,10.1281,10.1281,10.1281,10.1281,10.1281,10.1281,10.1281,10.1281,10.1281,10.1281,10.1281,10.1281,10.1281,10.1281,10.1281,10.1281,10.1281,10.1281,10.1281,10.1281,10.1281,10.1281,10.1281,10.1281,7.2564,7.3994,7.4905,7.6491,7.7323,7.7759,7.788,7.7919,7.7957,7.8078,7.8236,7.8802,8.0419,8.1464,8.2941,8.548,8.8564,9.1592,9.4419,9.4907,9.5332,9.6204,0.0,9.6285,9.6285,9.7037,9.7516,9.7505,9.8291,9.9166,10.0115,10.0101,10.0488,10.1281,10.1281,10.1281,10.1281,10.1281,10.1281,10.1281,10.1281,10.1281,10.1281,10.1281,10.1281,10.1281,0.0,10.1281,10.1281,10.1281,10.1281,10.1281,10.1281,10.1281,10.1281,10.1281,10.1281,10.1281,10.1281,10.1281,10.1281,10.1281,10.1281,10.1281,10.1281,10.1281,10.1281,10.1281,10.1281,10.1281,10.1281,10.1281,10.1281,10.1281,10.1281,10.1281,10.1281,10.1281,10.1281,10.1281,10.1281,10.1281,10.1281,10.1281,10.1281,10.1281,10.1281,10.1281,10.1281,10.1281,10.1281,10.1281,10.1281,10.1281,10.1281,10.1281,10.1281,10.1281,10.1281,10.1281,10.1281,10.1281,10.1281,10.1281,10.1281,10.1281,10.1281,10.1281,10.1281,10.1281,10.1281,10.1281,7.2802,7.4786,7.6517,7.8206,7.8942,7.934,7.9815,7.9896,7.9896,7.9896,8.0252,8.1071,8.2846,8.3822,8.5356,8.8355,9.131,9.3643,9.4823,9.5412,9.5848,0.0,0.0,9.6482,9.6917,9.7712,9.8382,9.887,9.9694,10.0291,10.0687,10.0687,10.0885,10.1281,10.1281,10.1281,10.1281,10.1281,10.1281,10.1281,10.1281,10.1281,10.1281,10.1281,10.1281,10.1281,0.0,10.1281,10.1281,10.1281,10.1281,10.1281,10.1281,10.1281,10.1281,10.1281,10.1281,10.1281,10.1281,10.1281,10.1281,10.1281,10.1281,10.1281,10.1281,10.1281,10.1281,10.1281,10.1281,10.1281,10.1281,10.1281,10.1281,10.1281,10.1281,10.1281,10.1281,10.1281,10.1281,10.1281,10.1281,10.1281,10.1281,10.1281,10.1281,10.1281,10.1281,10.1281,10.1281,10.1281,10.1281,10.1281,10.1281,10.1281,10.1281,10.1281,10.1281,10.1281,10.1281,10.1281,10.1281,10.1281,10.1281,10.1281,10.1281,10.1281,10.1281,10.1281,10.1281,10.1281,10.1281,10.1281,7.3248,7.5483,7.7737,7.9612,8.0398,8.0936,8.1808,0.0,8.2285,8.2285,8.2761,8.3673,8.5218,8.6481,8.8357,9.1584,9.3719,9.5054,9.5292,9.5887,9.6285,9.6285,9.6285,9.6603,9.7434,9.8285,9.9149,10.0017,10.0805,10.1281,10.1281,10.1281,10.1281,10.1281,10.1281,10.1281,10.1281,10.1281,10.1281,10.1281,10.1281,10.1281,10.1281,10.1281,10.1281,10.1281,10.1281,10.1281,10.1281,10.1281,10.1281,10.1281,10.1281,10.1281,10.1281,10.1281,10.1281,10.1281,10.1281,10.1281,10.1281,10.1281,10.1281,10.1281,10.1281,10.1281,10.1281,10.1281,10.1281,10.1281,10.1281,10.1281,10.1281,10.1281,10.1281,10.1281,10.1281,10.1281,10.1281,10.1281,10.1281,10.1281,10.1281,10.1281,10.1281,10.1281,10.1281,10.1281,10.1281,10.1281,10.1281,10.1281,10.1281,10.1281,10.1281,10.1281,10.1281,10.1281,10.1281,10.1281,10.1281,10.1281,10.1281,10.1281,10.1281,10.1281,10.1281,10.1281,10.1281,10.1281,10.1281,10.1281,7.3951,7.5941,7.7895,8.0404,8.2168,8.356,8.4435,8.5188,8.5743,8.5743,8.5784,8.6102,8.7052,8.9188,9.1699,9.4289,9.4862,9.5292,9.6086,0.0,9.6285,9.6285,9.6285,9.6603,9.7434,9.8296,9.9149,10.0012,10.0805,10.1281,10.1281,10.1281,10.1281,10.1281,10.1281,10.1281,10.1281,10.1281,10.1281,10.1281,10.1281,10.1281,10.1281,10.1281,10.1281,10.1281,10.1281,10.1281,10.1281,10.1281,10.1281,10.1281,10.1281,10.1281,10.1281,10.1281,10.1281,10.1281,10.1281,10.1281,10.1281,10.1281,10.1281,10.1281,10.1281,10.1281,10.1281,10.1281,10.1281,10.1281,10.1281,10.1281,10.1281,10.1281,10.1281,10.1281,10.1281,10.1281,10.1281,10.1281,10.1281,10.1281,10.1281,10.1281,10.1281,10.1281,10.1281,10.1281,10.1281,10.1281,10.1281,10.1281,10.1281,10.1281,10.1281,10.1281,10.1281,10.1281,10.1281,10.1281,10.1281,10.1281,10.1281,10.1281,10.1281,10.1281,10.1281,10.1281,10.1281,10.1281,10.1281,10.1281,7.5907,7.7957,7.9996,8.1476,8.3512,8.5398,8.6244,8.6703,8.7062,8.7618,8.7735,0.0,0.0,9.1419,9.3237,9.4744,9.545,9.5928,9.6245,9.6285,9.6285,9.6285,9.672,9.7393,9.8227,9.9084,9.9932,10.0805,10.1084,10.1281,10.1281,10.1281,10.1281,10.1281,10.1281,10.1281,10.1281,10.1281,10.1281,10.1281,10.1281,10.1281,10.1281,10.1281,10.1281,10.1281,10.1281,10.1281,10.1281,10.1281,10.1281,10.1281,10.1281,10.1281,10.1281,10.1281,10.1281,10.1281,10.1281,10.1281,10.1281,10.1281,10.1281,10.1281,10.1281,10.1281,10.1281,10.1281,10.1281,10.1281,10.1281,10.1281,10.1281,10.1281,10.1281,10.1281,10.1281,10.1281,10.1281,10.1281,10.1281,10.1281,10.1281,10.1281,10.1281,10.1281,10.1281,10.1281,10.1281,10.1281,10.1281,10.1281,10.1281,10.1281,10.1281,10.1281,10.1281,10.1281,10.1281,10.1281,10.1281,10.1281,10.1281,10.1281,10.1281,10.1281,10.1281,10.1281,10.1281,10.1281,10.1281,10.1281,7.7355,7.9337,8.1412,8.2774,8.4638,8.6468,8.7863,8.8177,8.8508,8.966,9.0096,9.0692,9.2157,0.0,9.4418,9.5253,9.5925,9.6285,9.6285,9.6285,9.6403,9.6641,9.7157,9.7939,9.9093,9.9738,10.0408,10.1202,10.1281,10.1281,10.1281,10.1281,10.1281,10.1281,10.1281,10.1281,10.1281,10.1281,10.1281,10.1281,10.1281,10.1281,10.1281,10.1281,10.1281,10.1281,10.1281,10.1281,10.1281,10.1281,10.1281,10.1281,10.1281,10.1281,10.1281,10.1281,10.1281,10.1281,10.1281,10.1281,10.1281,10.1281,10.1281,10.1281,10.1281,10.1281,10.1281,10.1281,10.1281,10.1281,10.1281,10.1281,10.1281,10.1281,10.1281,10.1281,10.1281,10.1281,10.1281,10.1281,10.1281,10.1281,10.1281,10.1281,10.1281,10.1281,10.1281,10.1281,10.1281,10.1281,10.1281,10.1281,10.1281,10.1281,10.1281,10.1281,10.1281,10.1281,10.1281,10.1281,10.1281,10.1281,10.1281,10.1281,10.1281,10.1281,10.1281,10.1281,10.1281,10.1281,10.1281,10.1281,7.8077,7.9823,8.1741,8.4291,8.5534,8.6803,8.9339,8.9896,9.0414,9.2157,9.3148,9.3981,9.4852,9.5005,0.0,9.6165,9.6285,9.6285,9.6285,9.6285,9.66,9.7395,9.7511,9.8185,9.9942,10.0091,10.0408,10.1202,10.1281,10.1281,10.1281,10.1281,10.1281,10.1281,10.1281,10.1281,10.1281,10.1281,10.1281,10.1281,10.1281,10.1281,10.1281,10.1281,10.1281,10.1281,10.1281,10.1281,10.1281,10.1281,10.1281,10.1281,10.1281,10.1281,10.1281,10.1281,10.1281,10.1281,10.1281,10.1281,10.1281,10.1281,10.1281,10.1281,10.1281,10.1281,10.1281,10.1281,10.1281,10.1281,10.1281,10.1281,10.1281,10.1281,10.1281,10.1281,10.1281,10.1281,10.1281,10.1281,10.1281,10.1281,10.1281,10.1281,10.1281,10.1281,10.1281,10.1281,10.1281,10.1281,10.1281,10.1281,10.1281,10.1281,10.1281,10.1281,10.1281,10.1281,10.1281,10.1281,10.1281,10.1281,10.1281,10.1281,10.1281,10.1281,10.1281,10.1281,10.1281,10.1281,10.1281,10.1281,8.147,8.3338,8.4939,8.6335,8.7303,8.828,8.959,9.0357,9.1305,9.2975,9.3516,9.3952,9.4824,9.4995,0.0,9.6165,9.6285,9.6285,9.6285,9.6285,9.66,9.7395,9.8043,9.8858,9.9976,10.0608,10.1005,10.1281,10.1281,10.1281,10.1281,10.1281,10.1281,10.1281,10.1281,10.1281,10.1281,10.1281,10.1281,10.1281,10.1281,10.1281,10.1281,10.1281,10.1281,10.1281,10.1281,10.1281,10.1281,10.1281,10.1281,10.1281,10.1281,10.1281,10.1281,10.1281,10.1281,10.1281,10.1281,10.1281,10.1281,10.1281,10.1281,10.1281,10.1281,10.1281,10.1281,10.1281,10.1281,10.1281,10.1281,10.1281,10.1281,10.1281,10.1281,10.1281,10.1281,10.1281,10.1281,10.1281,10.1281,10.1281,10.1281,10.1281,10.1281,10.1281,10.1281,10.1281,10.1281,10.1281,10.1281,10.1281,10.1281,10.1281,10.1281,10.1281,10.1281,10.1281,10.1281,10.1281,10.1281,10.1281,10.1281,10.1281,10.1281,10.1281,10.1281,10.1281,10.1281,10.1281,10.1281,10.1281,8.2922,8.4838,8.6462,8.8011,8.8795,8.958,9.1088,9.1808,9.2593,9.3954,9.4499,9.4895,9.5412,9.5529,0.0,9.6204,9.6285,9.6285,9.6285,9.6562,9.7078,9.7909,9.8808,9.9656,10.0488,10.1005,10.1281,10.1281,10.1281,10.1281,10.1281,10.1281,10.1281,10.1281,10.1281,10.1281,10.1281,10.1281,10.1281,10.1281,10.1281,10.1281,10.1281,10.1281,10.1281,10.1281,10.1281,10.1281,10.1281,10.1281,10.1281,10.1281,10.1281,10.1281,10.1281,10.1281,10.1281,10.1281,10.1281,10.1281,10.1281,10.1281,10.1281,10.1281,10.1281,10.1281,10.1281,10.1281,10.1281,10.1281,10.1281,10.1281,10.1281,10.1281,10.1281,10.1281,10.1281,10.1281,10.1281,10.1281,10.1281,10.1281,10.1281,10.1281,10.1281,10.1281,10.1281,10.1281,10.1281,10.1281,10.1281,10.1281,10.1281,10.1281,10.1281,10.1281,10.1281,10.1281,10.1281,10.1281,10.1281,10.1281,10.1281,10.1281,10.1281,10.1281,10.1281,10.1281,10.1281,10.1281,10.1281,10.1281,8.3144,8.5098,8.7038,8.9422,9.0096,9.0769,9.3257,9.3815,9.4063,9.4936,9.5767,9.6285,9.6285,9.6285,9.6285,9.6285,9.6285,9.6285,9.6285,9.6997,9.7828,9.8688,9.9555,10.0408,10.1202,10.1281,10.1281,10.1281,10.1281,10.1281,10.1281,10.1281,10.1281,10.1281,10.1281,10.1281,10.1281,10.1281,10.1281,10.1281,10.1281,10.1281,10.1281,10.1281,10.1281,10.1281,10.1281,10.1281,10.1281,10.1281,10.1281,10.1281,10.1281,10.1281,10.1281,10.1281,10.1281,10.1281,10.1281,10.1281,10.1281,10.1281,10.1281,10.1281,10.1399,10.1397,10.1397,10.1397,10.1397,10.1397,10.1281,10.1281,10.1281,10.1281,10.1281,10.1281,10.1281,10.1281,10.1281,10.1281,10.1281,10.1281,10.1281,10.1281,10.1281,10.1281,10.1281,10.1281,10.1281,10.1281,10.1281,10.1281,10.1281,10.1281,10.1281,10.1281,10.1281,10.1281,10.1281,10.1281,10.1281,10.1281,10.1281,10.1281,10.1281,10.1281,10.1281,10.1281,10.1281,10.1281,10.1281,10.1281,8.4889,8.7282,8.9382,9.0611,9.1445,9.2416,9.4315,9.4712,9.4975,9.5848,9.6165,9.6285,9.6285,9.6285,9.6285,9.6285,9.6285,9.6285,9.6285,9.6997,9.7838,9.8707,9.955,10.0408,10.1202,10.1281,10.1281,10.1281,10.1281,10.1281,10.1281,10.1281,10.1281,10.1281,10.1281,10.1281,10.1281,10.1281,10.1281,10.1281,10.1281,10.1281,10.1281,10.1281,10.1281,10.1281,10.1281,10.1281,10.1281,10.1281,10.1281,10.1281,10.1281,10.1281,10.1281,10.1281,10.1281,10.1281,10.1281,10.1281,10.1281,10.1281,10.1281,10.1397,10.2092,10.2284,10.2284,10.2284,10.2284,10.221,10.1515,10.1281,10.1281,10.1281,10.1281,10.1281,10.1281,10.1281,10.1281,10.1281,10.1281,10.1281,10.1281,10.1281,10.1281,10.1281,10.1281,10.1281,10.1281,10.1281,10.1281,10.1281,10.1281,10.1281,10.1281,10.1281,10.1281,10.1281,10.1281,10.1281,10.1281,10.1281,10.1281,10.1281,10.1281,10.1281,10.1281,10.1281,10.1281,10.1281,10.1281,10.1281,8.4626,8.7083,8.9224,9.1287,9.2439,9.3416,9.471,9.5332,9.5767,9.6204,9.6285,9.6285,9.6285,9.6285,9.6285,9.6285,9.6285,9.6442,9.6838,9.7592,9.8466,9.931,10.0211,10.0805,10.1281,10.1281,10.1281,10.1281,10.1281,10.1281,10.1281,10.1281,10.1281,10.1281,10.1281,10.1281,10.1281,10.1281,10.1281,10.1281,10.1281,10.1281,10.1281,10.1281,10.1281,10.1281,10.1281,10.1281,10.1281,10.1281,10.1281,10.1281,10.1281,10.1281,10.1281,10.1281,10.1281,10.1281,10.1281,10.1281,10.1281,10.1281,10.1281,10.1515,10.2284,10.2594,10.2712,10.3097,10.3212,10.3097,10.2712,10.2517,10.2399,10.2015,10.1592,10.1281,10.1281,10.1281,10.1281,10.1281,10.1281,10.1281,10.1281,10.1281,10.1281,10.1281,10.1281,10.1281,10.1281,10.1281,10.1281,10.1281,10.1281,10.1281,10.1281,10.1281,10.1281,10.1281,10.1281,10.1281,10.1281,10.1281,10.1281,10.1281,10.1281,10.1281,10.1281,10.1281,10.1281,10.1281,10.1281,10.1515,8.3576,8.6314,8.8788,9.192,9.331,9.4142,9.5015,9.5769,9.6285,9.6285,9.6285,9.6285,9.6285,9.6285,9.6285,9.6285,9.6403,9.672,9.7395,9.8371,9.9278,9.9983,10.0805,10.1281,10.1281,10.1281,10.1281,10.1281,10.1281,10.1281,10.1281,10.1281,10.1281,10.1281,10.1281,10.1281,10.1281,10.1281,10.1281,10.1281,10.1281,10.1281,10.1281,10.1281,10.1281,10.1281,10.1281,10.1281,10.1281,10.1281,10.1281,10.1281,10.1281,10.1281,10.1281,10.1281,10.1281,10.1281,10.1281,10.1281,10.1281,10.1281,10.1281,10.1515,10.2517,10.2789,10.2981,10.3907,10.4102,10.4102,10.3907,10.3907,10.3715,10.2981,10.2287,10.1707,10.1399,10.1281,10.1281,10.1281,10.1281,10.1281,10.1281,10.1281,10.1281,10.1281,10.1281,10.1281,10.1281,10.1281,10.1281,10.1281,10.1281,10.1281,10.1281,10.1281,10.1281,10.1281,10.1281,10.1281,10.1281,10.1397,10.1515,10.1515,10.1515,10.1592,10.1705,10.1705,10.1705,10.1705,10.1705,10.2092,8.3027,8.7145,9.1167,9.3071,9.4181,9.5054,9.5928,9.6204,9.6285,9.6285,9.6285,9.6285,9.6285,9.6285,9.6285,9.6285,9.6879,9.7393,9.7475,9.8901,9.9988,10.0094,10.0805,10.1281,10.1281,10.1281,10.1281,10.1281,10.1281,10.1281,10.1281,10.1281,10.1281,10.1281,10.1281,10.1281,10.1281,10.1281,10.1281,10.1281,10.1281,10.1281,10.1281,10.1281,10.1281,10.1281,10.1281,10.1281,10.1281,10.1281,10.1281,10.1281,10.1281,10.1281,10.1281,10.1281,10.1281,10.1281,10.1281,10.1281,10.1281,10.1281,10.1281,10.1592,10.3212,10.3715,10.3907,10.4715,10.491,10.4794,10.4102,10.3907,10.3907,10.3794,10.3599,10.3097,10.1592,10.1281,10.1281,10.1281,10.1281,10.1281,10.1281,10.1281,10.1281,10.1281,10.1281,10.1281,10.1281,10.1281,10.1281,10.1281,10.1281,10.1281,10.1281,10.1281,10.1281,10.1281,10.1281,10.1281,10.1281,10.2015,10.2402,10.2402,10.2402,10.2789,10.3599,10.3599,10.3599,10.3599,10.3599,10.3599,8.2397,8.6641,9.032,9.2482,9.366,9.4617,9.6005,9.6641,9.6958,9.6958,9.6958,9.6838,9.6365,9.6285,9.6442,9.6917,9.7275,9.785,9.882,9.9606,10.0291,10.0687,10.1084,10.1281,10.1281,10.1281,10.1281,10.1281,10.1281,10.1281,10.1281,10.1281,10.1281,10.1281,10.1281,10.1281,10.1281,10.1281,10.1281,10.1281,10.1281,10.1281,10.1281,10.1281,10.1281,10.1281,10.1281,10.1281,10.1281,10.1281,10.1281,10.1281,10.1281,10.1281,10.1281,10.1281,10.1281,10.1281,10.1281,10.1281,10.1281,10.1281,10.1281,10.1592,10.3407,10.3907,10.4217,10.5482,10.5787,10.571,10.5402,10.5287,10.5213,10.4715,10.4602,10.4215,10.3017,10.2789,10.2594,10.2092,10.2015,10.1899,10.1399,10.1281,10.1281,10.1281,10.1281,10.1281,10.1281,10.1281,10.1281,10.1281,10.1281,10.1515,10.2015,10.2015,10.221,10.271,10.2789,10.2789,10.2789,10.3097,10.3482,10.3984,10.3599,10.3484,10.3907,10.3907,10.3907,10.3907,10.3907,10.41,8.2213,8.6092,8.9277,9.1591,9.3128,9.442,9.5966,9.692,9.7547,9.7795,9.7632,9.7324,9.6716,9.66,9.68,9.7395,9.7886,9.8596,9.9904,10.0291,10.0608,10.1202,10.1281,10.1281,10.1281,10.1281,10.1281,10.1281,10.1281,10.1281,10.1281,10.1281,10.1281,10.1281,10.1281,10.1281,10.1281,10.1281,10.1281,10.1281,10.1281,10.1281,10.1281,10.1281,10.1281,10.1281,10.1281,10.1281,10.1281,10.1281,10.1281,10.1281,10.1281,10.1281,10.1281,10.1281,10.1281,10.1281,10.1281,10.1281,10.1281,10.1281,10.1281,10.1592,10.3407,10.3907,10.4212,10.59,10.6397,10.6397,10.6397,10.6397,10.6208,10.56,10.5405,10.5097,10.41,10.3907,10.3715,10.3099,10.2904,10.271,10.2094,10.2017,10.2017,10.2017,10.2017,10.2017,10.2017,10.2017,10.2017,10.2017,10.2017,10.221,10.2904,10.2904,10.3212,10.391,10.3907,10.3907,10.3907,10.4102,10.4487,10.5102,10.4715,10.4482,10.4482,10.4482,10.4482,10.4482,10.4482,10.4907,8.286,8.6082,8.9111,9.0827,9.3106,9.5174,9.6086,9.692,9.7723,9.8572,9.8077,9.7472,9.7454,9.7434,9.7434,9.7475,9.8897,10.0019,10.0091,10.0805,10.1281,10.1281,10.1281,10.1281,10.1281,10.1281,10.1281,10.1281,10.1281,10.1281,10.1281,10.1281,10.1281,10.1281,10.1281,10.1281,10.1281,10.1281,10.1281,10.1281,10.1281,10.1281,10.1281,10.1281,10.1281,10.1281,10.1281,10.1281,10.1281,10.1281,10.1281,10.1281,10.1281,10.1281,10.1281,10.1281,10.1281,10.1281,10.1281,10.1281,10.1281,10.1281,10.1281,10.1592,10.3407,10.3907,10.4212,10.59,10.6397,10.6397,10.6397,10.6397,10.6397,10.6282,10.6285,10.59,10.4292,10.3907,10.3907,10.3792,10.3792,10.3792,10.3794,10.3794,10.3794,10.3794,10.3794,10.3794,10.3794,10.3794,10.3794,10.3794,10.3794,10.3794,10.3792,10.3792,10.391,10.3907,10.3907,10.3907,10.3907,10.4602,10.5105,10.5102,10.5905,10.6285,10.6285,10.6285,10.6285,10.6285,10.6285,10.6285,8.0764,8.3672,8.6818,8.9051,9.1496,9.3751,9.5149,9.6945,9.843,9.875,9.898,9.9171,9.916,9.8265,9.7689,9.8255,9.9322,10.0291,10.0805,10.1084,10.1281,10.1281,10.1281,10.1281,10.1281,10.1281,10.1281,10.1281,10.1281,10.1281,10.1281,10.1281,10.1281,10.1281,10.1281,10.1281,10.1281,10.1281,10.1281,10.1281,10.1281,10.1281,10.1281,10.1281,10.1281,10.1281,10.1281,10.1281,10.1281,10.1281,10.1281,10.1281,10.1281,10.1281,10.1281,10.1281,10.1281,10.1281,10.1281,10.1281,10.1281,10.1281,10.1281,10.1592,10.3407,10.3907,10.4212,10.59,10.6397,10.6397,10.6397,10.6397,10.6397,10.6397,10.6397,10.6205,10.5592,10.5518,10.5287,10.4794,10.4718,10.4487,10.3987,10.3907,10.3907,10.3907,10.3907,10.3907,10.3907,10.3907,10.3907,10.3907,10.3907,10.4102,10.4602,10.4718,10.4907,10.5479,10.5518,10.5518,10.5518,10.5787,10.5903,10.5903,10.6208,10.6397,10.6397,10.6397,10.6397,10.6397,10.6397,10.6397,7.9931,8.251,8.5365,8.7359,8.9964,9.2488,9.4167,9.6347,9.819,9.9067,9.9456,9.9755,9.9985,9.9165,9.8548,9.9151,9.9932,10.0687,10.1202,10.1281,10.1281,10.1281,10.1281,10.1281,10.1281,10.1281,10.1281,10.1281,10.1281,0.0,10.1281,10.1281,10.1281,10.1281,10.1281,10.1281,10.1281,10.1281,10.1281,10.1281,10.1281,10.1281,10.1281,10.1281,10.1281,10.1281,10.1281,10.1281,10.1281,10.1281,10.1281,10.1281,10.1281,10.1281,10.1281,10.1281,10.1281,10.1281,10.1281,10.1281,10.1281,10.1281,10.1281,10.1592,10.3407,10.3907,10.4212,10.59,10.6397,10.6397,10.6397,10.6397,10.6397,10.6397,10.6397,10.6397,10.6397,10.6397,10.6208,10.5595,10.5482,10.5407,10.4789,10.471,10.471,10.471,10.471,10.471,10.471,10.471,10.471,10.471,10.471,10.4984,10.5484,10.5482,10.579,10.64,10.6397,10.6397,10.6397,10.6397,10.6397,10.6397,10.6397,10.6397,10.6397,10.6397,10.6397,10.6397,10.6397,10.6397,0.0,0.0,0.0,8.5877,8.863,9.1581,9.3258,9.5015,9.7007,9.9522,9.9379,9.9098,9.9973,10.0091,10.0091,10.0091,10.0805,10.1281,10.1281,10.1281,10.1281,10.1281,10.1281,10.1281,10.1281,10.1281,10.1281,10.1281,10.1281,10.1281,10.1281,10.1281,10.1281,10.1281,10.1281,10.1281,10.1281,10.1281,10.1281,10.1281,10.1281,10.1281,10.1281,10.1281,10.1281,10.1281,10.1281,10.1281,10.1281,10.1281,10.1281,10.1281,10.1281,10.1281,10.1281,10.1281,10.1281,10.1281,10.1281,10.1281,10.1281,10.1281,10.1281,10.1592,10.3407,10.3907,10.4212,10.59,10.6397,10.6397,10.6397,10.6397,10.6397,10.6397,10.6397,10.6397,10.6397,10.6397,10.6397,10.6397,10.6397,10.6397,10.6397,10.6397,10.6397,10.6397,10.6397,10.6397,10.6397,10.6397,10.6397,10.6397,10.6397,10.6397,10.6397,10.6397,10.6397,10.6397,10.6397,10.6397,10.6397,10.6397,10.6397,10.6397,10.6397,10.6397,10.6397,10.6397,10.6397,10.6397,10.6397,10.6397,7.9871,0.0,0.0,0.0,0.0,0.0,9.1624,9.4197,9.6673,9.7951,9.9034,9.9973,10.0805,10.1005,10.1005,10.1005,10.1202,10.1281,10.1281,10.1281,10.1281,10.1281,10.1281,10.1281,10.1281,10.1281,10.1281,0.0,10.1281,10.1281,10.1281,10.1281,10.1281,10.1281,10.1281,10.1281,10.1281,10.1281,10.1281,10.1281,10.1281,10.1281,10.1281,10.1281,10.1281,10.1281,10.1281,10.1281,10.1281,10.1281,10.1281,10.1281,10.1281,10.1281,10.1281,10.1281,10.1281,10.1281,10.1281,10.1281,10.1281,10.1281,10.1281,10.1592,10.3407,10.3907,10.4212,10.59,10.6397,10.6397,10.6397,10.6397,10.6397,10.6397,10.6397,10.6397,10.6397,10.6397,10.6397,10.6397,10.6397,10.6397,10.6397,10.6397,10.6397,10.6397,10.6397,10.6397,10.6397,10.6397,10.6397,10.6397,10.6397,10.6397,10.6397,10.6397,10.6397,10.6397,10.6397,10.6397,10.6397,10.6397,10.6397,10.6397,10.6397,10.6397,10.6397,10.6397,10.6397,10.6397,10.6397,10.6397,8.0537,8.2203,8.3805,8.4688,0.0,0.0,9.0398,9.2746,9.5147,9.6689,9.8063,9.9377,10.0608,10.0805,10.0885,10.1202,10.1281,10.1281,10.1281,10.1281,10.1281,10.1281,10.1281,10.1281,10.1281,10.1281,10.1281,10.1281,10.1281,10.1281,10.1281,10.1281,10.1281,10.1281,10.1281,10.1281,10.1281,10.1281,10.1281,10.1281,10.1281,10.1281,10.1281,10.1281,10.1281,10.1281,10.1281,10.1281,10.1281,10.1281,10.1281,10.1281,10.1281,10.1281,10.1281,10.1281,10.1281,10.1281,10.1281,10.1281,10.1281,10.1281,10.1281,10.1592,10.3407,10.3907,10.4212,10.59,10.6397,10.6397,10.6397,10.6397,10.6397,10.6397,10.6397,10.6397,10.6397,10.6397,10.6397,10.6397,10.6397,10.6397,10.6397,10.6397,10.6397,10.6397,10.6397,10.6397,10.6397,10.6397,10.6397,10.6397,10.6397,10.6397,10.6397,10.6397,10.6397,10.6397,10.6397,10.6397,10.6397,10.6397,10.6397,10.6397,10.6397,10.6397,10.6397,10.6397,10.6397,10.6397,10.6397,10.6397,8.2005,8.3027,8.3827,8.4684,0.0,0.0,8.9382,9.1097,9.304,9.5512,9.6724,9.7887,9.9514,9.9901,10.0211,10.1005,10.1202,10.1202,10.1281,10.1281,10.1281,10.1402,10.1402,10.1402,10.1402,10.1402,10.1402,10.1281,10.1281,10.1281,10.1281,10.1281,10.1281,10.1281,10.1281,10.1281,10.1281,10.1281,10.1281,10.1281,10.1281,10.1281,10.1281,10.1281,10.1281,10.1281,10.1281,10.1281,10.1281,10.1281,10.1281,10.1281,10.1281,10.1281,10.1281,10.1281,10.1281,10.1281,10.1281,10.1281,10.1281,10.1281,10.1281,10.1592,10.3407,10.3907,10.4212,10.59,10.6397,10.6397,10.6397,10.6397,10.6397,10.6397,10.6397,10.6397,10.6397,10.6397,10.6397,10.6397,10.6397,10.6397,10.6397,10.6397,10.6397,10.6397,10.6397,10.6397,10.6397,10.6397,10.6397,10.6397,10.6397,10.6397,10.6397,10.6397,10.6397,10.6397,10.6397,10.6397,10.6397,10.6397,10.6397,10.6397,10.6397,10.6397,10.6397,10.6397,10.6397,10.6397,10.6397,10.6397,0.0,0.0,0.0,0.0,0.0,0.0,0.0,9.0238,9.197,9.3846,9.5436,9.6846,9.7838,9.8563,9.9336,10.0211,10.0291,10.0608,10.1202,10.1281,10.1599,10.2313,10.2313,10.2313,10.2313,10.2313,10.2114,10.1402,10.1281,10.1281,10.1281,10.1281,10.1281,10.1281,10.1281,10.1281,10.1281,10.1281,10.1281,10.1281,10.1281,10.1281,10.1281,10.1281,10.1281,10.1281,10.1281,10.1281,10.1281,10.1281,10.1281,10.1281,10.1281,10.1281,10.1281,10.1281,10.1281,10.1281,10.1281,10.1281,10.1281,10.1281,10.1281,10.1592,10.3407,10.3907,10.4212,10.59,10.6397,10.6397,10.6397,10.6397,10.6397,10.6397,10.6397,10.6397,10.6397,10.6397,10.6397,10.6397,10.6397,10.6397,10.6397,10.6397,10.6397,10.6397,10.6397,10.6397,10.6397,10.6397,10.6397,10.6397,10.6397,10.6397,10.6397,10.6397,10.6397,10.6397,10.6397,10.6397,10.6397,10.6397,10.6397,10.6397,10.6397,10.6397,10.6397,10.6397,10.6397,10.6397,10.6397,10.6397,0.0,0.0,0.0,8.5376,0.0,0.0,0.0,0.0,9.0318,9.1535,9.319,9.4643,9.5462,9.6318,9.7315,9.8584,9.8817,9.9257,10.0488,10.1402,10.2313,10.3105,10.3217,10.3185,10.3185,10.2914,10.2193,10.1402,10.1707,10.1899,10.1899,10.2404,10.2402,10.2017,10.1899,10.1705,10.1281,10.1281,10.1281,10.1281,10.1281,10.1281,10.1281,10.1281,10.1281,10.1281,10.1281,10.1281,10.1281,10.1281,10.1281,10.1281,10.1281,10.1281,10.1281,10.1281,10.1281,10.1281,10.1281,10.1281,10.1281,10.1281,10.1281,10.1592,10.3407,10.4482,10.5287,10.6208,10.6397,10.6397,10.6397,10.6397,10.6397,10.6397,10.6397,10.6397,10.6397,10.6397,10.6397,10.6397,10.6397,10.6397,10.6397,10.6397,10.6397,10.6397,10.6397,10.6397,10.6397,10.6397,10.6397,10.6397,10.6397,10.6397,10.6397,10.6397,10.6397,10.6397,10.6397,10.6397,10.6397,10.6397,10.6397,10.6397,10.6397,10.6397,10.6397,10.6397,10.6397,10.6397,10.6397,10.6397,0.0,0.0,0.0,0.0,0.0,8.7161,0.0,0.0,0.0,8.9254,9.092,9.2436,9.3081,9.4054,9.5283,9.6988,9.7257,9.7938,9.9844,10.1294,10.2503,10.3514,10.3595,10.3701,10.3898,10.3115,10.2304,10.1592,10.221,10.2594,10.2594,10.3405,10.3484,10.2594,10.2594,10.221,10.1281,10.1281,10.1281,10.1281,10.1281,10.1281,10.1281,10.1281,10.1281,10.1281,10.1281,10.1281,10.1281,10.1281,10.1281,10.1281,10.1281,10.1281,10.1281,10.1281,10.1281,10.1281,10.1281,10.1281,10.1281,10.1281,10.1515,10.2094,10.3484,10.5097,10.6397,10.6397,10.6397,10.6397,10.6397,10.6397,10.6397,10.6397,10.6397,10.6397,10.6397,10.6397,10.6397,10.6397,10.6397,10.6397,10.6397,10.6397,10.6397,10.6397,10.6397,10.6397,10.6397,10.6397,10.6397,10.6397,10.6397,10.6397,10.6397,10.6397,10.6397,10.6397,10.6397,10.6397,10.6397,10.6397,10.6397,10.6397,10.6397,10.6397,10.6397,10.6397,10.6397,10.6397,10.6397,10.6397,0.0,0.0,0.0,0.0,8.6733,0.0,0.0,0.0,0.0,8.7501,0.0,9.1392,9.1486,0.0,0.0,9.6145,9.6454,9.7297,9.9756,10.031,10.1009,10.2619,10.2714,10.3104,10.3819,10.3093,10.2589,10.252,10.2517,10.2594,10.2594,10.3405,10.3484,10.2594,10.2594,10.221,10.1281,10.1281,10.1281,10.1281,10.1281,10.1281,10.1281,10.1281,10.1281,10.1281,10.1281,10.1281,10.1281,10.1281,10.1281,10.1281,10.1281,10.1281,10.1281,10.1281,10.1281,10.1281,10.1281,10.1281,10.1281,10.1281,10.2284,10.3599,10.3792,10.5097,10.6397,10.6397,10.6397,10.6397,10.6397,10.6397,10.6397,10.6397,10.6397,10.6397,10.6397,10.6397,10.6397,10.6397,10.6397,10.6397,10.6397,10.6397,10.6397,10.6397,10.6397,10.6397,10.6397,10.6397,10.6397,10.6397,10.6397,10.6397,10.6397,10.6397,10.6397,10.6397,10.6397,10.6397,10.6397,10.6397,10.6397,10.6397,10.6397,10.6397,10.6397,10.6397,10.6397,10.6397,10.6397,10.6397,0.0,0.0,0.0,0.0,0.0,0.0,8.6208,0.0,8.5768,0.0,0.0,0.0,0.0,0.0,0.0,0.0,9.4093,0.0,9.684,9.7156,9.832,10.1504,10.2285,0.0,10.3083,10.2813,10.2604,10.2594,10.3099,10.3599,10.3984,10.4905,10.471,10.3407,10.3407,10.2712,10.1281,10.1281,10.1281,10.1281,10.1281,10.1281,10.1281,10.1281,10.1281,10.1281,10.1281,10.1281,10.1281,10.1281,10.1281,10.1281,10.1281,10.1281,10.1281,10.1281,10.1281,10.1281,10.1281,10.1281,10.1281,10.1281,10.252,10.3907,10.3907,10.5097,10.6397,10.6397,10.6397,10.6397,10.6397,10.6397,10.6397,10.6397,10.6397,10.6397,10.6397,10.6397,10.6397,10.6397,10.6397,10.6397,10.6397,10.6397,10.6397,10.6397,10.6397,10.6397,10.6397,10.6397,10.6397,10.6397,10.6397,10.6397,10.6397,10.6397,10.6397,10.6397,10.6397,10.6397,10.6397,10.6397,10.6397,10.6397,10.6397,10.6397,10.6397,10.6397,10.6397,10.6397,10.6397,10.6397,9.3264,0.0,0.0,0.0,0.0,0.0,0.0,0.0,0.0,0.0,0.0,0.0,0.0,0.0,0.0,0.0,0.0,9.3235,9.4464,9.4622,9.605,9.9791,10.1195,0.0,0.0,10.2214,10.2381,10.2904,10.3484,10.4294,10.5105,10.5903,10.571,10.4294,10.3984,10.3212,10.1707,10.1397,10.1281,10.1281,10.1281,10.1281,10.1281,10.1281,10.1281,10.1281,10.1281,10.1281,10.1281,10.1281,10.1281,10.1281,10.1281,10.1281,10.1281,10.1281,10.1281,10.1281,10.1281,10.1281,10.1281,10.1281,10.252,10.3907,10.3907,10.5097,10.6397,10.6397,10.6397,10.6397,10.6397,10.6397,10.6397,10.6397,10.6397,10.6397,10.6397,10.6397,10.6397,10.6397,10.6397,10.6397,10.6397,10.6397,10.6397,10.6397,10.6397,10.6397,10.6397,10.6397,10.6397,10.6397,10.6397,10.6397,10.6397,10.6397,10.6397,10.6397,10.6397,10.6397,10.6397,10.6397,10.6397,10.6397,10.6397,10.6397,10.6397,10.6397,10.6397,10.6397,10.6397,10.6397,0.0,0.0,0.0,9.2608,0.0,0.0,0.0,0.0,8.6331,0.0,0.0,0.0,0.0,0.0,0.0,0.0,0.0,0.0,0.0,0.0,9.4692,9.7323,0.0,0.0,0.0,10.1281,10.2015,0.0,10.3907,10.4294,10.5105,10.5903,10.6018,10.5102,10.4292,10.3484,10.2597,10.1707,10.1281,10.1281,10.1281,10.1281,10.1281,10.1281,10.1281,10.1281,10.1281,10.1281,10.1281,10.1281,10.1281,10.1281,10.1281,10.1281,10.1281,10.1281,10.1281,10.1281,10.1281,10.1281,10.1281,10.1281,10.252,10.3907,10.3907,10.5097,10.6397,10.6397,10.6397,10.6397,10.6397,10.6397,10.6397,10.6397,10.6397,10.6397,10.6397,10.6397,10.6397,10.6397,10.6397,10.6397,10.6397,10.6397,10.6397,10.6397,10.6397,10.6397,10.6397,10.6397,10.6397,10.6397,10.6397,10.6397,10.6397,10.6397,10.6397,10.6397,10.6397,10.6397,10.6397,10.6397,10.6397,10.6397,10.6397,10.6397,10.6397,10.6397,10.6397,10.6397,10.6397,10.6397,0.0,0.0,9.5092,9.3651,0.0,0.0,0.0,0.0,0.0,0.0,0.0,0.0,0.0,0.0,0.0,0.0,0.0,0.0,0.0,0.0,0.0,0.0,0.0,0.0,0.0,0.0,0.0,0.0,10.441,0.0,10.5903,10.6208,10.6018,10.51,10.4792,10.3984,10.2594,10.2284,10.1899,10.1281,10.1281,10.1281,10.1281,10.1281,10.1281,10.1281,10.1281,10.1281,10.1281,10.1281,10.1281,10.1281,10.1281,10.1281,10.1281,10.1281,10.1281,10.1281,10.1281,10.1281,10.1281,10.1281,10.2094,10.3097,10.3715,10.4715,10.5715,10.6208,10.6397,10.6397,10.6397,10.6397,10.6397,10.6397,10.6397,10.6397,10.6397,10.6397,10.6397,10.6397,10.6397,10.6397,10.6397,10.6397,10.6397,10.6397,10.6397,10.6397,10.6397,10.6397,10.6397,10.6397,10.6397,10.6397,10.6397,10.6397,10.6397,10.6397,10.6397,10.6397,10.6397,10.6397,10.6397,10.6397,10.6397,10.6397,10.6397,10.6397,10.6397,10.6397,10.6397,10.6397,9.9242,9.8241,0.0,9.5782,9.3588,0.0,9.0659,0.0,0.0,0.0,0.0,0.0,0.0,0.0,0.0,0.0,0.0,0.0,0.0,9.0851,0.0,0.0,0.0,0.0,0.0,0.0,0.0,0.0,0.0,0.0,0.0,10.6397,10.6092,10.56,10.5295,10.4602,10.3484,10.2904,10.2284,10.1786,10.1397,10.1281,10.1281,10.1281,10.1281,10.1281,10.1281,10.1281,10.1281,10.1281,10.1281,10.1281,10.1281,10.1281,10.1281,10.1281,10.1281,10.1281,10.1281,10.1281,10.1281,10.1281,10.1899,10.2789,10.3599,10.4487,10.5295,10.621,10.6397,10.6397,10.6397,10.6397,10.6397,10.6397,10.6397,10.6397,10.6397,10.6397,10.6397,10.6397,10.6397,10.6397,10.6397,10.6397,10.6397,10.6397,10.6397,10.6397,10.6397,10.6397,10.6397,10.6397,10.6397,10.6397,10.6397,10.6397,10.6397,10.6397,10.6397,10.6397,10.6397,10.6397,10.6397,10.6397,10.6397,10.6397,10.6397,10.6397,10.6397,10.6397,10.6397,10.6397]},{"header":{"parameterUnit":"m.s-1","parameterCategory":1,"la1":30.6,"la2":29.2853,"lo1":-89.7004,"lo2":-87.6739,"dx":0.0162,"dy":0.0183,"nx":112,"ny":82,"refTime":"2022-11-14T18:00:00:Z","depth":0,"parameterNumber":3,"parameterNumberName":"V-component_of_WINDS"},"data":[0.0,0.0,0.0,0.0,0.0,0.0,0.0,0.0,0.0,0.0,0.0,0.0,0.0,0.0,0.0,0.0,0.0,0.0,0.0,0.0,0.0,0.0,0.0,0.0,0.0,0.0,0.0,0.0,0.0,0.0,0.0,0.0,0.0,0.0,0.0,0.0,0.0,0.0,0.0,0.0,0.0,0.0,0.0,0.0,0.0,0.0,0.0,0.0,0.0,0.0,0.0,0.0,0.0,0.0,0.0,0.0,0.0,0.0,0.0,0.0,0.0,0.0,0.0,0.0,0.0,0.0,0.0,0.0,0.0,0.0,0.0,0.0,0.0,0.0,0.0,0.0,0.0,0.0,0.0,0.0,0.0,0.0,0.0,0.0,0.0,0.0,0.0,0.0,0.0,0.0,0.0,0.0,0.0,0.0,0.0,0.0,0.0,0.0,0.0,0.0,0.0,0.0,0.0,0.0,0.0,0.0,0.0,0.0,0.0,0.0,0.0,0.0,0.0,0.0,0.0,0.0,0.0,0.0,0.0,0.0,0.0,0.0,0.0,0.0,0.0,0.0,0.0,0.0,0.0,0.0,0.0,0.0,0.0,0.0,0.0,0.0,0.0,0.0,0.0,0.0,0.0,0.0,0.0,0.0,0.0,0.0,0.0,0.0,0.0,0.0,0.0,0.0,0.0,0.0,0.0,0.0,0.0,0.0,0.0,0.0,0.0,0.0,0.0,0.0,0.0,0.0,0.0,0.0,0.0,0.0,0.0,0.0,0.0,0.0,0.0,0.0,0.0,0.0,0.0,0.0,0.0,0.0,0.0,0.0,0.0,0.0,0.0,0.0,0.0,0.0,0.0,0.0,0.0,0.0,0.0,0.0,0.0,0.0,0.0,0.0,0.0,0.0,0.0,0.0,0.0,0.0,0.0,0.0,0.0,0.0,0.0,0.0,0.0,0.0,0.0,0.0,0.0,0.0,0.0,0.0,0.0,0.0,0.0,0.0,0.0,0.0,0.0,0.0,0.0,0.0,0.0,0.0,0.0,0.0,0.0,0.0,0.0,0.0,0.0,0.0,0.0,0.0,0.0,0.0,0.0,0.0,0.0,0.0,0.0,0.0,0.0,0.0,0.0,0.0,0.0,0.0,0.0,0.0,0.0,0.0,0.0,0.0,0.0,0.0,0.0,0.0,0.0,0.0,0.0,0.0,0.0,0.0,0.0,0.0,0.0,0.0,0.0,0.0,0.0,0.0,0.0,0.0,0.0,0.0,0.0,0.0,0.0,0.0,0.0,0.0,0.0,0.0,0.0,0.0,0.0,0.0,0.0,0.0,0.0,0.0,0.0,0.0,0.0,0.0,0.0,0.0,0.0,0.0,0.0,0.0,0.0,0.0,0.0,0.0,0.0,0.0,0.0,0.0,0.0,0.0,0.0,0.0,0.0,0.0,0.0,0.0,0.0,0.0,0.0,0.0,0.0,0.0,0.0,0.0,0.0,0.0,0.0,0.0,0.0,0.0,0.0,0.0,0.0,0.0,0.0,0.0,0.0,0.0,0.0,0.0,0.0,0.0,0.0,0.0,0.0,0.0,0.0,0.0,0.0,0.0,0.0,0.0,0.0,0.0,0.0,0.0,0.0,0.0,0.0,0.0,0.0,0.0,0.0,0.0,0.0,0.0,0.0,0.0,0.0,0.0,0.0,0.0,0.0,0.0,0.0,0.0,0.0,0.0,0.0,0.0,0.0,0.0,0.0,0.0,0.0,0.0,0.0,0.0,0.0,0.0,0.0,0.0,0.0,0.0,0.0,0.0,0.0,0.0,0.0,0.0,0.0,0.0,0.0,0.0,0.0,0.0,0.0,0.0,0.0,0.0,0.0,0.0,0.0,0.0,0.0,0.0,0.0,0.0,0.0,0.0,0.0,0.0,0.0,0.0,0.0,0.0,0.0,0.0,0.0,0.0,0.0,0.0,0.0,0.0,0.0,0.0,0.0,0.0,0.0,0.0,0.0,0.0,0.0,0.0,0.0,0.0,0.0,0.0,0.0,0.0,0.0,0.0,0.0,0.0,0.0,0.0,0.0,0.0,0.0,0.0,0.0,0.0,0.0,0.0,0.0,0.0,0.0,0.0,0.0,0.0,0.0,0.0,0.0,0.0,0.0,0.0,0.0,0.0,0.0,0.0,0.0,0.0,0.0,0.0,0.0,0.0,0.0,0.0,0.0,0.0,0.0,0.0,0.0,0.0,0.0,0.0,0.0,0.0,0.0,0.0,0.0,0.0,0.0,0.0,0.0,0.0,0.0,0.0,0.0,0.0,0.0,0.0,0.0,0.0,0.0,0.0,0.0,0.0,0.0,0.0,0.0,0.0,0.0,0.0,0.0,0.0,0.0,0.0,0.0,0.0,0.0,0.0,0.0,0.0,0.0,0.0,0.0,0.0,0.0,0.0,0.0,0.0,0.0,0.0,0.0,0.0,0.0,0.0,0.0,0.0,0.0,0.0,0.0,0.0,0.0,0.0,0.0,0.0,0.0,0.0,0.0,0.0,0.0,0.0,0.0,0.0,0.0,0.0,0.0,0.0,0.0,0.0,0.0,0.0,0.0,0.0,0.0,0.0,0.0,0.0,0.0,0.0,0.0,0.0,0.0,0.0,0.0,0.0,0.0,0.0,0.0,0.0,0.0,0.0,0.0,0.0,0.0,0.0,0.0,0.0,0.0,0.0,0.0,0.0,0.0,0.0,0.0,0.0,0.0,0.0,0.0,0.0,0.0,0.0,0.0,0.0,0.0,0.0,0.0,0.0,0.0,0.0,0.0,0.0,0.0,0.0,0.0,0.0,0.0,0.0,0.0,0.0,0.0,0.0,0.0,0.0,0.0,0.0,0.0,0.0,0.0,0.0,0.0,0.0,0.0,0.0,0.0,0.0,0.0,0.0,0.0,0.0,0.0,0.0,0.0,0.0,0.0,0.0,0.0,0.0,0.0,0.0,0.0,0.0,0.0,0.0,0.0,0.0,0.0,0.0,0.0,0.0,0.0,0.0,0.0,0.0,0.0,0.0,0.0,0.0,0.0,0.0,0.0,0.0,0.0,0.0,0.0,0.0,0.0,0.0,0.0,0.0,0.0,0.0,0.0,0.0,0.0,0.0,0.0,0.0,0.0,0.0,0.0,0.0,0.0,0.0,0.0,0.0,0.0,0.0,0.0,0.0,0.0,0.0,0.0,0.0,0.0,0.0,0.0,0.0,0.0,0.0,0.0,0.0,0.0,0.0,0.0,0.0,0.0,0.0,0.0,0.0,0.0,0.0,0.0,0.0,0.0,0.0,0.0,0.0,0.0,0.0,0.0,0.0,0.0,0.0,0.0,0.0,0.0,0.0,0.0,0.0,0.0,0.0,0.0,0.0,0.0,0.0,0.0,0.0,0.0,0.0,0.0,0.0,0.0,0.0,0.0,0.0,0.0,0.0,0.0,0.0,0.0,0.0,0.0,0.0,0.0,0.0,0.0,0.0,0.0,0.0,0.0,0.0,0.0,0.0,0.0,0.0,0.0,0.0,0.0,0.0,0.0,0.0,0.0,0.0,0.0,0.0,0.0,0.0,0.0,0.0,0.0,0.0,0.0,0.0,0.0,0.0,0.0,0.0,0.0,0.0,0.0,0.0,0.0,0.0,0.0,0.0,0.0,0.0,0.0,0.0,0.0,0.0,0.0,0.0,0.0,0.0,0.0,0.0,0.0,0.0,0.0,0.0,0.0,0.0,0.0,0.0,0.0,0.0,0.0,0.0,0.0,0.0,0.0,0.0,0.0,0.0,0.0,0.0,0.0,0.0,0.0,0.0,0.0,0.0,0.0,0.0,0.0,0.0,0.0,0.0,0.0,0.0,0.0,0.0,0.0,0.0,0.0,0.0,0.0,0.0,0.0,0.0,0.0,0.0,0.0,0.0,0.0,0.0,0.0,0.0,0.0,0.0,0.0,0.0,0.0,0.0,0.0,0.0,0.0,0.0,0.0,0.0,0.0,0.0,0.0,0.0,0.0,0.0,0.0,0.0,0.0,0.0,0.0,0.0,0.0,0.0,0.0,0.0,0.0,0.0,0.0,0.0,0.0,0.0,0.0,0.0,0.0,0.0,0.0,0.0,0.0,0.0,0.0,0.0,0.0,0.0,0.0,0.0,0.0,0.0,0.0,0.0,0.0,0.0,0.0,0.0,0.0,0.0,0.0,0.0,0.0,0.0,0.0,0.0,0.0,0.0,0.0,0.0,0.0,0.0,0.0,0.0,0.0,0.0,0.0,0.0,0.0,0.0,0.0,0.0,0.0,0.0,0.0,0.0,0.0,0.0,0.0,0.0,0.0,0.0,0.0,0.0,0.0,0.0,0.0,0.0,0.0,0.0,0.0,0.0,0.0,0.0,0.0,0.0,0.0,0.0,0.0,0.0,0.0,0.0,0.0,0.0,0.0,0.0,0.0,0.0,0.0,0.0,0.0,0.0,0.0,0.0,0.0,0.0,0.0,0.0,0.0,0.0,0.0,0.0,0.0,0.0,0.0,0.0,0.0,0.0,0.0,0.0,0.0,0.0,0.0,0.0,0.0,0.0,0.0,0.0,0.0,0.0,0.0,0.0,0.0,0.0,0.0,0.0,0.0,0.0,0.0,0.0,0.0,0.0,0.0,0.0,0.0,0.0,0.0,0.0,0.0,0.0,0.0,0.0,0.0,0.0,0.0,0.0,0.0,0.0,0.0,0.0,0.0,0.0,0.0,0.0,0.0,0.0,0.0,0.0,0.0,0.0,0.0,0.0,0.0,0.0,0.0,0.0,0.0,0.0,0.0,0.0,0.0,0.0,0.0,0.0,0.0,0.0,0.0,0.0,0.0,0.0,0.0,0.0,0.0,0.0,0.0,0.0,0.0,0.0,0.0,0.0,0.0,0.0,0.0,0.0,0.0,0.0,0.0,0.0,0.0,0.0,0.0,0.0,0.0,0.0,0.0,0.0,0.0,0.0,0.0,0.0,0.0,0.0,0.0,0.0,0.0,0.0,0.0,0.0,0.0,0.0,0.0,0.0,0.0,0.0,0.0,0.0,0.0,0.0,0.0,0.0,0.0,0.0,0.0,0.0,0.0,0.0,0.0,0.0,0.0,0.0,0.0,0.0,0.0,0.0,0.0,0.0,0.0,0.0,0.0,0.0,0.0,0.0,0.0,0.0,0.0,0.0,0.0,0.0,0.0,0.0,0.0,0.0,0.0,0.0,0.0,0.0,0.0,0.0,0.0,0.0,0.0,0.0,0.0,0.0,0.0,0.0,0.0,0.0,0.0,0.0,0.0,0.0,0.0,0.0,0.0,0.0,0.0,0.0,0.0,0.0,0.0,0.0,0.0,0.0,0.0,0.0,0.0,0.0,0.0,0.0,0.0,0.0,0.0,0.0,0.0,0.0,0.0,0.0,0.0,0.0,0.0,0.0,0.0,0.0,0.0,0.0,0.0,0.0,0.0,0.0,0.0,0.0,0.0,0.0,0.0,0.0,0.0,0.0,0.0,0.0,0.0,0.0,0.0,0.0,0.0,0.0,0.0,0.0,0.0,0.0,0.0,0.0,0.0,0.0,0.0,0.0,0.0,0.0,0.0,0.0,0.0,0.0,0.0,0.0,0.0,0.0,0.0,0.0,0.0,0.0,0.0,0.0,0.0,0.0,0.0,0.0,0.0,0.0,0.0,0.0,0.0,0.0,0.0,0.0,0.0,0.0,0.0,0.0,0.0,0.0,0.0,0.0,0.0,0.0,0.0,0.0,0.0,0.0,0.0,0.0,0.0,0.0,0.0,0.0,0.0,0.0,0.0,0.0,0.0,0.0,0.0,0.0,0.0,0.0,0.0,0.0,0.0,0.0,0.0,0.0,0.0,0.0,0.0,0.0,0.0,0.0,0.0,0.0,0.0,0.0,0.0,0.0,0.0,0.0,0.0,0.0,0.0,0.0,0.0,0.0,0.0,0.0,0.0,0.0,0.0,0.0,0.0,0.0,0.0,0.0,0.0,0.0,0.0,0.0,0.0,0.0,0.0,0.0,0.0,0.0,0.0,0.0,0.0,0.0,0.0,0.0,0.0,0.0,0.0,0.0,0.0,0.0,0.0,0.0,0.0,0.0,0.0,0.0,0.0,0.0,0.0,0.0,0.0,0.0,0.0,0.0,0.0,0.0,0.0,0.0,0.0,0.0,0.0,0.0,0.0,0.0,0.0,0.0,0.0,0.0,0.0,0.0,0.0,0.0,0.0,0.0,0.0,0.0,0.0,0.0,0.0,0.0,0.0,0.0,0.0,0.0,0.0,0.0,0.0,0.0,0.0,0.0,0.0,0.0,0.0,0.0,0.0,0.0,0.0,0.0,0.0,0.0,0.0,0.0,0.0,0.0,0.0,0.0,0.0,0.0,0.0,0.0,0.0,0.0,0.0,0.0,0.0,0.0,0.0,0.0,0.0,0.0,0.0,0.0,0.0,0.0,0.0,0.0,0.0,0.0,0.0,0.0,0.0,0.0,0.0,0.0,0.0,0.0,0.0,0.0,0.0,0.0,0.0,0.0,0.0,0.0,0.0,0.0,0.0,0.0,0.0,0.0,0.0,0.0,0.0,0.0,0.0,0.0,0.0,0.0,0.0,0.0,0.0,0.0,0.0,0.0,0.0,0.0,0.0,0.0,0.0,0.0,0.0,0.0,0.0,0.0,0.0,0.0,0.0,0.0,0.0,0.0,0.0,0.0,0.0,0.0,0.0,0.0,0.0,0.0,0.0,0.0,0.0,0.0,0.0,0.0,0.0,0.0,0.0,0.0,0.0,0.0,0.0,0.0,0.0,0.0,0.0,0.0,0.0,0.0,0.0,0.0,0.0,0.0,0.0,0.0,0.0,0.0,0.0,0.0,0.0,0.0,0.0,0.0,0.0,0.0,0.0,0.0,0.0,0.0,0.0,0.0,0.0,0.0,0.0,0.0,0.0,0.0,0.0,0.0,0.0,0.0,0.0,0.0,0.0,0.0,0.0,0.0,0.0,0.0,0.0,0.0,0.0,0.0,0.0,0.0,0.0,0.0,0.0,0.0,0.0,0.0,0.0,0.0,0.0,0.0,0.0,0.0,0.0,0.0,0.0,0.0,0.0,0.0,0.0,0.0,0.0,0.0,0.0,0.0,0.0,0.0,0.0,0.0,0.0,0.0,0.0,0.0,0.0,0.0,0.0,0.0,0.0,0.0,0.0,0.0,0.0,0.0,0.0,0.0,0.0,0.0,0.0,0.0,0.0,0.0,0.0,0.0,0.0,0.0,0.0,0.0,0.0,0.0,0.0,0.0,0.0,0.0,0.0,0.0,0.0,0.0,0.0,0.0,0.0,0.0,0.0,0.0,0.0,0.0,0.0,0.0,0.0,0.0,0.0,0.0,0.0,0.0,0.0,0.0,0.0,0.0,0.0,0.0,0.0,0.0,0.0,0.0,0.0,0.0,0.0,0.0,0.0,0.0,0.0,0.0,0.0,0.0,0.0,0.0,0.0,0.0,0.0,0.0,0.0,0.0,0.0,0.0,0.0,0.0,0.0,0.0,0.0,0.0,0.0,0.0,0.0,0.0,0.0,0.0,0.0,0.0,0.0,0.0,0.0,0.0,0.0,0.0,0.0,0.0,0.0,0.0,0.0,0.0,0.0,0.0,0.0,0.0,0.0,0.0,0.0,0.0,0.0,0.0,0.0,0.0,0.0,0.0,0.0,0.0,0.0,0.0,0.0,0.0,0.0,0.0,0.0,0.0,0.0,0.0,0.0,0.0,0.0,0.0,0.0,0.0,0.0,0.0,0.0,0.0,0.0,0.0,0.0,0.0,0.0,0.0,0.0,0.0,0.0,0.0,0.0,0.0,0.0,0.0,0.0,0.0,0.0,0.0,0.0,0.0,0.0,0.0,0.0,0.0,0.0,0.0,0.0,0.0,0.0,0.0,0.0,0.0,0.0,0.0,0.0,0.0,0.0,0.0,0.0,0.0,0.0,0.0,0.0,0.0,0.0,0.0,0.0,0.0,0.0,0.0,0.0,0.0,0.0,0.0,0.0,0.0,0.0,0.0,0.0,0.0,0.0,0.0,0.0,0.0,0.0,0.0,0.0,0.0,0.0,0.0,0.0,0.0,0.0,0.0,0.0,0.0,0.0,0.0,0.0,0.0,0.0,0.0,0.0,0.0,0.0,0.0,0.0,0.0,0.0,0.0,0.0,0.0,0.0,0.0,0.0,0.0,0.0,0.0,0.0,0.0,0.0,0.0,0.0,0.0,0.0,0.0,0.0,0.0,0.0,0.0,0.0,0.0,0.0,0.0,0.0,0.0,0.0,0.0,0.0,0.0,0.0,0.0,0.0,0.0,0.0,0.0,0.0,0.0,0.0,0.0,0.0,0.0,0.0,0.0,0.0,0.0,0.0,0.0,0.0,0.0,0.0,0.0,0.0,0.0,0.0,0.0,0.0,0.0,0.0,0.0,0.0,0.0,0.0,0.0,0.0,0.0,0.0,0.0,0.0,0.0,0.0,0.0,0.0,0.0,0.0,0.0,0.0,0.0,0.0,0.0,0.0,0.0,0.0,0.0,0.0,0.0,0.0,0.0,0.0,0.0,0.0,0.0,0.0,0.0,0.0,0.0,0.0,0.0,0.0,0.0,0.0,0.0,0.0,0.0,0.0,0.0,0.0,0.0,0.0,0.0,0.0,0.0,0.0,0.0,0.0,0.0,0.0,0.0,0.0,0.0,0.0,0.0,0.0,0.0,0.0,0.0,0.0,0.0,0.0,0.0,0.0,0.0,0.0,0.0,0.0,0.0,0.0,0.0,0.0,0.0,0.0,0.0,0.0,0.0,0.0,0.0,0.0,0.0,0.0,0.0,0.0,0.0,0.0,0.0,0.0,0.0,0.0,0.0,0.0,0.0,0.0,0.0,0.0,0.0,0.0,0.0,0.0,0.0,0.0,0.0,0.0,0.0,0.0,0.0,0.0,0.0,0.0,0.0,0.0,0.0,0.0,0.0,0.0,0.0,0.0,0.0,0.0,0.0,0.0,0.0,0.0,0.0,0.0,0.0,0.0,0.0,0.0,0.0,0.0,0.0,0.0,0.0,0.0,0.0,0.0,0.0,0.0,0.0,0.0,0.0,0.0,0.0,0.0,0.0,0.0,0.0,0.0,0.0,0.0,0.0,0.0,0.0,0.0,0.0,0.0,0.0,0.0,0.0,0.0,0.0,0.0,0.0,0.0,0.0,0.0,0.0,0.0,0.0,0.0,0.0,0.0,0.0,0.0,0.0,0.0,0.0,0.0,0.0,0.0,0.0,0.0,0.0,0.0,0.0,0.0,0.0,0.0,0.0,0.0,0.0,0.0,0.0,0.0,0.0,0.0,0.0,0.0,0.0,0.0,0.0,0.0,0.0,0.0,0.0,0.0,0.0,0.0,0.0,0.0,0.0,0.0,0.0,0.0,0.0,0.0,0.0,0.0,0.0,0.0,0.0,0.0,0.0,0.0,0.0,0.0,0.0,0.0,0.0,0.0,0.0,0.0,0.0,0.0,0.0,0.0,0.0,0.0,0.0,0.0,0.0,0.0,0.0,0.0,0.0,0.0,0.0,0.0,0.0,0.0,0.0,0.0,0.0,0.0,0.0,0.0,0.0,0.0,0.0,0.0,0.0,0.0,0.0,0.0,0.0,0.0,0.0,0.0,0.0,0.0,0.0,0.0,0.0,0.0,0.0,0.0,0.0,0.0,0.0,0.0,0.0,0.0,0.0,0.0,0.0,0.0,0.0,0.0,0.0,0.0,0.0,0.0,0.0,0.0,0.0,0.0,0.0,0.0,0.0,0.0,0.0,0.0,0.0,0.0,0.0,0.0,0.0,0.0,0.0,0.0,0.0,0.0,0.0,0.0,0.0,0.0,0.0,0.0,0.0,0.0,0.0,0.0,0.0,0.0,0.0,0.0,0.0,0.0,0.0,0.0,0.0,0.0,0.0,0.0,0.0,0.0,0.0,0.0,0.0,0.0,0.0,0.0,0.0,0.0,0.0,0.0,0.0,0.0,0.0,0.0,0.0,0.0,0.0,0.0,0.0,0.0,0.0,0.0,0.0,0.0,0.0,0.0,0.0,0.0,0.0,0.0,0.0,0.0,0.0,0.0,0.0,0.0,0.0,0.0,0.0,0.0,0.0,0.0,0.0,0.0,0.0,0.0,0.0,0.0,0.0,0.0,0.0,0.0,0.0,0.0,0.0,0.0,0.0,0.0,0.0,0.0,0.0,0.0,0.0,0.0,0.0,0.0,0.0,0.0,0.0,0.0,0.0,0.0,0.0,0.0,0.0,0.0,0.0,0.0,0.0,0.0,0.0,0.0,0.0,0.0,0.0,0.0,0.0,0.0,0.0,0.0,0.0,0.0,0.0,0.0,0.0,0.0,0.0,0.0,0.0,0.0,0.0,0.0,0.0,0.0,0.0,0.0,0.0,0.0,0.0,0.0,0.0,0.0,0.0,0.0,0.0,0.0,0.0,0.0,0.0,0.0,0.0,0.0,0.0,0.0,0.0,0.0,0.0,0.0,0.0,0.0,0.0,0.0,0.0,0.0,0.0,0.0,0.0,0.0,0.0,0.0,0.0,0.0,0.0,0.0,0.0,0.0,0.0,0.0,0.0,0.0,0.0,0.0,0.0,0.0,0.0,0.0,0.0,0.0,0.0,0.0,0.0,0.0,0.0,0.0,0.0,0.0,0.0,0.0,0.0,0.0,0.0,0.0,0.0,0.0,0.0,0.0,0.0,0.0,0.0,0.0,0.0,0.0,0.0,0.0,0.0,0.0,0.0,0.0,0.0,0.0,0.0,0.0,0.0,0.0,0.0,0.0,0.0,0.0,0.0,0.0,0.0,0.0,0.0,0.0,0.0,0.0,0.0,0.0,0.0,0.0,0.0,0.0,0.0,0.0,0.0,0.0,0.0,0.0,0.0,0.0,0.0,0.0,0.0,0.0,0.0,0.0,0.0,0.0,0.0,0.0,0.0,0.0,0.0,0.0,0.0,0.0,0.0,0.0,0.0,0.0,0.0,0.0,0.0,0.0,0.0,0.0,0.0,0.0,0.0,0.0,0.0,0.0,0.0,0.0,0.0,0.0,0.0,0.0,0.0,0.0,0.0,0.0,0.0,0.0,0.0,0.0,0.0,0.0,0.0,0.0,0.0,0.0,0.0,0.0,0.0,0.0,0.0,0.0,0.0,0.0,0.0,0.0,0.0,0.0,0.0,0.0,0.0,0.0,0.0,0.0,0.0,0.0,0.0,0.0,0.0,0.0,0.0,0.0,0.0,0.0,0.0,0.0,0.0,0.0,0.0,0.0,0.0,0.0,0.0,0.0,0.0,0.0,0.0,0.0,0.0,0.0,0.0,0.0,0.0,0.0,0.0,0.0,0.0,0.0,0.0,0.0,0.0,0.0,0.0,0.0,0.0,0.0,0.0,0.0,0.0,0.0,0.0,0.0,0.0,0.0,0.0,0.0,0.0,0.0,0.0,0.0,0.0,0.0,0.0,0.0,0.0,0.0,0.0,0.0,0.0,0.0,0.0,0.0,0.0,0.0,0.0,0.0,0.0,0.0,0.0,0.0,0.0,0.0,0.0,0.0,0.0,0.0,0.0,0.0,0.0,0.0,0.0,0.0,0.0,0.0,0.0,0.0,0.0,0.0,0.0,0.0,0.0,0.0,0.0,0.0,0.0,0.0,0.0,0.0,0.0,0.0,0.0,0.0,0.0,0.0,0.0,0.0,0.0,0.0,0.0,0.0,0.0,0.0,0.0,0.0,0.0,0.0,0.0,0.0,0.0,0.0,0.0,0.0,0.0,0.0,0.0,0.0,0.0,0.0,0.0,0.0,0.0,0.0,0.0,0.0,0.0,0.0,0.0,0.0,0.0,0.0,0.0,0.0,0.0,0.0,0.0,0.0,0.0,0.0,0.0,0.0,0.0,0.0,0.0,0.0,0.0,0.0,0.0,0.0,0.0,0.0,0.0,0.0,0.0,0.0,0.0,0.0,0.0,0.0,0.0,0.0,0.0,0.0,0.0,0.0,0.0,0.0,0.0,0.0,0.0,0.0,0.0,0.0,0.0,0.0,0.0,0.0,0.0,0.0,0.0,0.0,0.0,0.0,0.0,0.0,0.0,0.0,0.0,0.0,0.0,0.0,0.0,0.0,0.0,0.0,0.0,0.0,0.0,0.0,0.0,0.0,0.0,0.0,0.0,0.0,0.0,0.0,0.0,0.0,0.0,0.0,0.0,0.0,0.0,0.0,0.0,0.0,0.0,0.0,0.0,0.0,0.0,0.0,0.0,0.0,0.0,0.0,0.0,0.0,0.0,0.0,0.0,0.0,0.0,0.0,0.0,0.0,0.0,0.0,0.0,0.0,0.0,0.0,0.0,0.0,0.0,0.0,0.0,0.0,0.0,0.0,0.0,0.0,0.0,0.0,0.0,0.0,0.0,0.0,0.0,0.0,0.0,0.0,0.0,0.0,0.0,0.0,0.0,0.0,0.0,0.0,0.0,0.0,0.0,0.0,0.0,0.0,0.0,0.0,0.0,0.0,0.0,0.0,0.0,0.0,0.0,0.0,0.0,0.0,0.0,0.0,0.0,0.0,0.0,0.0,0.0,0.0,0.0,0.0,0.0,0.0,0.0,0.0,0.0,0.0,0.0,0.0,0.0,0.0,0.0,0.0,0.0,0.0,0.0,0.0,0.0,0.0,0.0,0.0,0.0,0.0,0.0,0.0,0.0,0.0,0.0,0.0,0.0,0.0,0.0,0.0,0.0,0.0,0.0,0.0,0.0,0.0,0.0,0.0,0.0,0.0,0.0,0.0,0.0,0.0,0.0,0.0,0.0,0.0,0.0,0.0,0.0,0.0,0.0,0.0,0.0,0.0,0.0,0.0,0.0,0.0,0.0,0.0,0.0,0.0,0.0,0.0,0.0,0.0,0.0,0.0,0.0,0.0,0.0,0.0,0.0,0.0,0.0,0.0,0.0,0.0,0.0,0.0,0.0,0.0,0.0,0.0,0.0051,0.0896,0.1262,0.1224,0.0795,0.0619,0.0619,0.0619,0.0619,0.0568,0.015,0.0,0.0,0.0,0.0,0.0,0.0,0.0,0.0,0.0,0.0,0.0,0.0,0.0,0.0,0.0,0.0,0.0,0.0,0.0,0.0,0.0,0.0,0.0,0.0,0.0,0.0,0.0,0.0,0.0,0.0,0.0,0.0,0.0,0.0,0.0,0.0,0.0,0.0,0.0,0.0,0.0,0.0,0.0,0.0,0.0,0.0,0.0,0.0,0.0,0.0,0.0,0.0,0.0,0.0,0.0,0.0,0.0,0.0,0.0,0.0,0.0,0.0,0.0,0.0,0.0,0.0,0.0,0.0,0.0,0.0,0.0,0.0,0.0,0.0,0.0,0.0,0.0,0.0,0.0,0.0,0.0,0.0,0.0,0.0,0.0,0.0,0.0,0.0,0.0,0.0,0.0,0.0,0.0,0.0,0.0,0.0,0.0,0.0,0.0,0.0,0.0,0.0215,0.409,0.5772,0.5621,0.3647,0.2839,0.2839,0.2839,0.2839,0.2612,0.0706,0.0,0.0,0.0,0.0,0.0,0.0,0.0,0.0,0.0,0.0,0.0,0.0,0.0,0.0,0.0,0.0,0.0,0.0,0.0,0.0,0.0,0.0,0.0,0.0,0.0,0.0,0.0,0.0,0.0,0.0,0.0,0.0,0.0,0.0,0.0,0.0,0.0,0.0,0.0,0.0,0.0,0.0,0.0,0.0,0.0,0.0,0.0,0.0,0.0,0.0,0.0,0.0,0.0,0.0,0.0,0.0,0.0,0.0,0.0,0.0,0.0,0.0,0.0,0.0,0.0,0.0,0.0,0.0,0.0,0.0,0.0,0.0,0.0,0.0,0.0,0.0,0.0,0.0,0.0,0.0,0.0,0.0,0.0,0.0,0.0,0.0,0.0,0.0,0.0,0.0,0.0,0.0,0.0,0.0,0.0,0.0,0.0,0.0,0.0,0.0,0.2069,0.5745,0.7569,0.801,0.7358,0.6435,0.6055,0.6055,0.6055,0.6055,0.5715,0.2902,0.1863,0.1769,0.1154,0.0926,0.0823,0.02,0.0,0.0,0.0,0.0,0.0,0.0,0.0,0.0,0.0,0.0,0.0,0.0,0.0,0.0,0.0,0.0,0.0,0.0,0.0,0.0,0.0,0.0,0.0,0.0,0.0,0.0,0.0,0.0,0.0,0.0,0.0,0.0,0.0,0.0,0.0,0.0,0.0,0.0,0.0,0.0,0.0,0.0,0.0,0.0,0.0,0.0,0.0,0.0,0.0,0.0,0.0,0.0,0.0,0.0,0.0,0.0,0.0,0.0,0.0,0.0,0.0,0.0,0.0,0.0,0.0,0.0,0.0,0.0,0.0,0.0,0.0,0.0,0.0,0.0,0.0,0.0,0.0,0.0,0.0,0.0,0.0,0.0,0.0,0.0,0.0,0.0,0.0,0.0,0.0,0.0013,0.0597,0.0878,0.0903,0.1512,0.5083,1.0769,1.0726,1.0155,0.9252,0.9134,0.9093,0.9093,0.9093,0.9093,0.8801,0.6423,0.5127,0.4442,0.3707,0.3051,0.2407,0.1627,0.1176,0.0874,0.0565,0.0465,0.0402,0.0091,0.0,0.0,0.0,0.0,0.0,0.0,0.0,0.0,0.0,0.0,0.0,0.0,0.0,0.0,0.0,0.0,0.0,0.0,0.0,0.0,0.0,0.0,0.0,0.0,0.0562,0.0941,0.0941,0.0941,0.0941,0.0941,0.0639,0.0469,0.0469,0.0169,0.0,0.0,0.0,0.0,0.0,0.0,0.0,0.0,0.0,0.0,0.0,0.0,0.0,0.0,0.0,0.0,0.0,0.0,0.0,0.0,0.0,0.0,0.0,0.0,0.0,0.0,0.0,0.0,0.0,0.0,0.0,0.0,0.0,0.0,0.0,0.0,0.0,0.0,0.0,0.0,0.0,0.0,0.0,0.0,0.0,0.0,0.0,0.0,0.0,0.0026,0.2103,0.3097,0.3172,0.5317,0.8927,1.3469,1.3281,1.2801,1.2142,1.1745,1.1586,1.1586,1.1586,1.1586,1.1586,1.1478,0.996,0.796,0.8059,0.6688,0.4891,0.4856,0.4147,0.3086,0.1983,0.1646,0.1414,0.0312,0.0,0.0,0.0,0.0,0.0,0.0,0.0,0.0,0.0,0.0,0.0,0.0,0.0,0.0,0.0,0.0,0.0,0.0,0.0,0.0,0.0,0.0,0.0,0.0,0.1984,0.3302,0.3302,0.3302,0.3302,0.3302,0.2259,0.1642,0.1642,0.0587,0.0,0.0,0.0,0.0,0.0,0.0,0.0,0.0,0.0,0.0,0.0,0.0,0.0,0.0,0.0,0.0,0.0,0.0,0.0,0.0,0.0,0.0,0.0,0.0,0.0,0.0,0.0,0.0,0.0,0.0,0.0,0.0,0.0,0.0,0.0,0.0,0.0,0.0,0.0,0.0,0.0,0.0,0.0,0.0,0.1375,0.2126,0.2125,0.3572,0.4385,0.4515,0.5239,0.6384,0.7867,0.8615,1.1073,1.4715,1.4665,1.3991,1.2953,1.2814,1.2757,1.2757,1.2757,1.2757,1.2757,1.2757,1.2249,1.1351,0.9975,0.9007,0.8146,0.6676,0.5945,0.5726,0.6097,0.5151,0.3881,0.3485,0.2297,0.1123,0.1123,0.0568,0.0,0.0,0.0,0.0,0.0,0.0,0.0,0.0,0.0,0.0,0.0,0.0,0.0,0.0,0.0,0.0,0.0,0.0,0.0,0.0,0.2039,0.3399,0.3399,0.4092,0.4853,0.5614,0.4587,0.3623,0.2865,0.2461,0.1902,0.1149,0.1123,0.1123,0.1123,0.037,0.0,0.0,0.0,0.0,0.0,0.0,0.0,0.0,0.0,0.0,0.0,0.0,0.0,0.0,0.0,0.0,0.0,0.0,0.0,0.0,0.0,0.0,0.0,0.0,0.0,0.0,0.0,0.0,0.0,0.0,0.0,0.0,0.0,0.0,0.0,0.0732,0.1138,0.114,0.3243,0.4746,0.5516,0.7057,0.7889,0.8023,0.8847,0.9993,1.1441,1.2265,1.3826,1.5905,1.5912,1.5297,1.4314,1.4534,1.4612,1.4612,1.4612,1.4612,1.4612,1.4612,1.4612,1.4309,1.2086,1.1174,1.0726,0.9132,0.8487,0.8357,0.846,0.7343,0.5924,0.5446,0.4048,0.264,0.2408,0.178,0.1004,0.0187,0.0,0.0,0.0,0.0,0.0,0.0,0.0,0.0,0.0,0.0,0.0,0.0,0.0,0.0,0.0,0.0,0.0,0.0,0.1676,0.2959,0.336,0.4447,0.5412,0.6147,0.5505,0.4771,0.4037,0.3612,0.3051,0.2319,0.2305,0.2305,0.2305,0.1572,0.0799,0.0,0.0,0.0,0.0,0.0,0.0022,0.0121,0.0146,0.0148,0.016,0.008,0.0,0.0,0.0,0.0,0.0,0.0,0.0,0.0,0.0,0.0,0.0,0.0,0.0,0.0,0.0,0.0,0.0,0.0,0.0,0.0,0.0,0.005,0.0164,0.2195,0.342,0.3523,0.5698,0.7837,0.9883,1.0332,1.0547,1.0571,1.2747,1.3766,1.3845,1.6011,1.7006,1.6999,1.7005,1.6683,1.6183,1.6775,1.7005,1.7005,1.7012,1.7018,1.7018,1.7018,1.7018,1.6709,1.4474,1.3303,1.269,1.2153,1.1632,1.0896,0.9161,0.8263,0.7559,0.6254,0.5275,0.4462,0.3799,0.3511,0.285,0.0621,0.0041,0.0,0.0,0.0,0.0,0.0,0.0,0.0,0.0,0.0,0.0,0.0,0.011,0.0137,0.0014,0.0,0.0,0.0,0.0964,0.2094,0.3298,0.4396,0.5039,0.5092,0.5157,0.5155,0.5075,0.3997,0.3399,0.3399,0.3399,0.3399,0.3399,0.3399,0.2252,0.008,0.0027,0.0,0.0,0.0,0.0346,0.1798,0.2158,0.2186,0.2285,0.1112,0.0,0.0,0.0,0.0,0.0,0.0,0.0,0.0,0.0,0.0,0.0,0.0,0.0,0.0,0.0,0.0,0.0,0.0,0.0,0.0,0.0,0.0694,0.2294,0.4466,0.6386,0.7989,1.0479,1.2049,1.2603,1.4367,1.5263,1.5274,1.5866,1.6124,1.615,1.6722,1.6998,1.7005,1.6998,1.6906,1.6788,1.7041,1.7154,1.7161,1.7263,1.7297,1.7297,1.7297,1.7297,1.721,1.6609,1.5882,1.4972,1.3612,1.3074,1.2646,1.0954,1.003,0.9403,0.8664,0.7376,0.6085,0.5506,0.4427,0.3098,0.1619,0.0613,0.0,0.0,0.0,0.0,0.0,0.0,0.0,0.0,0.0,0.0,0.0,0.1527,0.2027,0.0233,0.0,0.0,0.0,0.0259,0.124,0.3232,0.3665,0.4198,0.5047,0.5902,0.5854,0.4704,0.3852,0.3399,0.3399,0.3399,0.3399,0.3399,0.3399,0.2665,0.1252,0.04,0.0,0.1278,0.196,0.2936,0.4034,0.3645,0.3003,0.3081,0.1489,0.0,0.0,0.0,0.0,0.0,0.0,0.0,0.0,0.0,0.0,0.0,0.0,0.0,0.0,0.0,0.0,0.0,0.0846,0.1401,0.0,0.1399,0.2357,0.4537,0.6723,0.8979,1.134,1.3815,1.5088,1.5094,1.6361,1.7006,1.6999,1.6999,1.7005,1.7005,1.7005,1.7058,1.7186,0.0,1.718,1.7182,1.7256,1.729,1.7304,1.7372,1.7392,1.7392,1.7392,1.7392,1.7392,1.7392,1.7083,1.6424,1.4987,1.452,1.4147,1.2183,1.1179,1.0545,0.9717,0.8429,0.7153,0.6628,0.4992,0.3252,0.2239,0.0976,0.0,0.0,0.0,0.0,0.0,0.0,0.0,0.0,0.0874,0.1575,0.1575,0.2728,0.3496,0.3198,0.224,0.1576,0.1576,0.2192,0.3108,0.4387,0.4558,0.486,0.55,0.6138,0.6108,0.5244,0.4582,0.4233,0.4233,0.3976,0.3833,0.3833,0.3539,0.2809,0.1678,0.0533,0.0,0.3268,0.4651,0.6104,0.61,0.4584,0.3092,0.3075,0.1478,0.0,0.0,0.0,0.0,0.0,0.0,0.0,0.0,0.0,0.0,0.0,0.0,0.0,0.0,0.0,0.0114,0.0391,0.2374,0.3751,0.4036,0.4321,0.5207,0.6841,0.8956,1.1327,1.3974,1.597,1.7001,1.6992,1.6998,1.6991,1.6991,1.6991,1.7005,1.6992,1.6992,1.7153,1.7402,1.7456,1.7438,1.7392,1.7412,1.7426,1.7426,1.746,1.7467,1.7467,1.7467,1.7467,1.7467,1.7467,1.7467,1.7284,1.6178,1.5814,1.5409,1.3215,1.2225,1.1632,1.0505,0.9366,0.8357,0.7823,0.5919,0.3887,0.2938,0.1567,0.0429,0.0275,0.011,0.0097,0.0421,0.0477,0.0421,0.0267,0.2105,0.3706,0.4028,0.4166,0.5031,0.7239,0.5509,0.4138,0.4306,0.5519,0.6312,0.6312,0.6414,0.6491,0.6491,0.6484,0.6452,0.6397,0.5944,0.5648,0.5539,0.5018,0.4712,0.4637,0.3813,0.2855,0.1751,0.0561,0.0,0.5215,0.5644,0.6103,0.6094,0.4591,0.3076,0.2958,0.1417,0.0,0.0,0.0,0.0,0.0,0.0,0.0,0.0,0.0,0.0,0.0,0.0,0.0,0.0,0.0,0.0694,0.2471,0.4633,0.6666,0.0,1.0223,1.0615,0.9222,1.1177,1.3585,1.6322,1.6787,1.7004,1.6998,1.6998,1.6991,1.6991,1.6991,1.7,1.7002,1.7002,1.7156,1.7419,1.7688,0.0,1.7406,1.7514,1.7568,1.7582,1.7752,1.7806,1.7806,1.7806,1.7806,1.7806,1.7806,1.7806,1.7655,1.6736,1.6442,1.6192,1.4841,1.4367,1.415,1.3441,1.2419,1.141,1.0876,0.9069,0.6883,0.4867,0.3664,0.2698,0.1704,0.0699,0.0588,0.2582,0.2975,0.2652,0.1656,0.2666,0.4278,0.6281,0.7138,0.7961,0.9037,0.7653,0.6956,0.7961,0.8307,0.8465,0.8465,0.8484,0.8497,0.8497,0.8493,0.8324,0.7939,0.783,0.7472,0.6801,0.6692,0.6389,0.5892,0.4267,0.3038,0.2164,0.068,0.0,0.9012,0.9171,0.9011,0.7931,0.6152,0.435,0.317,0.2128,0.1139,0.0189,0.0,0.0,0.0,0.0,0.0,0.0,0.0,0.0,0.0,0.0,0.0,0.0,0.0984,0.2525,0.4705,0.6889,0.9157,1.1554,1.3784,1.3964,1.1497,1.3702,1.5639,1.6952,1.6998,1.6991,1.6991,1.6991,1.6991,1.6998,1.7,1.7001,1.7002,1.733,1.7533,1.767,1.7833,1.7806,1.7663,1.7724,1.7758,1.7772,1.7854,1.7901,1.7901,1.7901,1.7901,1.7901,1.7901,1.7901,1.7833,1.741,1.7062,1.659,1.5413,1.5065,1.4935,1.4332,1.3759,1.3217,1.2633,1.1241,0.9621,0.8205,0.6002,0.4119,0.3755,0.272,0.2215,0.3379,0.411,0.4558,0.46,0.5093,0.6155,0.8146,0.8842,0.9495,1.0514,1.0528,1.0287,0.9917,1.0458,1.0821,1.0821,1.0821,1.0814,1.0814,1.0815,1.0726,1.0492,1.0492,1.0295,0.992,0.929,0.8828,0.853,0.6443,0.4773,0.3523,0.2392,0.1204,1.222,1.2204,1.1717,0.9726,0.804,0.6409,0.4627,0.3735,0.2755,0.0913,0.0253,0.0,0.0,0.0,0.0,0.0,0.0378,0.0665,0.0689,0.0687,0.068,0.0681,0.2589,0.4777,0.6977,0.922,1.1586,1.4143,1.5995,1.6066,1.3888,1.5827,1.7,1.7004,1.6999,1.6999,1.6999,1.7,1.6994,1.6994,1.6996,1.7069,1.721,1.7682,1.7901,1.7902,1.7902,1.7896,1.7901,1.7901,1.7901,1.7901,1.7901,1.7901,1.7901,1.7901,1.7901,1.7901,1.7901,1.7901,1.7901,1.7901,1.7583,1.7016,1.6062,1.5779,1.5682,1.5197,1.4989,1.4775,1.4295,1.3276,1.2117,1.1137,0.8423,0.6018,0.5826,0.5045,0.4471,0.4821,0.5649,0.6578,0.744,0.7695,0.8286,0.9802,1.0342,1.1007,1.2214,1.3415,1.3628,1.22,1.2553,1.2891,1.2891,1.2891,1.2891,1.2891,1.2891,1.2891,1.2891,1.2891,1.2891,1.2891,1.1945,1.1414,1.1267,0.9169,0.7333,0.5762,0.464,0.3011,1.2677,1.2197,1.1785,1.0069,0.9508,0.9225,0.8655,0.6783,0.46,0.2665,0.1059,0.0,0.0,0.0,0.0,0.0,0.158,0.2834,0.2896,0.2906,0.2911,0.2909,0.4848,0.7041,0.9198,1.1727,1.4205,1.6508,1.6876,1.689,1.6638,1.6857,1.7004,1.6991,1.6994,1.6995,1.6995,1.7009,1.7009,1.7009,1.7009,1.7291,1.782,1.7875,1.7902,1.7902,1.7902,1.7902,0.0,1.7901,1.7901,1.7901,1.7901,1.7901,1.7901,1.7901,1.7901,1.7901,1.7901,1.7901,1.7901,1.7901,1.786,1.7805,1.7694,1.7646,1.7632,1.7577,1.7169,1.6747,1.6685,1.5765,1.4309,1.2043,1.0826,0.9582,0.7491,0.6943,0.7309,0.8772,0.9135,0.9135,0.8874,0.9282,1.0046,1.1235,1.2353,1.3512,1.4703,1.5923,1.6616,1.6448,1.5044,1.4123,1.4123,1.4123,1.4123,1.4123,1.4123,1.4123,1.4123,1.4123,1.4123,1.4123,1.4026,1.3701,1.3149,1.1834,1.0551,0.9271,0.6888,0.5269,1.4222,1.4264,1.4387,1.3715,1.3554,1.3104,1.136,0.8923,0.6452,0.4426,0.2669,0.1501,0.1509,0.151,0.1892,0.3057,0.4045,0.4731,0.492,0.5085,0.5183,0.5191,0.711,0.9379,1.1815,1.4228,1.6015,1.6929,1.7003,1.6997,1.6995,1.7003,1.7006,1.6994,1.6995,1.7169,1.7539,1.7547,1.7547,1.7534,1.7541,1.7677,1.7902,1.7896,1.7895,1.7901,1.7901,1.7901,0.0,1.7901,1.7901,1.7901,1.7901,1.7901,1.7901,1.7901,1.7901,1.7901,1.7901,1.7901,1.7901,1.7901,1.7901,1.7901,1.7901,1.7901,1.7901,1.7901,1.7736,1.7535,1.7535,1.6913,1.5862,1.4164,1.3317,1.2511,1.1208,1.0641,1.0585,1.1221,1.1346,1.1406,1.1606,1.1843,1.2409,1.3586,1.4475,1.5327,1.6179,1.7016,1.7535,1.7535,1.6899,1.6471,1.6471,1.6471,1.6471,1.6471,1.6471,1.6471,1.6471,1.6471,1.6471,1.6471,1.6103,1.5806,1.5555,1.4364,1.3146,1.1931,1.0177,0.8507,1.5152,1.564,1.6096,1.6096,1.5965,1.5297,1.3277,1.077,0.842,0.6807,0.5151,0.3975,0.3975,0.3983,0.4462,0.596,0.6885,0.7529,0.7858,0.8068,0.8233,0.8381,0.9724,1.1628,1.4103,1.5944,1.7002,1.7004,1.6991,1.6991,1.6991,1.6993,1.7007,1.6996,1.717,1.7472,1.7906,1.7894,1.7901,1.7901,1.7895,1.7902,1.7902,1.7895,1.7901,1.7901,1.7901,1.7901,0.0,1.7901,1.7901,1.7901,1.7901,1.7901,1.7901,1.7901,1.7901,1.7901,1.7901,1.7901,1.7901,1.7901,1.7901,1.7901,1.7901,1.7901,1.7901,1.7901,1.7901,1.7901,1.7901,1.7583,1.7016,1.5979,1.541,1.4872,1.4095,1.36,1.3303,1.3303,1.3303,1.3484,1.4095,1.4192,1.455,1.5583,1.6089,1.6574,1.7182,1.7638,1.7901,1.7901,1.7901,1.7901,1.7901,1.7901,1.7901,1.7901,1.7901,1.7901,1.7901,1.7901,1.7901,1.7901,1.748,1.7266,1.7252,1.6234,1.5197,1.4164,1.2965,1.1208,1.5042,1.5636,1.6104,1.61,1.5655,1.5051,1.4415,1.2411,1.0546,1.0056,0.8619,0.7448,0.7451,0.7449,0.7586,0.8004,0.9968,1.1596,1.2071,1.2141,1.2306,1.278,1.2851,1.3713,1.5866,1.6646,1.7004,1.6991,1.6991,0.0,1.6991,1.7001,1.6996,1.7002,1.7582,1.7889,1.7902,1.7902,1.7901,1.7901,1.7901,1.7901,1.7901,1.7901,1.7901,1.7901,1.7901,1.7901,0.0,1.7901,1.7901,1.7901,1.7901,1.7901,1.7901,1.7901,1.7901,1.7901,1.7901,1.7901,1.7901,1.7901,1.7901,1.7901,1.7901,1.7901,1.7901,1.7901,1.7901,1.7901,1.7901,1.7901,1.7736,1.7127,1.6988,1.6643,1.5438,1.5183,1.5169,1.5169,1.5169,1.5355,1.5965,1.6062,1.6276,1.6885,1.6988,1.721,1.7805,1.7901,1.7901,1.7901,1.7901,1.7901,1.7901,1.7901,1.7901,1.7901,1.7901,1.7901,1.7901,1.7901,1.7901,1.7901,1.7888,1.7888,1.7888,1.728,1.6671,1.6034,1.483,1.2979,1.453,1.5027,1.5392,1.4975,1.4726,1.4432,1.3817,1.277,1.1894,1.1734,1.0376,0.9208,0.9211,0.9474,1.0133,1.1502,1.2666,1.3603,1.4175,1.4246,1.4457,1.5025,1.5448,1.5969,1.6648,1.6896,1.6991,1.6991,1.6991,1.6993,1.6995,1.7009,1.7197,1.76,1.7799,1.7902,1.7902,1.7902,1.7901,1.7901,1.7901,1.7901,1.7901,1.7901,1.7901,1.7901,1.7901,1.7901,1.7901,1.7901,1.7901,1.7901,1.7901,1.7901,1.7901,1.7901,1.7901,1.7901,1.7901,1.7901,1.7901,1.7901,1.7901,1.7901,1.7901,1.7901,1.7901,1.7901,1.7901,1.7901,1.7901,1.7901,1.7846,1.7666,1.7625,1.7507,1.7127,1.7052,1.7052,1.7052,1.7052,1.7114,1.7293,1.7321,1.7397,1.7597,1.7625,1.7674,1.7874,1.7901,1.7901,1.7901,1.7901,1.7901,1.7901,1.7901,1.7901,1.7901,1.7901,1.7901,1.7901,1.7901,1.7901,1.7901,1.7901,1.7901,1.7901,1.7708,1.7293,1.6685,1.5486,1.4503,1.3897,1.4233,1.4428,1.4051,1.3964,1.3857,1.3484,1.2929,1.2557,1.2795,1.2009,1.1285,1.1278,1.1522,1.2154,1.3521,1.4051,1.451,1.5113,1.5398,1.5674,1.6066,1.6635,1.7003,1.6998,1.7002,1.6991,1.6991,1.6991,1.7,1.7009,1.7217,1.75,1.79,1.7902,1.7902,1.7901,1.7901,1.7901,1.7901,1.7901,1.7901,1.7901,1.7901,1.7901,1.7901,1.7901,1.7901,0.0,1.7901,1.7901,1.7901,1.7901,1.7901,1.7901,1.7901,1.7901,1.7901,1.7901,1.7901,1.7901,1.7901,1.7901,1.7901,1.7901,1.7901,1.7901,1.7901,1.7901,1.7901,1.7901,1.7901,1.7901,1.7901,1.7901,1.7901,1.7901,1.7901,1.7901,1.7901,1.7901,1.7901,1.7901,1.7901,1.7901,1.7901,1.7901,1.7901,1.7901,1.7901,1.7901,1.7901,1.7901,1.7901,1.7901,1.7901,1.7901,1.7901,1.7901,1.7901,1.7901,1.7901,1.7901,1.7901,1.7901,1.7901,1.7901,1.7901,1.7708,1.7321,1.6574,1.6103,0.0,1.3375,1.3395,1.3348,1.3335,1.3346,1.3343,1.294,0.0,1.3285,1.3392,1.3398,1.3397,1.3397,1.3604,1.4197,1.4345,1.4568,1.5184,1.5777,1.6159,1.6163,1.6657,1.6997,1.7004,1.6991,1.6991,1.6991,1.6991,1.7006,1.6996,1.7566,1.79,1.7895,1.7902,1.7901,1.7901,1.7901,1.7901,1.7901,1.7901,1.7901,1.7901,1.7901,1.7901,0.0,1.7901,1.7901,0.0,1.7901,1.7901,1.7901,1.7901,1.7901,1.7901,1.7901,1.7901,1.7901,1.7901,1.7901,1.7901,1.7901,1.7901,1.7901,1.7901,1.7901,1.7901,1.7901,1.7901,1.7901,1.7901,1.7901,1.7901,1.7901,1.7901,1.7901,1.7901,1.7901,1.7901,1.7901,1.7901,1.7901,1.7901,1.7901,1.7901,1.7901,1.7901,1.7901,1.7901,1.7901,1.7901,1.7901,1.7901,1.7901,1.7901,1.7901,1.7901,1.7901,1.7901,1.7901,1.7901,1.7901,1.7901,1.7901,1.7901,1.7901,1.7901,1.7901,1.7901,1.7901,1.7901,1.7597,1.2665,0.0,1.3295,1.283,1.2708,1.2715,0.0,1.2961,1.323,1.3373,1.3401,1.3401,1.3394,1.3398,1.3598,1.4208,1.4692,1.5199,1.5804,1.6409,1.6788,1.6791,1.691,1.6997,1.7004,1.6991,1.6991,1.6991,1.6991,1.7001,1.6996,1.7567,1.7908,1.7895,1.7902,1.7901,1.7901,1.7901,1.7901,1.7901,1.7901,1.7901,1.7901,1.7901,1.7901,1.7901,1.7901,1.7901,1.7901,1.7901,1.7901,1.7901,1.7901,1.7901,1.7901,1.7901,1.7901,1.7901,1.7901,1.7901,1.7901,1.7901,1.7901,1.7901,1.7901,1.7901,1.7901,1.7901,1.7901,1.7901,1.7901,1.7901,1.7901,1.7901,1.7901,1.7901,1.7901,1.7901,1.7901,1.7901,1.7901,1.7901,1.7901,1.7901,1.7901,1.7901,1.7901,1.7901,1.7901,1.7901,1.7901,1.7901,1.7901,1.7901,1.7901,1.7901,1.7901,1.7901,1.7901,1.7901,1.7901,1.7901,1.7901,1.7901,1.7901,1.7901,1.7901,1.7901,1.7901,1.7901,1.7901,1.7819,1.2499,1.2946,1.3321,1.2991,1.2913,1.2911,1.2911,1.3172,1.3398,1.3394,1.3397,1.3399,1.3392,1.363,1.3922,1.4244,1.4807,1.541,1.6011,1.6625,1.6997,1.7005,1.7006,1.6994,0.0,1.7,1.6994,1.6994,1.7008,1.6996,1.6999,1.7568,1.7895,1.7901,1.7901,1.7901,1.7901,1.7901,1.7901,1.7901,1.7901,1.7901,1.7901,1.7901,1.7901,1.7901,1.7901,1.7901,1.7901,1.7901,1.7901,1.7901,1.7901,1.7901,1.7901,1.7901,1.7901,1.7901,1.7901,1.7901,1.7901,1.7901,1.7901,1.7901,1.7901,1.7901,1.7901,1.7901,1.7901,1.7901,1.7901,1.7901,1.7901,1.7901,1.7901,1.7901,1.7901,1.7901,1.7901,1.7901,1.7901,1.7901,1.7901,1.7901,1.7901,1.7901,1.7901,1.7901,1.7901,1.7901,1.7901,1.7901,1.7901,1.7901,1.7901,1.7901,1.7901,1.7901,1.7901,1.7901,1.7901,1.7901,1.7901,1.7901,1.7901,1.7901,1.7901,1.7901,1.7901,1.7901,1.7901,1.7901,1.2499,1.2946,1.3397,1.3401,1.3397,1.3396,1.3401,1.3398,1.3398,1.3396,1.3398,1.3426,1.3517,1.4027,1.4448,1.4443,1.4933,1.5543,1.6144,1.6679,1.6997,1.7004,1.6991,0.0,1.6991,1.7001,1.7042,1.7122,1.7143,1.7142,1.7145,1.7622,1.7902,1.7901,1.7901,1.7901,1.7901,1.7901,1.7901,1.7901,1.7901,1.7901,1.7901,1.7901,1.7901,1.7901,0.0,0.0,1.7901,1.7901,1.7901,1.7901,1.7901,1.7901,1.7901,1.7901,1.7901,1.7901,1.7901,1.7901,1.7901,1.7901,1.7901,1.7901,1.7901,1.7901,1.7901,1.7901,1.7901,1.7901,1.7901,1.7901,1.7901,1.7901,1.7901,1.7901,1.7901,1.7901,1.7901,1.7901,1.7901,1.7901,1.7901,1.7901,1.7901,1.7901,1.7901,1.7901,1.7901,1.7901,1.7901,1.7901,1.7901,1.7901,1.7901,1.7901,1.7901,1.7901,1.7901,1.7901,1.7901,1.7901,1.7901,1.7901,1.7901,1.7901,1.7901,1.7901,1.7901,1.7901,1.7901,1.7901,1.2499,1.2943,1.3397,1.3401,1.3406,1.3405,1.3393,1.34,1.3406,1.3394,1.3399,1.3563,1.4067,1.4662,1.5057,1.506,1.5566,1.6163,1.6781,1.6935,1.6997,1.7004,0.0,1.6991,1.6991,1.7001,1.7208,1.7714,1.776,1.7751,1.7766,1.7848,1.7902,1.7901,1.7901,1.7901,1.7901,1.7901,1.7901,1.7901,1.7901,1.7901,1.7901,1.7901,1.7901,1.7901,0.0,1.7901,1.7901,1.7901,1.7901,1.7901,1.7901,1.7901,1.7901,1.7901,1.7901,1.7901,1.7901,1.7901,1.7901,1.7901,1.7901,1.7901,1.7901,1.7901,1.7901,1.7901,1.7901,1.7901,1.7901,1.7901,1.7901,1.7901,1.7901,1.7901,1.7901,1.7901,1.7901,1.7901,1.7901,1.7901,1.7901,1.7901,1.7901,1.7901,1.7901,1.7901,1.7901,1.7901,1.7901,1.7901,1.7901,1.7901,1.7901,1.7901,1.7901,1.7901,1.7901,1.7901,1.7901,1.7901,1.7901,1.7901,1.7901,1.7901,1.7901,1.7901,1.7901,1.7901,1.7901,1.7901,1.2499,1.2945,1.3481,1.3801,1.3897,1.3889,1.3894,1.3886,1.3886,1.3886,1.3891,1.3965,1.4247,1.4792,1.5315,1.5629,1.619,1.6683,1.696,1.6998,1.6995,0.0,0.0,1.6999,1.7007,1.6996,1.7251,1.7851,1.7901,1.7896,1.7896,1.7896,1.7902,1.7901,1.7901,1.7901,1.7901,1.7901,1.7901,1.7901,1.7901,1.7901,1.7901,1.7901,1.7901,1.7901,0.0,1.7901,1.7901,1.7901,1.7901,1.7901,1.7901,1.7901,1.7901,1.7901,1.7901,1.7901,1.7901,1.7901,1.7901,1.7901,1.7901,1.7901,1.7901,1.7901,1.7901,1.7901,1.7901,1.7901,1.7901,1.7901,1.7901,1.7901,1.7901,1.7901,1.7901,1.7901,1.7901,1.7901,1.7901,1.7901,1.7901,1.7901,1.7901,1.7901,1.7901,1.7901,1.7901,1.7901,1.7901,1.7901,1.7901,1.7901,1.7901,1.7901,1.7901,1.7901,1.7901,1.7901,1.7901,1.7901,1.7901,1.7901,1.7901,1.7901,1.7901,1.7901,1.7901,1.7901,1.7901,1.7901,1.2669,1.3044,1.3532,1.415,1.4414,1.451,1.4517,0.0,1.4509,1.4509,1.4511,1.4507,1.4512,1.5006,1.5617,1.6213,1.6697,1.7001,1.7003,1.7002,1.6991,1.6991,1.6991,1.6993,1.7002,1.7123,1.7399,1.7875,1.7902,1.7901,1.7901,1.7901,1.7901,1.7901,1.7901,1.7901,1.7901,1.7901,1.7901,1.7901,1.7901,1.7901,1.7901,1.7901,1.7901,1.7901,1.7901,1.7901,1.7901,1.7901,1.7901,1.7901,1.7901,1.7901,1.7901,1.7901,1.7901,1.7901,1.7901,1.7901,1.7901,1.7901,1.7901,1.7901,1.7901,1.7901,1.7901,1.7901,1.7901,1.7901,1.7901,1.7901,1.7901,1.7901,1.7901,1.7901,1.7901,1.7901,1.7901,1.7901,1.7901,1.7901,1.7901,1.7901,1.7901,1.7901,1.7901,1.7901,1.7901,1.7901,1.7901,1.7901,1.7901,1.7901,1.7901,1.7901,1.7901,1.7901,1.7901,1.7901,1.7901,1.7901,1.7901,1.7901,1.7901,1.7901,1.7901,1.7901,1.7901,1.7901,1.7901,1.7901,1.3185,1.3369,1.3538,1.4155,1.472,1.5145,1.5138,1.5141,1.5143,1.5143,1.5138,1.5134,1.5142,1.5626,1.6233,1.6838,1.6967,1.7003,1.6997,0.0,1.6991,1.6991,1.6991,1.6993,1.7002,1.7512,1.7845,1.7902,1.7902,1.7901,1.7901,1.7901,1.7901,1.7901,1.7901,1.7901,1.7901,1.7901,1.7901,1.7901,1.7901,1.7901,1.7901,1.7901,1.7901,1.7901,1.7901,1.7901,1.7901,1.7901,1.7901,1.7901,1.7901,1.7901,1.7901,1.7901,1.7901,1.7901,1.7901,1.7901,1.7901,1.7901,1.7901,1.7901,1.7901,1.7901,1.7901,1.7901,1.7901,1.7901,1.7901,1.7901,1.7901,1.7901,1.7901,1.7901,1.7901,1.7901,1.7901,1.7901,1.7901,1.7901,1.7901,1.7901,1.7901,1.7901,1.7901,1.7901,1.7901,1.7901,1.7901,1.7901,1.7901,1.7901,1.7901,1.7901,1.7901,1.7901,1.7901,1.7901,1.7901,1.7901,1.7901,1.7901,1.7901,1.7901,1.7901,1.7901,1.7901,1.7901,1.7901,1.7901,1.3342,1.3406,1.3533,1.4149,1.4749,1.5298,1.5668,1.5764,1.5756,1.5757,1.5766,0.0,0.0,1.6248,1.6729,1.6959,1.7005,1.6996,1.6998,1.6991,1.6991,1.6991,1.7,1.7009,1.7003,1.7541,1.7902,1.7902,1.7895,1.7901,1.7901,1.7901,1.7901,1.7901,1.7901,1.7901,1.7901,1.7901,1.7901,1.7901,1.7901,1.7901,1.7901,1.7901,1.7901,1.7901,1.7901,1.7901,1.7901,1.7901,1.7901,1.7901,1.7901,1.7901,1.7901,1.7901,1.7901,1.7901,1.7901,1.7901,1.7901,1.7901,1.7901,1.7901,1.7901,1.7901,1.7901,1.7901,1.7901,1.7901,1.7901,1.7901,1.7901,1.7901,1.7901,1.7901,1.7901,1.7901,1.7901,1.7901,1.7901,1.7901,1.7901,1.7901,1.7901,1.7901,1.7901,1.7901,1.7901,1.7901,1.7901,1.7901,1.7901,1.7901,1.7901,1.7901,1.7901,1.7901,1.7901,1.7901,1.7901,1.7901,1.7901,1.7901,1.7901,1.7901,1.7901,1.7901,1.7901,1.7901,1.7901,1.7901,1.3672,1.3677,1.3829,1.4432,1.4888,1.5307,1.5715,1.5957,1.6104,1.6099,1.6102,1.6094,1.6107,0.0,1.7007,1.6997,1.7009,1.6991,1.6991,1.6991,1.6998,1.7,1.6995,1.7063,1.7264,1.7657,1.7902,1.7902,1.7901,1.7901,1.7901,1.7901,1.7901,1.7901,1.7901,1.7901,1.7901,1.7901,1.7901,1.7901,1.7901,1.7901,1.7901,1.7901,1.7901,1.7901,1.7901,1.7901,1.7901,1.7901,1.7901,1.7901,1.7901,1.7901,1.7901,1.7901,1.7901,1.7901,1.7901,1.7901,1.7901,1.7901,1.7901,1.7901,1.7901,1.7901,1.7901,1.7901,1.7901,1.7901,1.7901,1.7901,1.7901,1.7901,1.7901,1.7901,1.7901,1.7901,1.7901,1.7901,1.7901,1.7901,1.7901,1.7901,1.7901,1.7901,1.7901,1.7901,1.7901,1.7901,1.7901,1.7901,1.7901,1.7901,1.7901,1.7901,1.7901,1.7901,1.7901,1.7901,1.7901,1.7901,1.7901,1.7901,1.7901,1.7901,1.7901,1.7901,1.7901,1.7901,1.7901,1.7901,1.4295,1.4299,1.4448,1.5053,1.5202,1.5208,1.5213,1.5662,1.6095,1.6107,1.611,1.6109,1.6112,1.6605,0.0,1.6997,1.6991,1.6991,1.6991,1.6991,1.7006,1.6995,1.7016,1.7244,1.7847,1.7902,1.7902,1.7902,1.7901,1.7901,1.7901,1.7901,1.7901,1.7901,1.7901,1.7901,1.7901,1.7901,1.7901,1.7901,1.7901,1.7901,1.7901,1.7901,1.7901,1.7901,1.7901,1.7901,1.7901,1.7901,1.7901,1.7901,1.7901,1.7901,1.7901,1.7901,1.7901,1.7901,1.7901,1.7901,1.7901,1.7901,1.7901,1.7901,1.7901,1.7901,1.7901,1.7901,1.7901,1.7901,1.7901,1.7901,1.7901,1.7901,1.7901,1.7901,1.7901,1.7901,1.7901,1.7901,1.7901,1.7901,1.7901,1.7901,1.7901,1.7901,1.7901,1.7901,1.7901,1.7901,1.7901,1.7901,1.7901,1.7901,1.7901,1.7901,1.7901,1.7901,1.7901,1.7901,1.7901,1.7901,1.7901,1.7901,1.7901,1.7901,1.7901,1.7901,1.7901,1.7901,1.7901,1.7901,1.4182,1.4613,1.4977,1.5162,1.5517,1.5827,1.5822,1.5971,1.6215,1.6643,1.6726,1.6725,1.6733,1.6884,0.0,1.6997,1.6991,1.6991,1.6991,1.6991,1.7006,1.6995,1.737,1.7696,1.7882,1.7896,1.7895,1.7901,1.7901,1.7901,1.7901,1.7901,1.7901,1.7901,1.7901,1.7901,1.7901,1.7901,1.7901,1.7901,1.7901,1.7901,1.7901,1.7901,1.7901,1.7901,1.7901,1.7901,1.7901,1.7901,1.7901,1.7901,1.7901,1.7901,1.7901,1.7901,1.7901,1.7901,1.7901,1.7901,1.7901,1.7901,1.7901,1.7901,1.7901,1.7901,1.7901,1.7901,1.7901,1.7901,1.7901,1.7901,1.7901,1.7901,1.7901,1.7901,1.7901,1.7901,1.7901,1.7901,1.7901,1.7901,1.7901,1.7901,1.7901,1.7901,1.7901,1.7901,1.7901,1.7901,1.7901,1.7901,1.7901,1.7901,1.7901,1.7901,1.7901,1.7901,1.7901,1.7901,1.7901,1.7901,1.7901,1.7901,1.7901,1.7901,1.7901,1.7901,1.7901,1.7901,1.7901,1.7901,1.4493,1.5102,1.5562,1.5556,1.5832,1.6098,1.61,1.6291,1.6561,1.6937,1.6995,1.7,1.6998,1.7006,0.0,1.7004,1.6991,1.6991,1.6991,1.6999,1.6995,1.7003,1.7534,1.7894,1.7902,1.7895,1.7901,1.7901,1.7901,1.7901,1.7901,1.7901,1.7901,1.7901,1.7901,1.7901,1.7901,1.7901,1.7901,1.7901,1.7901,1.7901,1.7901,1.7901,1.7901,1.7901,1.7901,1.7901,1.7901,1.7901,1.7901,1.7901,1.7901,1.7901,1.7901,1.7901,1.7901,1.7901,1.7901,1.7901,1.7901,1.7901,1.7901,1.7901,1.7901,1.7901,1.7901,1.7901,1.7901,1.7901,1.7901,1.7901,1.7901,1.7901,1.7901,1.7901,1.7901,1.7901,1.7901,1.7901,1.7901,1.7901,1.7901,1.7901,1.7901,1.7901,1.7901,1.7901,1.7901,1.7901,1.7901,1.7901,1.7901,1.7901,1.7901,1.7901,1.7901,1.7901,1.7901,1.7901,1.7901,1.7901,1.7901,1.7901,1.7901,1.7901,1.7901,1.7901,1.7901,1.7901,1.7901,1.7901,1.5035,1.564,1.6107,1.6095,1.6102,1.6107,1.6169,1.6608,1.6996,1.6994,1.7007,1.6991,1.6991,1.6991,1.6991,1.6991,1.6991,1.6991,1.6991,1.7008,1.7016,1.7082,1.7568,1.7902,1.7902,1.7901,1.7901,1.7901,1.7901,1.7901,1.7901,1.7901,1.7901,1.7901,1.7901,1.7901,1.7901,1.7901,1.7901,1.7901,1.7901,1.7901,1.7901,1.7901,1.7901,1.7901,1.7901,1.7901,1.7901,1.7901,1.7901,1.7901,1.7901,1.7901,1.7901,1.7901,1.7901,1.7901,1.7901,1.7901,1.7901,1.7901,1.7901,1.7901,1.7908,1.7922,1.7922,1.7922,1.7922,1.7922,1.7901,1.7901,1.7901,1.7901,1.7901,1.7901,1.7901,1.7901,1.7901,1.7901,1.7901,1.7901,1.7901,1.7901,1.7901,1.7901,1.7901,1.7901,1.7901,1.7901,1.7901,1.7901,1.7901,1.7901,1.7901,1.7901,1.7901,1.7901,1.7901,1.7901,1.7901,1.7901,1.7901,1.7901,1.7901,1.7901,1.7901,1.7901,1.7901,1.7901,1.7901,1.7901,1.504,1.5636,1.61,1.6105,1.6099,1.6217,1.6697,1.6913,1.7,1.6995,1.6997,1.6991,1.6991,1.6991,1.6991,1.6991,1.6991,1.6991,1.6991,1.7008,1.7183,1.7655,1.7819,1.7902,1.7902,1.7901,1.7901,1.7901,1.7901,1.7901,1.7901,1.7901,1.7901,1.7901,1.7901,1.7901,1.7901,1.7901,1.7901,1.7901,1.7901,1.7901,1.7901,1.7901,1.7901,1.7901,1.7901,1.7901,1.7901,1.7901,1.7901,1.7901,1.7901,1.7901,1.7901,1.7901,1.7901,1.7901,1.7901,1.7901,1.7901,1.7901,1.7901,1.7922,1.803,1.8064,1.8064,1.8064,1.8064,1.8037,1.7928,1.7901,1.7901,1.7901,1.7901,1.7901,1.7901,1.7901,1.7901,1.7901,1.7901,1.7901,1.7901,1.7901,1.7901,1.7901,1.7901,1.7901,1.7901,1.7901,1.7901,1.7901,1.7901,1.7901,1.7901,1.7901,1.7901,1.7901,1.7901,1.7901,1.7901,1.7901,1.7901,1.7901,1.7901,1.7901,1.7901,1.7901,1.7901,1.7901,1.7901,1.7901,1.5398,1.5858,1.6097,1.6096,1.6312,1.6616,1.6926,1.6997,1.7007,1.7004,1.6991,1.6991,1.6991,1.6991,1.6991,1.6991,1.6991,1.7005,1.7007,1.7002,1.7224,1.7832,1.7895,1.7902,1.7901,1.7901,1.7901,1.7901,1.7901,1.7901,1.7901,1.7901,1.7901,1.7901,1.7901,1.7901,1.7901,1.7901,1.7901,1.7901,1.7901,1.7901,1.7901,1.7901,1.7901,1.7901,1.7901,1.7901,1.7901,1.7901,1.7901,1.7901,1.7901,1.7901,1.7901,1.7901,1.7901,1.7901,1.7901,1.7901,1.7901,1.7901,1.7901,1.7928,1.8064,1.8105,1.8111,1.8179,1.8199,1.8179,1.8111,1.8091,1.8085,1.8017,1.7942,1.7901,1.7901,1.7901,1.7901,1.7901,1.7901,1.7901,1.7901,1.7901,1.7901,1.7901,1.7901,1.7901,1.7901,1.7901,1.7901,1.7901,1.7901,1.7901,1.7901,1.7901,1.7901,1.7901,1.7901,1.7901,1.7901,1.7901,1.7901,1.7901,1.7901,1.7901,1.7901,1.7901,1.7901,1.7901,1.7901,1.7928,1.549,1.5937,1.6093,1.6105,1.6545,1.6997,1.6994,1.6994,1.6991,1.6991,1.6991,1.6991,1.6991,1.6991,1.6991,1.6991,1.6998,1.7,1.6995,1.7083,1.7338,1.7841,1.7902,1.7901,1.7901,1.7901,1.7901,1.7901,1.7901,1.7901,1.7901,1.7901,1.7901,1.7901,1.7901,1.7901,1.7901,1.7901,1.7901,1.7901,1.7901,1.7901,1.7901,1.7901,1.7901,1.7901,1.7901,1.7901,1.7901,1.7901,1.7901,1.7901,1.7901,1.7901,1.7901,1.7901,1.7901,1.7901,1.7901,1.7901,1.7901,1.7901,1.7901,1.7928,1.8091,1.8124,1.8158,1.8307,1.8327,1.8327,1.8307,1.8307,1.8273,1.8158,1.805,1.7962,1.7908,1.7901,1.7901,1.7901,1.7901,1.7901,1.7901,1.7901,1.7901,1.7901,1.7901,1.7901,1.7901,1.7901,1.7901,1.7901,1.7901,1.7901,1.7901,1.7901,1.7901,1.7901,1.7901,1.7901,1.7901,1.7922,1.7928,1.7928,1.7928,1.7942,1.7976,1.7976,1.7976,1.7976,1.7976,1.803,1.4348,1.5292,1.6101,1.6097,1.6554,1.7001,1.6996,1.7004,1.6991,1.6991,1.6991,1.6991,1.6991,1.6991,1.6991,1.6991,1.7001,1.7009,1.6996,1.7453,1.7813,1.7889,1.7902,1.7901,1.7901,1.7901,1.7901,1.7901,1.7901,1.7901,1.7901,1.7901,1.7901,1.7901,1.7901,1.7901,1.7901,1.7901,1.7901,1.7901,1.7901,1.7901,1.7901,1.7901,1.7901,1.7901,1.7901,1.7901,1.7901,1.7901,1.7901,1.7901,1.7901,1.7901,1.7901,1.7901,1.7901,1.7901,1.7901,1.7901,1.7901,1.7901,1.7901,1.7942,1.8199,1.8273,1.8307,1.8449,1.8469,1.8449,1.8327,1.8307,1.8307,1.8273,1.8253,1.8179,1.7942,1.7901,1.7901,1.7901,1.7901,1.7901,1.7901,1.7901,1.7901,1.7901,1.7901,1.7901,1.7901,1.7901,1.7901,1.7901,1.7901,1.7901,1.7901,1.7901,1.7901,1.7901,1.7901,1.7901,1.7901,1.8017,1.8071,1.8071,1.8071,1.8124,1.8253,1.8253,1.8253,1.8253,1.8253,1.8253,1.4552,1.5448,1.618,1.6515,1.6805,1.7003,1.7009,1.7,1.7001,1.7001,1.7001,1.7007,1.6992,1.6991,1.7005,1.7007,1.7002,1.7116,1.7466,1.7731,1.7896,1.7896,1.7895,1.7901,1.7901,1.7901,1.7901,1.7901,1.7901,1.7901,1.7901,1.7901,1.7901,1.7901,1.7901,1.7901,1.7901,1.7901,1.7901,1.7901,1.7901,1.7901,1.7901,1.7901,1.7901,1.7901,1.7901,1.7901,1.7901,1.7901,1.7901,1.7901,1.7901,1.7901,1.7901,1.7901,1.7901,1.7901,1.7901,1.7901,1.7901,1.7901,1.7901,1.7942,1.8219,1.8307,1.8347,1.8599,1.8668,1.8654,1.86,1.858,1.8552,1.8449,1.8415,1.8361,1.8179,1.8124,1.8105,1.803,1.8017,1.7996,1.7908,1.7901,1.7901,1.7901,1.7901,1.7901,1.7901,1.7901,1.7901,1.7901,1.7901,1.7928,1.8017,1.8017,1.8037,1.8125,1.8124,1.8124,1.8124,1.8179,1.8247,1.8321,1.8253,1.8232,1.8307,1.8307,1.8307,1.8307,1.8307,1.8341,1.4693,1.541,1.6018,1.6614,1.6893,1.6994,1.7002,1.6994,1.7036,1.7203,1.7229,1.7175,1.7026,1.7006,1.7,1.6995,1.7136,1.7385,1.7841,1.7896,1.7896,1.7902,1.7901,1.7901,1.7901,1.7901,1.7901,1.7901,1.7901,1.7901,1.7901,1.7901,1.7901,1.7901,1.7901,1.7901,1.7901,1.7901,1.7901,1.7901,1.7901,1.7901,1.7901,1.7901,1.7901,1.7901,1.7901,1.7901,1.7901,1.7901,1.7901,1.7901,1.7901,1.7901,1.7901,1.7901,1.7901,1.7901,1.7901,1.7901,1.7901,1.7901,1.7901,1.7942,1.8219,1.8307,1.8375,1.8703,1.8806,1.8806,1.8806,1.8806,1.8757,1.8605,1.8586,1.8531,1.8341,1.8307,1.8273,1.8165,1.8145,1.8125,1.8016,1.8003,1.8003,1.8003,1.8003,1.8003,1.8003,1.8003,1.8003,1.8003,1.8003,1.8037,1.8145,1.8145,1.8199,1.8293,1.8307,1.8307,1.8307,1.8327,1.8394,1.8503,1.8449,1.8423,1.8423,1.8423,1.8423,1.8423,1.8423,1.8483,1.4168,1.4792,1.5387,1.6003,1.6574,1.6996,1.6997,1.6994,1.7162,1.7741,1.7846,1.7681,1.7115,1.7002,1.7002,1.6996,1.748,1.7861,1.7902,1.7902,1.7901,1.7901,1.7901,1.7901,1.7901,1.7901,1.7901,1.7901,1.7901,1.7901,1.7901,1.7901,1.7901,1.7901,1.7901,1.7901,1.7901,1.7901,1.7901,1.7901,1.7901,1.7901,1.7901,1.7901,1.7901,1.7901,1.7901,1.7901,1.7901,1.7901,1.7901,1.7901,1.7901,1.7901,1.7901,1.7901,1.7901,1.7901,1.7901,1.7901,1.7901,1.7901,1.7901,1.7942,1.8219,1.8307,1.8375,1.8703,1.8806,1.8806,1.8806,1.8806,1.8806,1.8785,1.8771,1.8703,1.8375,1.8307,1.8307,1.8287,1.8287,1.8287,1.8273,1.8273,1.8273,1.8273,1.8273,1.8273,1.8273,1.8273,1.8273,1.8273,1.8273,1.8273,1.8287,1.8287,1.8293,1.8307,1.8307,1.8307,1.8307,1.8415,1.8488,1.8503,1.8674,1.8771,1.8771,1.8771,1.8771,1.8771,1.8771,1.8771,1.4139,1.4742,1.5345,1.5953,1.6262,1.6518,1.6911,1.7299,1.7647,1.7857,1.7899,1.7724,1.7108,1.7009,1.7129,1.7518,1.7765,1.7896,1.7902,1.7895,1.7901,1.7901,1.7901,1.7901,1.7901,1.7901,1.7901,1.7901,1.7901,1.7901,1.7901,1.7901,1.7901,1.7901,1.7901,1.7901,1.7901,1.7901,1.7901,1.7901,1.7901,1.7901,1.7901,1.7901,1.7901,1.7901,1.7901,1.7901,1.7901,1.7901,1.7901,1.7901,1.7901,1.7901,1.7901,1.7901,1.7901,1.7901,1.7901,1.7901,1.7901,1.7901,1.7901,1.7942,1.8219,1.8307,1.8375,1.8703,1.8806,1.8806,1.8806,1.8806,1.8806,1.8806,1.8806,1.8772,1.8648,1.862,1.858,1.8449,1.8435,1.8394,1.8306,1.8307,1.8307,1.8307,1.8307,1.8307,1.8307,1.8307,1.8307,1.8307,1.8307,1.8327,1.8415,1.8435,1.8483,1.8614,1.862,1.862,1.862,1.8668,1.8688,1.8688,1.8757,1.8806,1.8806,1.8806,1.8806,1.8806,1.8806,1.8806,1.4139,1.4584,1.504,1.565,1.5952,1.6256,1.6856,1.7314,1.7659,1.7858,1.7901,1.7786,1.7377,1.7304,1.7432,1.7832,1.7902,1.7896,1.7902,1.7901,1.7901,1.7901,1.7901,1.7901,1.7901,1.7901,1.7901,1.7901,1.7901,0.0,1.7901,1.7901,1.7901,1.7901,1.7901,1.7901,1.7901,1.7901,1.7901,1.7901,1.7901,1.7901,1.7901,1.7901,1.7901,1.7901,1.7901,1.7901,1.7901,1.7901,1.7901,1.7901,1.7901,1.7901,1.7901,1.7901,1.7901,1.7901,1.7901,1.7901,1.7901,1.7901,1.7901,1.7942,1.8219,1.8307,1.8375,1.8703,1.8806,1.8806,1.8806,1.8806,1.8806,1.8806,1.8806,1.8806,1.8806,1.8806,1.8757,1.8634,1.8599,1.8571,1.8477,1.8478,1.8478,1.8478,1.8478,1.8478,1.8478,1.8478,1.8478,1.8478,1.8478,1.8497,1.8585,1.8599,1.8654,1.8791,1.8806,1.8806,1.8806,1.8806,1.8806,1.8806,1.8806,1.8806,1.8806,1.8806,1.8806,1.8806,1.8806,1.8806,0.0,0.0,0.0,1.5058,1.564,1.6226,1.6837,1.6994,1.7173,1.7758,1.7887,1.7906,1.7895,1.7902,1.7902,1.7902,1.7902,1.7901,1.7901,1.7901,1.7901,1.7901,1.7901,1.7901,1.7901,1.7901,1.7901,1.7901,1.7901,1.7901,1.7901,1.7901,1.7901,1.7901,1.7901,1.7901,1.7901,1.7901,1.7901,1.7901,1.7901,1.7901,1.7901,1.7901,1.7901,1.7901,1.7901,1.7901,1.7901,1.7901,1.7901,1.7901,1.7901,1.7901,1.7901,1.7901,1.7901,1.7901,1.7901,1.7901,1.7901,1.7901,1.7901,1.7942,1.8219,1.8307,1.8375,1.8703,1.8806,1.8806,1.8806,1.8806,1.8806,1.8806,1.8806,1.8806,1.8806,1.8806,1.8806,1.8806,1.8806,1.8806,1.8806,1.8806,1.8806,1.8806,1.8806,1.8806,1.8806,1.8806,1.8806,1.8806,1.8806,1.8806,1.8806,1.8806,1.8806,1.8806,1.8806,1.8806,1.8806,1.8806,1.8806,1.8806,1.8806,1.8806,1.8806,1.8806,1.8806,1.8806,1.8806,1.8806,1.4252,0.0,0.0,0.0,0.0,0.0,1.6207,1.6689,1.7046,1.7216,1.7602,1.7895,1.7902,1.7895,1.7895,1.7895,1.7902,1.7901,1.7901,1.7901,1.7901,1.7901,1.7901,1.7901,1.7901,1.7901,1.7901,0.0,1.7901,1.7901,1.7901,1.7901,1.7901,1.7901,1.7901,1.7901,1.7901,1.7901,1.7901,1.7901,1.7901,1.7901,1.7901,1.7901,1.7901,1.7901,1.7901,1.7901,1.7901,1.7901,1.7901,1.7901,1.7901,1.7901,1.7901,1.7901,1.7901,1.7901,1.7901,1.7901,1.7901,1.7901,1.7901,1.7942,1.8219,1.8307,1.8375,1.8703,1.8806,1.8806,1.8806,1.8806,1.8806,1.8806,1.8806,1.8806,1.8806,1.8806,1.8806,1.8806,1.8806,1.8806,1.8806,1.8806,1.8806,1.8806,1.8806,1.8806,1.8806,1.8806,1.8806,1.8806,1.8806,1.8806,1.8806,1.8806,1.8806,1.8806,1.8806,1.8806,1.8806,1.8806,1.8806,1.8806,1.8806,1.8806,1.8806,1.8806,1.8806,1.8806,1.8806,1.8806,1.4303,1.4298,1.4436,1.5052,0.0,0.0,1.5965,1.6367,1.6697,1.6954,1.7484,1.79,1.7896,1.7902,1.7902,1.7902,1.7901,1.7901,1.7901,1.7901,1.7901,1.7901,1.7901,1.7901,1.7901,1.7901,1.7901,1.7901,1.7901,1.7901,1.7901,1.7901,1.7901,1.7901,1.7901,1.7901,1.7901,1.7901,1.7901,1.7901,1.7901,1.7901,1.7901,1.7901,1.7901,1.7901,1.7901,1.7901,1.7901,1.7901,1.7901,1.7901,1.7901,1.7901,1.7901,1.7901,1.7901,1.7901,1.7901,1.7901,1.7901,1.7901,1.7901,1.7942,1.8219,1.8307,1.8375,1.8703,1.8806,1.8806,1.8806,1.8806,1.8806,1.8806,1.8806,1.8806,1.8806,1.8806,1.8806,1.8806,1.8806,1.8806,1.8806,1.8806,1.8806,1.8806,1.8806,1.8806,1.8806,1.8806,1.8806,1.8806,1.8806,1.8806,1.8806,1.8806,1.8806,1.8806,1.8806,1.8806,1.8806,1.8806,1.8806,1.8806,1.8806,1.8806,1.8806,1.8806,1.8806,1.8806,1.8806,1.8806,1.4298,1.4348,1.4534,1.5075,0.0,0.0,1.5874,1.605,1.6275,1.6882,1.7423,1.7797,1.7799,1.7854,1.7895,1.7895,1.7902,1.7902,1.7901,1.7901,1.7901,1.7894,1.7894,1.7894,1.7894,1.7894,1.7894,1.7901,1.7901,1.7901,1.7901,1.7901,1.7901,1.7901,1.7901,1.7901,1.7901,1.7901,1.7901,1.7901,1.7901,1.7901,1.7901,1.7901,1.7901,1.7901,1.7901,1.7901,1.7901,1.7901,1.7901,1.7901,1.7901,1.7901,1.7901,1.7901,1.7901,1.7901,1.7901,1.7901,1.7901,1.7901,1.7901,1.7942,1.8219,1.8307,1.8375,1.8703,1.8806,1.8806,1.8806,1.8806,1.8806,1.8806,1.8806,1.8806,1.8806,1.8806,1.8806,1.8806,1.8806,1.8806,1.8806,1.8806,1.8806,1.8806,1.8806,1.8806,1.8806,1.8806,1.8806,1.8806,1.8806,1.8806,1.8806,1.8806,1.8806,1.8806,1.8806,1.8806,1.8806,1.8806,1.8806,1.8806,1.8806,1.8806,1.8806,1.8806,1.8806,1.8806,1.8806,1.8806,0.0,0.0,0.0,0.0,0.0,0.0,0.0,1.5746,1.6269,1.6878,1.7083,1.7186,1.7183,1.7573,1.7907,1.7895,1.7896,1.7896,1.7902,1.7901,1.79,1.7897,1.7897,1.7897,1.7897,1.7897,1.7905,1.7894,1.7901,1.7901,1.7901,1.7901,1.7901,1.7901,1.7901,1.7901,1.7901,1.7901,1.7901,1.7901,1.7901,1.7901,1.7901,1.7901,1.7901,1.7901,1.7901,1.7901,1.7901,1.7901,1.7901,1.7901,1.7901,1.7901,1.7901,1.7901,1.7901,1.7901,1.7901,1.7901,1.7901,1.7901,1.7901,1.7942,1.8219,1.8307,1.8375,1.8703,1.8806,1.8806,1.8806,1.8806,1.8806,1.8806,1.8806,1.8806,1.8806,1.8806,1.8806,1.8806,1.8806,1.8806,1.8806,1.8806,1.8806,1.8806,1.8806,1.8806,1.8806,1.8806,1.8806,1.8806,1.8806,1.8806,1.8806,1.8806,1.8806,1.8806,1.8806,1.8806,1.8806,1.8806,1.8806,1.8806,1.8806,1.8806,1.8806,1.8806,1.8806,1.8806,1.8806,1.8806,0.0,0.0,0.0,1.5198,0.0,0.0,0.0,0.0,1.6192,1.6488,1.655,1.6635,1.694,1.7254,1.7447,1.7452,1.7702,1.7907,1.7902,1.7894,1.7897,1.7905,1.8171,1.8354,1.8354,1.8089,1.7904,1.7894,1.7962,1.7996,1.7996,1.8057,1.8071,1.8003,1.7996,1.7976,1.7901,1.7901,1.7901,1.7901,1.7901,1.7901,1.7901,1.7901,1.7901,1.7901,1.7901,1.7901,1.7901,1.7901,1.7901,1.7901,1.7901,1.7901,1.7901,1.7901,1.7901,1.7901,1.7901,1.7901,1.7901,1.7901,1.7901,1.7942,1.8219,1.8423,1.858,1.8757,1.8806,1.8806,1.8806,1.8806,1.8806,1.8806,1.8806,1.8806,1.8806,1.8806,1.8806,1.8806,1.8806,1.8806,1.8806,1.8806,1.8806,1.8806,1.8806,1.8806,1.8806,1.8806,1.8806,1.8806,1.8806,1.8806,1.8806,1.8806,1.8806,1.8806,1.8806,1.8806,1.8806,1.8806,1.8806,1.8806,1.8806,1.8806,1.8806,1.8806,1.8806,1.8806,1.8806,1.8806,0.0,0.0,0.0,0.0,0.0,1.5197,0.0,0.0,0.0,1.5926,1.5929,1.6104,1.6714,1.6822,1.6828,1.6829,1.7327,1.7738,1.7732,1.7832,1.7944,1.8063,1.85,1.8796,1.8802,1.8298,1.7953,1.7942,1.8037,1.8105,1.8105,1.8233,1.8232,1.8105,1.8105,1.8037,1.7901,1.7901,1.7901,1.7901,1.7901,1.7901,1.7901,1.7901,1.7901,1.7901,1.7901,1.7901,1.7901,1.7901,1.7901,1.7901,1.7901,1.7901,1.7901,1.7901,1.7901,1.7901,1.7901,1.7901,1.7901,1.7901,1.7928,1.8016,1.8232,1.8531,1.8806,1.8806,1.8806,1.8806,1.8806,1.8806,1.8806,1.8806,1.8806,1.8806,1.8806,1.8806,1.8806,1.8806,1.8806,1.8806,1.8806,1.8806,1.8806,1.8806,1.8806,1.8806,1.8806,1.8806,1.8806,1.8806,1.8806,1.8806,1.8806,1.8806,1.8806,1.8806,1.8806,1.8806,1.8806,1.8806,1.8806,1.8806,1.8806,1.8806,1.8806,1.8806,1.8806,1.8806,1.8806,1.8806,0.0,0.0,0.0,0.0,1.5598,0.0,0.0,0.0,0.0,1.5294,0.0,1.5486,1.6093,0.0,0.0,1.6197,1.6709,1.7101,1.7099,1.756,1.8095,1.8629,1.8762,1.8804,1.8803,1.8425,1.8133,1.8077,1.8091,1.8105,1.8105,1.8233,1.8232,1.8105,1.8105,1.8037,1.7901,1.7901,1.7901,1.7901,1.7901,1.7901,1.7901,1.7901,1.7901,1.7901,1.7901,1.7901,1.7901,1.7901,1.7901,1.7901,1.7901,1.7901,1.7901,1.7901,1.7901,1.7901,1.7901,1.7901,1.7901,1.7901,1.8064,1.8253,1.8287,1.8531,1.8806,1.8806,1.8806,1.8806,1.8806,1.8806,1.8806,1.8806,1.8806,1.8806,1.8806,1.8806,1.8806,1.8806,1.8806,1.8806,1.8806,1.8806,1.8806,1.8806,1.8806,1.8806,1.8806,1.8806,1.8806,1.8806,1.8806,1.8806,1.8806,1.8806,1.8806,1.8806,1.8806,1.8806,1.8806,1.8806,1.8806,1.8806,1.8806,1.8806,1.8806,1.8806,1.8806,1.8806,1.8806,1.8806,0.0,0.0,0.0,0.0,0.0,0.0,1.4753,0.0,1.4774,0.0,0.0,0.0,0.0,0.0,0.0,0.0,1.6604,0.0,1.6994,1.7227,1.7599,1.8212,1.828,0.0,1.8481,1.8215,1.8049,1.8105,1.8165,1.8253,1.8321,1.8498,1.8478,1.8219,1.8219,1.8111,1.7901,1.7901,1.7901,1.7901,1.7901,1.7901,1.7901,1.7901,1.7901,1.7901,1.7901,1.7901,1.7901,1.7901,1.7901,1.7901,1.7901,1.7901,1.7901,1.7901,1.7901,1.7901,1.7901,1.7901,1.7901,1.7901,1.8077,1.8307,1.8307,1.8531,1.8806,1.8806,1.8806,1.8806,1.8806,1.8806,1.8806,1.8806,1.8806,1.8806,1.8806,1.8806,1.8806,1.8806,1.8806,1.8806,1.8806,1.8806,1.8806,1.8806,1.8806,1.8806,1.8806,1.8806,1.8806,1.8806,1.8806,1.8806,1.8806,1.8806,1.8806,1.8806,1.8806,1.8806,1.8806,1.8806,1.8806,1.8806,1.8806,1.8806,1.8806,1.8806,1.8806,1.8806,1.8806,1.8806,1.6353,0.0,0.0,0.0,0.0,0.0,0.0,0.0,0.0,0.0,0.0,0.0,0.0,0.0,0.0,0.0,0.0,1.6742,1.675,1.6751,1.6977,1.7582,1.7715,0.0,0.0,1.8009,1.7966,1.8145,1.8232,1.8361,1.8488,1.8688,1.8654,1.8361,1.8321,1.8199,1.7962,1.7922,1.7901,1.7901,1.7901,1.7901,1.7901,1.7901,1.7901,1.7901,1.7901,1.7901,1.7901,1.7901,1.7901,1.7901,1.7901,1.7901,1.7901,1.7901,1.7901,1.7901,1.7901,1.7901,1.7901,1.7901,1.8077,1.8307,1.8307,1.8531,1.8806,1.8806,1.8806,1.8806,1.8806,1.8806,1.8806,1.8806,1.8806,1.8806,1.8806,1.8806,1.8806,1.8806,1.8806,1.8806,1.8806,1.8806,1.8806,1.8806,1.8806,1.8806,1.8806,1.8806,1.8806,1.8806,1.8806,1.8806,1.8806,1.8806,1.8806,1.8806,1.8806,1.8806,1.8806,1.8806,1.8806,1.8806,1.8806,1.8806,1.8806,1.8806,1.8806,1.8806,1.8806,1.8806,0.0,0.0,0.0,1.6251,0.0,0.0,0.0,0.0,1.5186,0.0,0.0,0.0,0.0,0.0,0.0,0.0,0.0,0.0,0.0,0.0,1.6351,1.6955,0.0,0.0,0.0,1.7901,1.8017,0.0,1.8307,1.8361,1.8488,1.8688,1.8709,1.8503,1.8375,1.8232,1.8091,1.7962,1.7901,1.7901,1.7901,1.7901,1.7901,1.7901,1.7901,1.7901,1.7901,1.7901,1.7901,1.7901,1.7901,1.7901,1.7901,1.7901,1.7901,1.7901,1.7901,1.7901,1.7901,1.7901,1.7901,1.7901,1.8077,1.8307,1.8307,1.8531,1.8806,1.8806,1.8806,1.8806,1.8806,1.8806,1.8806,1.8806,1.8806,1.8806,1.8806,1.8806,1.8806,1.8806,1.8806,1.8806,1.8806,1.8806,1.8806,1.8806,1.8806,1.8806,1.8806,1.8806,1.8806,1.8806,1.8806,1.8806,1.8806,1.8806,1.8806,1.8806,1.8806,1.8806,1.8806,1.8806,1.8806,1.8806,1.8806,1.8806,1.8806,1.8806,1.8806,1.8806,1.8806,1.8806,0.0,0.0,1.745,1.6856,0.0,0.0,0.0,0.0,0.0,0.0,0.0,0.0,0.0,0.0,0.0,0.0,0.0,0.0,0.0,0.0,0.0,0.0,0.0,0.0,0.0,0.0,0.0,0.0,1.8381,0.0,1.8688,1.8757,1.8709,1.8517,1.8463,1.8321,1.8105,1.8064,1.7996,1.7901,1.7901,1.7901,1.7901,1.7901,1.7901,1.7901,1.7901,1.7901,1.7901,1.7901,1.7901,1.7901,1.7901,1.7901,1.7901,1.7901,1.7901,1.7901,1.7901,1.7901,1.7901,1.7901,1.8016,1.8179,1.8273,1.8449,1.8626,1.8757,1.8806,1.8806,1.8806,1.8806,1.8806,1.8806,1.8806,1.8806,1.8806,1.8806,1.8806,1.8806,1.8806,1.8806,1.8806,1.8806,1.8806,1.8806,1.8806,1.8806,1.8806,1.8806,1.8806,1.8806,1.8806,1.8806,1.8806,1.8806,1.8806,1.8806,1.8806,1.8806,1.8806,1.8806,1.8806,1.8806,1.8806,1.8806,1.8806,1.8806,1.8806,1.8806,1.8806,1.8806,1.7318,1.7599,0.0,1.7145,1.6542,0.0,1.5604,0.0,0.0,0.0,0.0,0.0,0.0,0.0,0.0,0.0,0.0,0.0,0.0,1.6096,0.0,0.0,0.0,0.0,0.0,0.0,0.0,0.0,0.0,0.0,0.0,1.8806,1.8737,1.8605,1.8537,1.8415,1.8232,1.8145,1.8064,1.7962,1.7922,1.7901,1.7901,1.7901,1.7901,1.7901,1.7901,1.7901,1.7901,1.7901,1.7901,1.7901,1.7901,1.7901,1.7901,1.7901,1.7901,1.7901,1.7901,1.7901,1.7901,1.7901,1.7996,1.8124,1.8253,1.8394,1.8537,1.8743,1.8806,1.8806,1.8806,1.8806,1.8806,1.8806,1.8806,1.8806,1.8806,1.8806,1.8806,1.8806,1.8806,1.8806,1.8806,1.8806,1.8806,1.8806,1.8806,1.8806,1.8806,1.8806,1.8806,1.8806,1.8806,1.8806,1.8806,1.8806,1.8806,1.8806,1.8806,1.8806,1.8806,1.8806,1.8806,1.8806,1.8806,1.8806,1.8806,1.8806,1.8806,1.8806,1.8806,1.8806]}]]